[[{"header":{"parameterUnit":"m.s-1","parameterCategory":1,"la1":31.0,"la2":29.5877,"lo1":-88.7671,"lo2":-86.6584,"dy":0.0162,"dx":0.0185,"nx":115,"ny":88,"refTime":"2024-09-20T12:00:00:Z","depth":0,"parameterNumber":2,"parameterNumberName":"U-component_of_WINDS"},"data":[0.0,0.0,0.0,0.0,0.0,0.0,0.0,0.0,0.0,0.0,0.0,0.0,0.0,0.0,0.0,0.0,0.0,0.0,0.0,0.0,0.0,0.0,0.0,0.0,0.0,0.0,0.0,0.0,0.0,0.0,0.0,0.0,0.0,0.0,0.0,0.0,0.0,0.0,0.0,0.0,0.0,0.0,0.0,0.0,0.0,0.0,0.0,0.0,0.0,0.0,0.0,0.0,0.0,0.0,0.0,0.0,0.0,0.0,0.0,0.0,0.0,0.0,0.0,0.0,0.0,0.0,0.0,0.0,0.0,0.0,0.0,0.0,0.0,0.0,0.0,0.0,0.0,0.0,0.0,0.0,0.0,0.0,0.0,0.0,0.0,0.0,0.0,0.0,0.0,0.0,0.0,0.0,0.0,0.0,0.0,0.0,0.0,0.0,0.0,0.0,0.0,0.0,0.0,0.0,0.0,0.0,0.0,0.0,0.0,0.0,0.0,0.0,0.0,0.0,0.0,0.0,0.0,0.0,0.0,0.0,0.0,0.0,0.0,0.0,0.0,0.0,0.0,0.0,0.0,0.0,0.0,0.0,0.0,0.0,0.0,0.0,0.0,0.0,0.0,0.0,0.0,0.0,0.0,0.0,0.0,0.0,0.0,0.0,0.0,0.0,0.0,0.0,0.0,0.0,0.0,0.0,0.0,0.0,0.0,0.0,0.0,0.0,0.0,0.0,0.0,0.0,0.0,0.0,0.0,0.0,0.0,0.0,0.0,0.0,0.0,0.0,0.0,0.0,0.0,0.0,0.0,0.0,0.0,0.0,0.0,0.0,0.0,0.0,0.0,0.0,0.0,0.0,0.0,0.0,0.0,0.0,0.0,0.0,0.0,0.0,0.0,0.0,0.0,0.0,0.0,0.0,0.0,0.0,0.0,0.0,0.0,0.0,0.0,0.0,0.0,0.0,0.0,0.0,0.0,0.0,0.0,0.0,0.0,0.0,0.0,0.0,0.0,0.0,0.0,0.0,0.0,0.0,0.0,0.0,0.0,0.0,0.0,0.0,0.0,0.0,0.0,0.0,0.0,0.0,0.0,0.0,0.0,0.0,0.0,0.0,0.0,0.0,0.0,0.0,0.0,0.0,0.0,0.0,0.0,0.0,0.0,0.0,0.0,0.0,0.0,0.0,0.0,0.0,0.0,0.0,0.0,0.0,0.0,0.0,0.0,0.0,0.0,0.0,0.0,0.0,0.0,0.0,0.0,0.0,0.0,0.0,0.0,0.0,0.0,0.0,0.0,0.0,0.0,0.0,0.0,0.0,0.0,0.0,0.0,0.0,0.0,0.0,0.0,0.0,0.0,0.0,0.0,0.0,0.0,0.0,0.0,0.0,0.0,0.0,0.0,0.0,0.0,0.0,0.0,0.0,0.0,0.0,0.0,0.0,0.0,0.0,0.0,0.0,0.0,0.0,0.0,0.0,0.0,0.0,0.0,0.0,0.0,0.0,0.0,0.0,0.0,0.0,0.0,0.0,0.0,0.0,0.0,0.0,0.0,0.0,0.0,0.0,0.0,0.0,0.0,0.0,0.0,0.0,0.0,0.0,0.0,0.0,0.0,0.0,0.0,0.0,0.0,0.0,0.0,0.0,0.0,0.0,0.0,0.0,0.0,0.0,0.0,0.0,0.0,0.0,0.0,0.0,0.0,0.0,0.0,0.0,0.0,0.0,0.0,0.0,0.0,0.0,0.0,0.0,0.0,0.0,0.0,0.0,0.0,0.0,0.0,0.0,0.0,0.0,0.0,0.0,0.0,0.0,0.0,0.0,0.0,0.0,0.0,0.0,0.0,0.0,0.0,0.0,0.0,0.0,0.0,0.0,0.0,0.0,0.0,0.0,0.0,0.0,0.0,0.0,0.0,0.0,0.0,0.0,0.0,0.0,0.0,0.0,0.0,0.0,0.0,0.0,0.0,0.0,0.0,0.0,0.0,0.0,0.0,0.0,0.0,0.0,0.0,0.0,0.0,0.0,0.0,0.0,0.0,0.0,0.0,0.0,0.0,0.0,0.0,0.0,0.0,0.0,0.0,0.0,0.0,0.0,0.0,0.0,0.0,0.0,0.0,0.0,0.0,0.0,0.0,0.0,0.0,0.0,0.0,0.0,0.0,0.0,0.0,0.0,0.0,0.0,0.0,0.0,0.0,0.0,0.0,0.0,0.0,0.0,0.0,0.0,0.0,0.0,0.0,0.0,0.0,0.0,0.0,0.0,0.0,0.0,0.0,0.0,0.0,0.0,0.0,0.0,0.0,0.0,0.0,0.0,0.0,0.0,0.0,0.0,0.0,0.0,0.0,0.0,0.0,0.0,0.0,0.0,0.0,0.0,0.0,0.0,0.0,0.0,0.0,0.0,0.0,0.0,0.0,0.0,0.0,0.0,0.0,0.0,0.0,0.0,0.0,0.0,0.0,0.0,0.0,0.0,0.0,0.0,0.0,0.0,0.0,0.0,0.0,0.0,0.0,0.0,0.0,0.0,0.0,0.0,0.0,0.0,0.0,0.0,0.0,0.0,0.0,0.0,0.0,0.0,0.0,0.0,0.0,0.0,0.0,0.0,0.0,0.0,0.0,0.0,0.0,0.0,0.0,0.0,0.0,0.0,0.0,0.0,0.0,0.0,0.0,0.0,0.0,0.0,0.0,0.0,0.0,0.0,0.0,0.0,0.0,0.0,0.0,0.0,0.0,0.0,0.0,0.0,0.0,0.0,0.0,0.0,0.0,0.0,0.0,0.0,0.0,0.0,0.0,0.0,0.0,0.0,0.0,0.0,0.0,0.0,0.0,0.0,0.0,0.0,0.0,0.0,0.0,0.0,0.0,0.0,0.0,0.0,0.0,0.0,0.0,0.0,0.0,0.0,0.0,0.0,0.0,0.0,0.0,0.0,0.0,0.0,0.0,0.0,0.0,0.0,0.0,0.0,0.0,0.0,0.0,0.0,0.0,0.0,0.0,0.0,0.0,0.0,0.0,0.0,0.0,0.0,0.0,0.0,0.0,0.0,0.0,0.0,0.0,0.0,0.0,0.0,0.0,0.0,0.0,0.0,0.0,0.0,0.0,0.0,0.0,0.0,0.0,0.0,0.0,0.0,0.0,0.0,0.0,0.0,0.0,0.0,0.0,0.0,0.0,0.0,0.0,0.0,0.0,0.0,0.0,0.0,0.0,0.0,0.0,0.0,0.0,0.0,0.0,0.0,0.0,0.0,0.0,0.0,0.0,0.0,0.0,0.0,0.0,0.0,0.0,0.0,0.0,0.0,0.0,0.0,0.0,0.0,0.0,0.0,0.0,0.0,0.0,0.0,0.0,0.0,0.0,0.0,0.0,0.0,0.0,0.0,0.0,0.0,0.0,0.0,0.0,0.0,0.0,0.0,0.0,0.0,0.0,0.0,0.0,0.0,0.0,0.0,0.0,0.0,0.0,0.0,0.0,0.0,0.0,0.0,0.0,0.0,0.0,0.0,0.0,0.0,0.0,0.0,0.0,0.0,0.0,0.0,0.0,0.0,0.0,0.0,0.0,0.0,0.0,0.0,0.0,0.0,0.0,0.0,0.0,0.0,0.0,0.0,0.0,0.0,0.0,0.0,0.0,0.0,0.0,0.0,0.0,0.0,0.0,0.0,0.0,0.0,0.0,0.0,0.0,0.0,0.0,0.0,0.0,0.0,0.0,0.0,0.0,0.0,0.0,0.0,0.0,0.0,0.0,0.0,0.0,0.0,0.0,0.0,0.0,0.0,0.0,0.0,0.0,0.0,0.0,0.0,0.0,0.0,0.0,0.0,0.0,0.0,0.0,0.0,0.0,0.0,0.0,0.0,0.0,0.0,0.0,0.0,0.0,0.0,0.0,0.0,0.0,0.0,0.0,0.0,0.0,0.0,0.0,0.0,0.0,0.0,0.0,0.0,0.0,0.0,0.0,0.0,0.0,0.0,0.0,0.0,0.0,0.0,0.0,0.0,0.0,0.0,0.0,0.0,0.0,0.0,0.0,0.0,0.0,0.0,0.0,0.0,0.0,0.0,0.0,0.0,0.0,0.0,0.0,0.0,0.0,0.0,0.0,0.0,0.0,0.0,0.0,0.0,0.0,0.0,0.0,0.0,0.0,0.0,0.0,0.0,0.0,0.0,0.0,0.0,0.0,0.0,0.0,0.0,0.0,0.0,0.0,0.0,0.0,0.0,0.0,0.0,0.0,0.0,0.0,0.0,0.0,0.0,0.0,0.0,0.0,0.0,-0.6124,0.0,0.0,0.0,0.0,0.0,0.0,0.0,0.0,0.0,0.0,0.0,0.0,0.0,0.0,0.0,0.0,0.0,0.0,0.0,0.0,0.0,0.0,0.0,0.0,0.0,0.0,0.0,0.0,0.0,0.0,0.0,0.0,0.0,0.0,0.0,0.0,0.0,0.0,0.0,0.0,0.0,0.0,0.0,0.0,0.0,0.0,0.0,0.0,0.0,0.0,0.0,0.0,0.0,0.0,0.0,0.0,0.0,0.0,0.0,0.0,0.0,0.0,0.0,0.0,0.0,0.0,0.0,0.0,0.0,0.0,0.0,0.0,0.0,0.0,0.0,0.0,0.0,0.0,0.0,0.0,0.0,0.0,0.0,0.0,0.0,0.0,0.0,0.0,0.0,0.0,0.0,0.0,0.0,0.0,0.0,0.0,0.0,0.0,0.0,0.0,0.0,0.0,0.0,0.0,0.0,0.0,0.0,0.0,0.0,0.0,-0.6604,-0.6672,-0.6574,-0.6427,-0.6231,0.0,0.0,0.0,0.0,0.0,0.0,0.0,0.0,0.0,0.0,0.0,0.0,0.0,0.0,0.0,0.0,0.0,0.0,0.0,0.0,0.0,0.0,0.0,0.0,0.0,0.0,0.0,0.0,0.0,0.0,0.0,0.0,0.0,0.0,0.0,0.0,0.0,0.0,0.0,0.0,0.0,0.0,0.0,0.0,0.0,0.0,0.0,0.0,0.0,0.0,0.0,0.0,0.0,0.0,0.0,0.0,0.0,0.0,0.0,0.0,0.0,0.0,0.0,0.0,0.0,0.0,0.0,0.0,0.0,0.0,0.0,0.0,0.0,0.0,0.0,0.0,0.0,0.0,0.0,0.0,0.0,0.0,0.0,0.0,0.0,0.0,0.0,0.0,0.0,0.0,0.0,0.0,0.0,0.0,0.0,0.0,0.0,0.0,0.0,0.0,0.0,0.0,0.0,0.0,0.0,0.0,0.0,0.0,0.0,0.0,0.0,0.0,-0.6539,-0.6445,-0.6409,0.0,0.0,0.0,0.0,0.0,0.0,0.0,0.0,0.0,0.0,0.0,0.0,0.0,0.0,0.0,0.0,0.0,0.0,0.0,0.0,0.0,0.0,0.0,0.0,0.0,0.0,0.0,0.0,0.0,0.0,0.0,0.0,0.0,0.0,0.0,0.0,0.0,0.0,0.0,0.0,0.0,0.0,0.0,0.0,0.0,0.0,0.0,0.0,0.0,0.0,0.0,0.0,0.0,0.0,0.0,0.0,0.0,0.0,0.0,0.0,0.0,0.0,0.0,0.0,0.0,0.0,0.0,0.0,0.0,0.0,0.0,0.0,0.0,0.0,0.0,0.0,0.0,0.0,0.0,0.0,0.0,0.0,0.0,0.0,0.0,0.0,0.0,0.0,0.0,0.0,0.0,0.0,0.0,0.0,0.0,0.0,0.0,0.0,0.0,0.0,0.0,0.0,0.0,0.0,0.0,0.0,0.0,0.0,0.0,0.0,-0.674,-0.721,-0.7261,0.0,-0.6491,0.0,0.0,0.0,0.0,0.0,0.0,0.0,0.0,0.0,0.0,0.0,0.0,0.0,0.0,0.0,0.0,0.0,0.0,0.0,0.0,0.0,0.0,0.0,0.0,0.0,0.0,0.0,0.0,0.0,0.0,0.0,0.0,0.0,0.0,0.0,0.0,0.0,0.0,0.0,0.0,0.0,0.0,0.0,0.0,0.0,0.0,0.0,0.0,0.0,0.0,0.0,0.0,0.0,0.0,0.0,0.0,0.0,0.0,0.0,0.0,0.0,0.0,0.0,0.0,0.0,0.0,0.0,0.0,0.0,0.0,0.0,0.0,0.0,0.0,0.0,0.0,0.0,0.0,0.0,0.0,0.0,0.0,0.0,0.0,0.0,0.0,0.0,0.0,0.0,0.0,0.0,0.0,0.0,0.0,0.0,0.0,0.0,0.0,0.0,0.0,0.0,0.0,0.0,0.0,0.0,0.0,0.0,0.0,0.0,0.0,-0.7074,-0.7289,-0.6941,-0.6632,0.0,0.0,0.0,0.0,0.0,0.0,0.0,0.0,0.0,0.0,0.0,0.0,0.0,0.0,0.0,0.0,0.0,0.0,0.0,0.0,0.0,0.0,0.0,0.0,0.0,0.0,0.0,0.0,0.0,0.0,0.0,0.0,0.0,0.0,0.0,0.0,0.0,0.0,0.0,0.0,0.0,0.0,0.0,0.0,0.0,0.0,0.0,0.0,0.0,0.0,0.0,0.0,0.0,0.0,0.0,0.0,0.0,0.0,0.0,0.0,0.0,0.0,0.0,0.0,0.0,0.0,0.0,0.0,0.0,0.0,0.0,0.0,0.0,0.0,0.0,0.0,0.0,0.0,0.0,0.0,0.0,0.0,0.0,0.0,0.0,0.0,0.0,0.0,0.0,0.0,0.0,0.0,0.0,0.0,0.0,0.0,0.0,0.0,0.0,0.0,0.0,0.0,0.0,0.0,0.0,0.0,0.0,0.0,0.0,0.0,-0.7166,-0.7353,-0.7433,-0.7001,-0.6544,-0.6103,0.0,0.0,0.0,0.0,0.0,0.0,0.0,0.0,0.0,0.0,0.0,0.0,0.0,0.0,0.0,0.0,0.0,0.0,0.0,0.0,0.0,0.0,0.0,0.0,0.0,0.0,0.0,0.0,0.0,0.0,0.0,0.0,0.0,0.0,0.0,0.0,0.0,0.0,0.0,0.0,0.0,0.0,0.0,0.0,0.0,0.0,0.0,0.0,0.0,0.0,0.0,0.0,0.0,0.0,0.0,0.0,0.0,0.0,0.0,0.0,0.0,0.0,0.0,0.0,0.0,0.0,0.0,0.0,0.0,0.0,0.0,0.0,0.0,0.0,0.0,0.0,0.0,0.0,0.0,0.0,0.0,0.0,0.0,0.0,0.0,0.0,0.0,0.0,0.0,0.0,0.0,0.0,0.0,0.0,0.0,0.0,0.0,0.0,0.0,0.0,0.0,0.0,0.0,0.0,0.0,0.0,0.0,0.0,-0.7753,-0.7472,-0.7484,-0.7862,-0.7839,-0.7119,0.0,0.0,0.0,0.0,0.0,0.0,0.0,0.0,0.0,0.0,0.0,0.0,0.0,0.0,0.0,0.0,0.0,0.0,0.0,0.0,0.0,0.0,0.0,0.0,0.0,0.0,0.0,0.0,0.0,0.0,0.0,0.0,0.0,0.0,0.0,0.0,0.0,0.0,0.0,0.0,0.0,0.0,0.0,0.0,0.0,0.0,0.0,0.0,0.0,0.0,0.0,0.0,0.0,0.0,0.0,0.0,0.0,0.0,0.0,0.0,0.0,0.0,0.0,0.0,0.0,0.0,0.0,0.0,0.0,0.0,0.0,0.0,0.0,0.0,0.0,0.0,0.0,0.0,0.0,0.0,0.0,0.0,0.0,0.0,0.0,0.0,0.0,0.0,0.0,0.0,0.0,0.0,0.0,0.0,0.0,0.0,0.0,0.0,0.0,0.0,0.0,0.0,0.0,0.0,0.0,0.0,0.0,0.0,0.0,-0.6883,-0.7064,-0.7569,-0.8332,-0.7107,-0.6247,0.0,0.0,0.0,0.0,0.0,0.0,0.0,0.0,0.0,0.0,0.0,0.0,0.0,0.0,0.0,0.0,0.0,0.0,0.0,0.0,0.0,0.0,0.0,0.0,0.0,0.0,0.0,0.0,0.0,0.0,0.0,0.0,0.0,0.0,0.0,0.0,0.0,0.0,0.0,0.0,0.0,0.0,0.0,0.0,0.0,0.0,0.0,0.0,0.0,0.0,0.0,0.0,0.0,0.0,0.0,0.0,0.0,0.0,0.0,0.0,0.0,0.0,0.0,0.0,0.0,0.0,0.0,0.0,0.0,0.0,0.0,0.0,0.0,0.0,0.0,0.0,0.0,0.0,0.0,0.0,0.0,0.0,0.0,0.0,0.0,0.0,0.0,0.0,0.0,0.0,0.0,0.0,0.0,0.0,0.0,0.0,0.0,0.0,0.0,0.0,0.0,0.0,0.0,0.0,0.0,0.0,0.0,0.0,0.0,-0.6806,0.0,-0.7876,-0.8357,-0.6859,-0.596,0.0,0.0,0.0,0.0,0.0,0.0,0.0,0.0,0.0,0.0,0.0,0.0,0.0,0.0,0.0,0.0,0.0,0.0,0.0,0.0,0.0,0.0,0.0,0.0,0.0,0.0,0.0,0.0,0.0,0.0,0.0,0.0,0.0,0.0,0.0,0.0,0.0,0.0,0.0,0.0,0.0,0.0,0.0,0.0,0.0,0.0,0.0,0.0,0.0,0.0,0.0,0.0,0.0,0.0,0.0,0.0,0.0,0.0,0.0,0.0,0.0,0.0,0.0,0.0,0.0,0.0,0.0,0.0,0.0,0.0,0.0,0.0,0.0,0.0,0.0,0.0,0.0,0.0,0.0,0.0,0.0,0.0,0.0,0.0,0.0,0.0,0.0,0.0,0.0,0.0,0.0,0.0,0.0,0.0,0.0,0.0,0.0,0.0,0.0,0.0,0.0,0.0,0.0,0.0,0.0,0.0,0.0,0.0,-0.684,-0.7817,-0.8369,-0.8405,-0.7936,-0.7349,-0.6361,0.0,0.0,0.0,0.0,0.0,0.0,0.0,0.0,0.0,0.0,0.0,0.0,0.0,0.0,0.0,0.0,0.0,0.0,0.0,0.0,0.0,0.0,0.0,0.0,0.0,0.0,0.0,0.0,0.0,0.0,0.0,0.0,0.0,0.0,0.0,0.0,0.0,0.0,0.0,0.0,0.0,0.0,0.0,0.0,0.0,0.0,0.0,0.0,0.0,0.0,0.0,0.0,0.0,0.0,0.0,0.0,0.0,0.0,0.0,0.0,0.0,0.0,0.0,0.0,0.0,0.0,0.0,0.0,0.0,0.0,0.0,0.0,0.0,0.0,0.0,0.0,0.0,0.0,0.0,0.0,0.0,0.0,0.0,0.0,0.0,0.0,0.0,0.0,0.0,0.0,0.0,0.0,0.0,0.0,0.0,0.0,0.0,0.0,0.0,0.0,0.0,0.0,0.0,0.0,0.0,0.0,0.0,0.0,0.0,-0.7371,-0.7919,-0.8476,-0.8922,-0.7273,-0.6455,0.0,0.0,0.0,0.0,0.0,0.0,0.0,0.0,0.0,0.0,0.0,0.0,0.0,0.0,0.0,0.0,0.0,0.0,0.0,0.0,0.0,0.0,0.0,0.0,0.0,0.0,0.0,0.0,0.0,0.0,0.0,0.0,0.0,0.0,0.0,0.0,0.0,0.0,0.0,0.0,0.0,0.0,0.0,0.0,0.0,0.0,0.0,0.0,0.0,0.0,0.0,0.0,0.0,0.0,0.0,0.0,0.0,0.0,0.0,0.0,0.0,0.0,0.0,0.0,0.0,0.0,0.0,0.0,0.0,0.0,0.0,0.0,0.0,0.0,0.0,0.0,0.0,0.0,0.0,0.0,0.0,0.0,0.0,0.0,0.0,0.0,0.0,0.0,0.0,0.0,0.0,0.0,0.0,0.0,0.0,0.0,0.0,0.0,0.0,0.0,0.0,0.0,0.0,0.0,0.0,0.0,0.0,0.0,0.0,-0.84,-0.8753,-0.9144,-0.9579,-0.7684,-0.6825,-0.7129,0.0,0.0,0.0,0.0,0.0,0.0,0.0,0.0,0.0,0.0,0.0,0.0,0.0,0.0,0.0,0.0,0.0,0.0,0.0,0.0,0.0,0.0,0.0,0.0,0.0,0.0,0.0,0.0,0.0,0.0,0.0,0.0,0.0,0.0,0.0,0.0,0.0,0.0,0.0,0.0,0.0,0.0,0.0,0.0,0.0,0.0,0.0,0.0,0.0,0.0,0.0,0.0,0.0,0.0,0.0,0.0,0.0,0.0,0.0,0.0,0.0,0.0,0.0,0.0,0.0,0.0,0.0,0.0,0.0,0.0,0.0,0.0,0.0,0.0,0.0,0.0,0.0,0.0,0.0,0.0,0.0,0.0,0.0,0.0,0.0,0.0,0.0,0.0,0.0,0.0,0.0,0.0,0.0,0.0,0.0,0.0,0.0,0.0,0.0,0.0,0.0,0.0,0.0,0.0,0.0,0.0,0.0,0.0,-1.0581,-1.0636,-1.0409,-0.9918,-0.8526,-0.744,0.0,0.0,0.0,0.0,0.0,0.0,0.0,0.0,0.0,0.0,0.0,0.0,0.0,0.0,0.0,0.0,0.0,0.0,0.0,0.0,0.0,0.0,0.0,0.0,0.0,0.0,0.0,0.0,0.0,0.0,0.0,0.0,0.0,0.0,0.0,0.0,0.0,0.0,0.0,0.0,0.0,0.0,0.0,0.0,0.0,0.0,0.0,0.0,0.0,0.0,0.0,0.0,0.0,0.0,0.0,0.0,0.0,0.0,0.0,0.0,0.0,0.0,0.0,0.0,0.0,0.0,0.0,0.0,0.0,0.0,0.0,0.0,0.0,0.0,0.0,0.0,0.0,0.0,0.0,0.0,0.0,0.0,0.0,0.0,0.0,0.0,0.0,0.0,0.0,0.0,0.0,0.0,0.0,0.0,0.0,0.0,0.0,0.0,0.0,0.0,0.0,0.0,0.0,0.0,0.0,0.0,0.0,0.0,0.0,-1.0648,-1.1858,-1.2399,-1.2086,-0.9327,-0.8002,0.0,0.0,0.0,0.0,0.0,0.0,0.0,0.0,0.0,0.0,0.0,0.0,0.0,0.0,0.0,0.0,0.0,0.0,0.0,0.0,0.0,0.0,0.0,0.0,0.0,0.0,0.0,0.0,0.0,0.0,0.0,0.0,0.0,0.0,0.0,0.0,0.0,0.0,0.0,0.0,0.0,0.0,0.0,0.0,0.0,0.0,0.0,0.0,0.0,0.0,0.0,0.0,0.0,0.0,0.0,0.0,0.0,0.0,0.0,0.0,0.0,0.0,0.0,0.0,0.0,0.0,0.0,0.0,0.0,0.0,0.0,0.0,0.0,0.0,0.0,0.0,0.0,0.0,0.0,0.0,0.0,0.0,0.0,0.0,0.0,0.0,0.0,0.0,0.0,0.0,0.0,0.0,0.0,0.0,0.0,0.0,0.0,0.0,0.0,0.0,0.0,0.0,0.0,0.0,0.0,0.0,0.0,0.0,-0.9914,-1.1527,-1.2526,-1.3193,-1.3526,-1.1014,-0.942,0.0,0.0,0.0,0.0,0.0,0.0,0.0,0.0,0.0,0.0,0.0,0.0,0.0,0.0,0.0,0.0,0.0,0.0,0.0,0.0,0.0,0.0,0.0,0.0,0.0,0.0,0.0,0.0,0.0,0.0,0.0,0.0,0.0,0.0,0.0,0.0,0.0,0.0,0.0,0.0,0.0,0.0,0.0,0.0,0.0,0.0,0.0,0.0,0.0,0.0,0.0,0.0,0.0,0.0,0.0,0.0,0.0,0.0,0.0,0.0,0.0,0.0,0.0,0.0,0.0,0.0,0.0,0.0,0.0,0.0,0.0,0.0,0.0,0.0,0.0,0.0,0.0,0.0,0.0,0.0,0.0,0.0,0.0,0.0,0.0,0.0,0.0,0.0,0.0,0.0,0.0,0.0,0.0,0.0,0.0,0.0,0.0,0.0,0.0,0.0,0.0,0.0,0.0,0.0,0.0,0.0,0.0,0.0,-1.0684,-1.2571,-1.2853,-1.3406,-1.4228,-1.2793,-1.1006,0.0,0.0,0.0,0.0,0.0,0.0,0.0,0.0,0.0,0.0,0.0,0.0,0.0,0.0,0.0,0.0,0.0,0.0,0.0,0.0,0.0,0.0,0.0,0.0,0.0,0.0,0.0,0.0,0.0,0.0,0.0,0.0,0.0,0.0,0.0,0.0,0.0,0.0,0.0,0.0,0.0,0.0,0.0,0.0,0.0,0.0,0.0,0.0,0.0,0.0,0.0,0.0,0.0,0.0,0.0,0.0,0.0,0.0,0.0,0.0,0.0,0.0,0.0,0.0,0.0,0.0,0.0,0.0,0.0,0.0,0.0,0.0,0.0,0.0,0.0,0.0,0.0,0.0,0.0,0.0,0.0,0.0,0.0,0.0,0.0,0.0,0.0,0.0,0.0,0.0,0.0,0.0,0.0,0.0,0.0,0.0,0.0,0.0,0.0,0.0,0.0,0.0,0.0,0.0,0.0,0.0,0.0,0.0,-1.0843,-1.2056,-1.3457,-1.4255,-1.4274,-1.1921,-1.0198,0.0,0.0,0.0,0.0,0.0,0.0,0.0,0.0,0.0,0.0,0.0,0.0,0.0,0.0,0.0,0.0,0.0,0.0,0.0,0.0,0.0,0.0,0.0,0.0,0.0,0.0,0.0,0.0,0.0,0.0,0.0,0.0,0.0,0.0,0.0,0.0,0.0,0.0,0.0,0.0,0.0,0.0,0.0,0.0,0.0,0.0,0.0,0.0,-0.6148,0.0,0.0,0.0,0.0,0.0,0.0,0.0,0.0,0.0,0.0,0.0,0.0,0.0,0.0,0.0,0.0,0.0,0.0,0.0,0.0,0.0,0.0,0.0,0.0,0.0,0.0,0.0,0.0,0.0,0.0,0.0,0.0,0.0,0.0,0.0,0.0,0.0,0.0,0.0,0.0,0.0,0.0,0.0,0.0,0.0,0.0,0.0,0.0,0.0,0.0,0.0,0.0,0.0,0.0,0.0,0.0,0.0,0.0,0.0,-1.1224,-1.2522,-1.3705,-1.4205,-1.3936,-1.2151,-1.0607,0.0,0.0,0.0,0.0,0.0,0.0,0.0,0.0,0.0,0.0,0.0,0.0,0.0,0.0,0.0,0.0,0.0,0.0,0.0,0.0,0.0,0.0,0.0,0.0,0.0,0.0,0.0,0.0,0.0,0.0,0.0,0.0,0.0,0.0,0.0,0.0,0.0,0.0,0.0,0.0,0.0,0.0,0.0,0.0,0.0,0.0,0.0,0.0,0.0,0.0,0.0,0.0,0.0,0.0,0.0,0.0,0.0,0.0,0.0,0.0,0.0,0.0,0.0,0.0,0.0,0.0,0.0,0.0,0.0,0.0,0.0,0.0,0.0,0.0,0.0,0.0,0.0,0.0,0.0,0.0,0.0,0.0,0.0,0.0,0.0,0.0,0.0,0.0,0.0,0.0,0.0,0.0,0.0,0.0,0.0,0.0,0.0,0.0,0.0,0.0,0.0,0.0,0.0,0.0,0.0,0.0,0.0,-1.0359,-1.1654,-1.3289,-1.3822,-1.3939,-1.3718,-1.2819,-1.1464,-0.9556,0.0,0.0,0.0,0.0,0.0,0.0,0.0,0.0,0.0,0.0,0.0,0.0,0.0,0.0,0.0,0.0,0.0,0.0,0.0,0.0,0.0,0.0,0.0,0.0,0.0,0.0,0.0,0.0,0.0,0.0,0.0,0.0,0.0,0.0,0.0,0.0,0.0,0.0,-0.4944,-0.5883,0.0,0.0,0.0,0.0,0.0,0.0,0.0,0.0,-0.6425,0.0,0.0,0.0,0.0,0.0,0.0,0.0,0.0,0.0,0.0,0.0,0.0,0.0,0.0,0.0,0.0,0.0,0.0,0.0,0.0,0.0,0.0,0.0,0.0,0.0,0.0,0.0,0.0,0.0,0.0,0.0,0.0,0.0,0.0,0.0,0.0,0.0,0.0,0.0,0.0,0.0,0.0,0.0,0.0,0.0,0.0,0.0,0.0,0.0,0.0,0.0,0.0,0.0,0.0,0.0,0.0,-1.0336,-1.0766,-1.1843,-1.3576,-1.4076,-1.4314,-1.4235,-1.315,-1.17,-0.9901,0.0,0.0,0.0,0.0,0.0,0.0,0.0,0.0,0.0,0.0,0.0,0.0,0.0,0.0,0.0,0.0,0.0,0.0,0.0,0.0,0.0,0.0,0.0,0.0,0.0,0.0,0.0,0.0,0.0,0.0,0.0,0.0,0.0,0.0,0.0,0.0,0.0,0.0,0.0,-0.6717,-0.7146,0.0,0.0,0.0,0.0,0.0,0.0,0.0,0.0,-0.664,0.0,0.0,0.0,0.0,0.0,0.0,0.0,0.0,0.0,0.0,0.0,0.0,0.0,0.0,0.0,0.0,0.0,0.0,0.0,0.0,0.0,0.0,0.0,0.0,0.0,0.0,0.0,0.0,0.0,0.0,0.0,0.0,0.0,0.0,0.0,0.0,0.0,0.0,0.0,0.0,0.0,0.0,0.0,0.0,0.0,0.0,0.0,0.0,0.0,0.0,0.0,0.0,0.0,0.0,0.0,-1.0498,-1.1545,-1.2819,-1.4362,-1.4597,-1.4605,-1.4467,-1.2869,-1.1325,0.0,0.0,0.0,0.0,0.0,0.0,0.0,0.0,0.0,0.0,0.0,0.0,0.0,0.0,0.0,0.0,0.0,0.0,0.0,0.0,0.0,0.0,0.0,0.0,0.0,0.0,0.0,0.0,0.0,0.0,0.0,0.0,0.0,0.0,0.0,0.0,0.0,0.0,0.0,0.0,-0.7322,-0.7854,-0.8137,0.0,0.0,0.0,0.0,0.0,0.0,-0.7495,-0.7113,0.0,0.0,0.0,0.0,0.0,0.0,0.0,0.0,0.0,0.0,0.0,0.0,0.0,0.0,0.0,0.0,0.0,0.0,0.0,0.0,0.0,0.0,0.0,0.0,0.0,0.0,0.0,0.0,0.0,0.0,0.0,0.0,0.0,0.0,0.0,0.0,0.0,0.0,0.0,0.0,0.0,0.0,0.0,0.0,0.0,0.0,0.0,0.0,0.0,0.0,0.0,0.0,0.0,0.0,0.0,-1.0586,-1.2081,-1.3631,-1.5084,-1.5028,-1.4892,-1.4743,-1.2875,-1.1275,0.0,0.0,0.0,0.0,0.0,0.0,0.0,0.0,0.0,0.0,0.0,0.0,0.0,0.0,0.0,0.0,0.0,0.0,0.0,0.0,0.0,0.0,0.0,0.0,0.0,0.0,0.0,0.0,0.0,0.0,0.0,0.0,0.0,0.0,0.0,0.0,0.0,0.0,0.0,0.0,0.0,-0.8708,-0.915,-0.9246,0.0,0.0,0.0,0.0,-0.8851,-0.852,0.0,0.0,0.0,0.0,0.0,0.0,0.0,0.0,0.0,0.0,0.0,0.0,0.0,0.0,0.0,0.0,0.0,0.0,0.0,0.0,0.0,0.0,0.0,0.0,0.0,0.0,0.0,0.0,0.0,0.0,0.0,0.0,0.0,0.0,0.0,0.0,0.0,0.0,0.0,0.0,0.0,0.0,0.0,0.0,0.0,0.0,0.0,0.0,0.0,0.0,0.0,0.0,0.0,0.0,0.0,0.0,-1.0552,-1.1769,-1.3369,-1.5329,-1.5198,-1.5198,-1.5367,-1.4048,-1.2457,0.0,0.0,0.0,0.0,0.0,0.0,0.0,0.0,0.0,0.0,0.0,0.0,0.0,0.0,0.0,0.0,0.0,0.0,0.0,0.0,0.0,0.0,0.0,0.0,0.0,0.0,0.0,0.0,0.0,0.0,0.0,0.0,0.0,0.0,0.0,0.0,0.0,0.0,0.0,0.0,0.0,-0.9808,-0.9881,-0.9939,-0.9973,0.0,0.0,-1.0601,-1.0606,-1.0939,0.0,0.0,0.0,0.0,0.0,0.0,0.0,0.0,0.0,0.0,0.0,0.0,0.0,0.0,0.0,0.0,0.0,0.0,0.0,0.0,0.0,0.0,0.0,0.0,0.0,0.0,0.0,0.0,0.0,0.0,0.0,0.0,0.0,0.0,0.0,0.0,0.0,0.0,0.0,0.0,0.0,0.0,0.0,0.0,0.0,0.0,0.0,0.0,0.0,0.0,0.0,0.0,0.0,0.0,0.0,-0.9195,-1.0767,-1.2454,-1.4088,-1.5588,-1.5525,-1.5339,-1.5188,-1.34,-1.1751,0.0,0.0,0.0,0.0,0.0,0.0,0.0,0.0,0.0,0.0,0.0,0.0,0.0,0.0,0.0,0.0,0.0,0.0,0.0,0.0,0.0,0.0,0.0,0.0,0.0,0.0,0.0,0.0,0.0,0.0,0.0,0.0,0.0,0.0,0.0,0.0,0.0,0.0,0.0,0.0,0.0,0.0,-1.081,-1.1163,0.0,0.0,0.0,-1.1837,-1.181,0.0,0.0,0.0,0.0,0.0,0.0,0.0,0.0,0.0,0.0,0.0,0.0,0.0,0.0,0.0,0.0,0.0,0.0,0.0,0.0,0.0,0.0,0.0,0.0,0.0,0.0,0.0,0.0,0.0,0.0,0.0,0.0,0.0,0.0,0.0,0.0,0.0,0.0,0.0,0.0,0.0,0.0,0.0,0.0,0.0,0.0,0.0,0.0,0.0,0.0,0.0,0.0,0.0,0.0,0.0,0.0,0.0,-1.0935,-1.3068,-1.4696,-1.5756,-1.576,-1.5453,-1.4928,-1.3191,0.0,0.0,0.0,0.0,0.0,0.0,0.0,0.0,0.0,0.0,0.0,0.0,0.0,0.0,0.0,0.0,0.0,0.0,0.0,0.0,0.0,0.0,0.0,0.0,0.0,0.0,0.0,-0.3258,0.0,0.0,0.0,0.0,0.0,0.0,0.0,0.0,0.0,0.0,0.0,0.0,0.0,0.0,-1.1263,-1.1749,-1.2478,-1.3141,0.0,0.0,-1.3227,-1.3052,-1.2968,-1.2349,0.0,0.0,0.0,0.0,0.0,0.0,0.0,0.0,0.0,0.0,0.0,0.0,0.0,0.0,0.0,0.0,0.0,0.0,0.0,0.0,0.0,0.0,0.0,0.0,0.0,0.0,0.0,0.0,0.0,0.0,0.0,0.0,0.0,0.0,0.0,0.0,0.0,0.0,0.0,0.0,0.0,0.0,0.0,0.0,0.0,0.0,0.0,0.0,0.0,0.0,0.0,0.0,0.0,0.0,-0.9909,-1.1025,-1.3167,-1.4787,-1.5766,-1.5792,-1.554,-1.5004,-1.4418,-1.286,0.0,0.0,0.0,0.0,0.0,0.0,0.0,0.0,0.0,0.0,0.0,0.0,0.0,0.0,0.0,0.0,0.0,0.0,0.0,0.0,0.0,0.0,0.0,0.0,0.0,0.0,0.0,0.0,0.0,0.0,0.0,0.0,0.0,0.0,0.0,0.0,0.0,0.0,0.0,0.0,0.0,-1.2055,-1.2622,-1.3698,-1.4342,0.0,-1.4685,-1.5057,-1.4546,-1.5258,-1.4832,-1.1743,0.0,0.0,0.0,0.0,0.0,0.0,0.0,0.0,0.0,0.0,0.0,0.0,0.0,0.0,0.0,0.0,0.0,0.0,0.0,0.0,0.0,0.0,0.0,0.0,0.0,0.0,0.0,0.0,-0.5366,0.0,0.0,0.0,0.0,0.0,0.0,0.0,0.0,0.0,0.0,0.0,0.0,0.0,0.0,0.0,0.0,0.0,0.0,0.0,0.0,0.0,0.0,0.0,0.0,-1.0044,-1.1133,-1.3344,-1.4984,-1.5986,-1.6057,-1.5791,-1.5255,-1.4352,-1.2908,0.0,0.0,0.0,0.0,0.0,0.0,0.0,0.0,0.0,0.0,0.0,0.0,0.0,0.0,0.0,0.0,0.0,0.0,0.0,0.0,0.0,0.0,0.0,0.0,0.0,0.0,0.0,0.0,-0.5161,-0.5556,-0.5899,0.0,0.0,0.0,0.0,0.0,0.0,0.0,0.0,0.0,0.0,-1.3319,-1.4154,-1.4745,0.0,0.0,-1.5397,-1.5438,-1.5561,-1.5364,-1.4664,-1.3108,-1.2308,0.0,0.0,0.0,0.0,0.0,0.0,0.0,0.0,0.0,0.0,0.0,0.0,0.0,0.0,0.0,0.0,0.0,0.0,0.0,0.0,0.0,0.0,0.0,0.0,0.0,0.0,0.0,-0.5574,0.0,0.0,0.0,0.0,0.0,0.0,0.0,0.0,0.0,0.0,0.0,0.0,0.0,0.0,0.0,0.0,0.0,0.0,0.0,0.0,0.0,0.0,0.0,0.0,-1.0168,-1.1241,-1.3453,-1.5106,-1.6163,-1.62,-1.5942,-1.5389,-1.4413,-1.3136,0.0,0.0,0.0,0.0,0.0,0.0,0.0,0.0,0.0,0.0,0.0,0.0,0.0,0.0,0.0,0.0,0.0,0.0,0.0,0.0,0.0,0.0,0.0,0.0,0.0,0.0,0.0,0.0,-0.5624,-0.5895,-0.6322,0.0,0.0,0.0,0.0,0.0,0.0,0.0,0.0,0.0,0.0,-1.4414,-1.543,-1.567,-1.5863,-1.6312,-1.5996,-1.5863,-1.6235,-1.5653,-1.4923,-1.4199,0.0,0.0,0.0,0.0,0.0,0.0,0.0,0.0,0.0,0.0,0.0,0.0,0.0,0.0,0.0,0.0,0.0,0.0,0.0,0.0,0.0,0.0,0.0,0.0,0.0,0.0,0.0,-0.6305,0.0,0.0,-0.6197,0.0,0.0,0.0,0.0,0.0,0.0,0.0,0.0,0.0,0.0,0.0,0.0,0.0,0.0,0.0,0.0,0.0,0.0,0.0,0.0,0.0,0.0,-1.0249,-1.1302,-1.3496,-1.5126,-1.6185,-1.62,-1.5954,-1.5446,-1.488,-1.3828,-1.2197,0.0,0.0,0.0,0.0,0.0,0.0,0.0,0.0,0.0,0.0,0.0,0.0,0.0,0.0,0.0,0.0,0.0,0.0,0.0,0.0,0.0,0.0,0.0,0.0,0.0,0.0,-0.5615,-0.6116,-0.6465,0.0,0.0,0.0,0.0,0.0,0.0,0.0,0.0,0.0,-1.3626,-1.4425,-1.5207,-1.63,-1.6454,-1.6463,-1.65,-1.6488,-1.6475,-1.6488,-1.6463,-1.6078,0.0,0.0,0.0,0.0,0.0,0.0,0.0,0.0,0.0,0.0,0.0,0.0,0.0,0.0,0.0,0.0,0.0,0.0,0.0,0.0,0.0,0.0,0.0,0.0,0.0,0.0,0.0,-0.896,-0.8605,0.0,0.0,0.0,0.0,0.0,0.0,0.0,0.0,0.0,0.0,0.0,-1.2327,-1.2981,0.0,0.0,0.0,0.0,0.0,0.0,0.0,0.0,0.0,0.0,0.0,0.0,-1.0969,-1.2149,-1.4312,-1.5806,-1.65,-1.6448,-1.6305,-1.614,-1.5554,-1.4305,-1.2263,0.0,0.0,0.0,0.0,0.0,0.0,0.0,0.0,0.0,0.0,0.0,0.0,0.0,0.0,0.0,0.0,0.0,0.0,0.0,0.0,0.0,0.0,0.0,0.0,0.0,-0.6127,0.0,0.0,0.0,0.0,0.0,0.0,0.0,0.0,0.0,0.0,-1.1977,-1.2965,-1.4531,-1.5241,-1.5883,-1.6655,-1.6769,-1.6757,0.0,0.0,0.0,0.0,0.0,0.0,0.0,0.0,0.0,0.0,0.0,0.0,0.0,0.0,-1.2808,-0.9928,-0.9152,-0.9005,-0.9186,0.0,0.0,0.0,0.0,0.0,0.0,0.0,0.0,0.0,0.0,0.0,0.0,0.0,0.0,-1.1064,-1.086,-1.0247,0.0,0.0,0.0,0.0,0.0,0.0,0.0,0.0,-1.3424,-1.4214,-1.4214,-1.5057,-1.4902,-1.3895,-1.4049,-1.273,0.0,0.0,0.0,0.0,0.0,0.0,0.0,0.0,-1.1725,-1.2882,-1.4866,-1.6209,-1.6723,-1.6671,-1.6641,-1.6629,-1.6065,-1.4758,-1.268,-1.136,-1.0088,0.0,0.0,0.0,0.0,0.0,0.0,0.0,0.0,0.0,0.0,0.0,0.0,0.0,0.0,0.0,0.0,0.0,0.0,0.0,0.0,0.0,0.0,0.0,-0.6439,0.0,0.0,0.0,0.0,0.0,0.0,0.0,0.0,0.0,-1.258,-1.3395,-1.4459,-1.5816,-1.6176,-1.6602,-1.7384,0.0,0.0,0.0,0.0,0.0,0.0,0.0,-1.685,-1.6888,-1.6867,-1.6761,-1.6486,-1.6587,-1.6409,-1.5553,0.0,0.0,-1.2191,-1.1402,-1.1234,-1.1314,-1.1671,-1.1881,-1.1675,-1.2298,-1.2823,0.0,0.0,0.0,0.0,-1.2396,0.0,0.0,0.0,-1.2593,-1.2739,0.0,-1.231,0.0,0.0,0.0,0.0,-1.117,-1.3297,0.0,0.0,-1.6396,-1.7132,-1.6204,-1.7205,-1.7222,-1.6345,-1.6752,-1.5892,-1.3804,-1.2073,-1.0763,0.0,0.0,0.0,0.0,0.0,-1.2429,-1.3574,-1.5216,-1.6319,-1.6884,-1.691,-1.691,-1.6884,-1.6299,-1.5216,-1.3561,-1.2887,-1.1761,-1.0054,-0.8373,0.0,0.0,0.0,0.0,0.0,0.0,0.0,0.0,0.0,0.0,0.0,0.0,0.0,0.0,0.0,0.0,0.0,0.0,0.0,0.0,-0.6533,0.0,0.0,0.0,0.0,0.0,0.0,0.0,0.0,0.0,-1.4228,-1.3705,-1.4595,-1.587,-1.7503,0.0,0.0,0.0,0.0,-1.7939,-1.8498,-1.8611,-1.8598,-1.8598,-1.8575,-1.8575,-1.8585,0.0,0.0,-1.7339,-1.723,-1.6988,-1.6049,-1.5984,-1.5972,-1.5906,-1.5015,-1.4495,-1.468,-1.4339,-1.4201,-1.4324,-1.4704,-1.5226,-1.8072,0.0,0.0,0.0,0.0,-1.5716,-1.631,-1.7483,-1.7012,-1.6472,-1.5806,-1.5148,0.0,0.0,0.0,0.0,0.0,0.0,-1.6124,-1.6675,-1.7676,-1.821,-1.8368,-1.8496,-1.8403,-1.8135,-1.7913,-1.7436,-1.6812,-1.5644,-1.3398,-1.0212,0.0,0.0,0.0,0.0,-1.4154,-1.4883,-1.6079,-1.678,-1.6968,-1.6931,-1.691,-1.691,-1.6332,-1.5774,-1.5267,-1.4359,-1.3258,-1.1951,-1.0606,0.0,0.0,0.0,0.0,0.0,0.0,0.0,0.0,0.0,0.0,0.0,0.0,0.0,0.0,0.0,0.0,0.0,0.0,0.0,-0.7103,-0.7194,-0.7711,0.0,0.0,0.0,0.0,0.0,0.0,0.0,0.0,0.0,-1.6537,-1.6899,-1.7471,0.0,0.0,-1.8419,-1.8767,-1.8676,-1.8601,-1.8793,-1.8819,0.0,-1.8819,-1.8763,-1.8753,-1.8796,-1.917,-1.9281,-1.8821,-1.8754,-1.8482,-1.7574,-1.7452,-1.7462,-1.739,-1.6391,-1.5598,-1.5538,-1.5473,-1.5393,-1.5459,-1.5625,-1.5774,-2.1902,-1.9893,-1.8865,-1.8831,-1.9406,-1.9106,-1.9421,-2.0191,-1.9803,-1.9199,-1.8515,-1.7826,-1.693,-1.5865,-1.5319,0.0,0.0,0.0,-1.8056,-1.8643,-1.9019,-1.9289,-1.945,-1.955,-1.9442,-1.9193,-1.8884,-1.8738,-1.8724,-1.8175,-1.6217,-1.3037,0.0,-1.301,-1.2625,-1.4235,-1.532,-1.5795,-1.664,-1.7073,-1.7086,-1.7044,-1.7023,-1.701,-1.6661,-1.6336,-1.6077,-1.5466,-1.4462,-1.308,-1.2111,-1.052,0.0,0.0,0.0,0.0,0.0,0.0,0.0,0.0,0.0,0.0,0.0,-0.5397,-0.4232,0.0,0.0,0.0,-0.7041,-0.8081,-0.8455,-0.8939,0.0,0.0,0.0,0.0,0.0,0.0,0.0,-1.5718,-1.6699,-1.7618,-1.8533,-1.8858,-1.9063,-1.9214,-1.9054,-1.9081,-1.9562,0.0,-1.942,-1.9865,-1.9943,-1.9997,-2.0257,-2.0247,-2.0157,-1.9945,-1.9863,-1.9748,-1.9477,-1.9263,-1.8919,-1.8302,-1.8084,-1.8084,-1.8084,-1.7368,-1.6725,-1.662,-1.6631,-1.6579,-1.6462,-1.6526,-1.6605,-2.4676,-2.4537,-2.3029,-2.2338,-2.2278,-2.2254,-2.1955,-2.1533,-2.1319,-2.1185,-2.0992,-2.0297,-1.9947,-1.9866,-1.9347,0.0,-1.9164,-1.9693,-1.9952,-1.9988,-2.0493,-2.0402,-1.9925,-2.0397,-2.037,-1.9817,-1.9785,-1.9758,-1.9758,-1.9704,-1.8903,-1.7333,-1.6236,-1.5475,-1.506,-1.5634,-1.614,-1.6513,-1.7012,-1.7227,-1.722,-1.722,-1.7206,-1.7199,-1.7212,-1.6883,-1.6262,-1.621,-1.5408,-1.3698,-1.3084,-1.2067,-1.0457,0.0,0.0,0.0,0.0,0.0,0.0,0.0,0.0,0.0,0.0,0.0,0.0,0.0,0.0,0.0,-0.9256,0.0,-1.0302,-1.1344,0.0,0.0,0.0,-1.3546,-1.4805,-1.5866,-1.6948,-1.81,0.0,0.0,-1.9865,-2.0465,-2.0646,-2.0122,-1.9549,-1.9575,-2.066,-2.0409,-2.0437,-2.1315,-2.1538,-2.1773,-2.2086,-2.2218,-2.2022,-2.1511,-2.0759,-2.0064,-1.9658,-1.9272,-1.8806,-1.8389,-1.8237,-1.8272,-1.8249,-1.8244,-1.8155,-1.7907,-1.7806,-1.7712,-1.7512,-1.7684,-1.7851,-2.6252,-2.6223,-2.5816,-2.4948,-2.378,-2.3667,-2.3533,-2.3417,-2.3368,-2.3052,-2.2552,-2.2379,-2.2044,-2.1588,-2.1706,-2.1882,-2.2085,-2.2011,-2.2104,-2.2257,-2.1748,-2.1446,-2.1285,-2.1233,-2.1138,-2.0975,-2.0588,-2.0393,-2.0366,-2.01,-1.9726,-1.932,-1.9231,-1.8068,-1.5951,-1.688,-1.745,-1.7558,-1.7659,-1.7611,-1.7434,-1.7434,-1.7365,-1.7199,-1.7212,-1.6917,-1.6382,-1.6369,-1.5723,-1.4402,-1.3829,-1.3363,-1.292,-1.0353,0.0,0.0,0.0,0.0,0.0,0.0,0.0,0.0,0.0,-0.887,-0.6642,0.0,-0.9261,0.0,-0.9982,-1.2595,-1.2142,-1.2797,0.0,0.0,-1.5698,-1.6523,-1.7739,-1.8118,-1.8584,-1.9316,-1.9928,-2.0491,-2.1041,-2.1616,-2.2009,-2.2074,-2.198,-2.181,-2.1629,-2.2124,-2.2268,-2.1891,-2.2194,-2.2472,-2.2454,-2.2414,-2.2362,-2.2205,-2.1619,-2.1081,-2.0677,-2.0246,-1.9833,-1.9396,-1.9321,-1.9333,-1.9298,-1.9321,-1.9292,-1.9211,-1.8914,-1.8737,-1.9027,-1.9164,-1.9205,-2.6794,-2.6794,-2.6712,-2.6121,-2.5269,-2.5206,-2.4946,-2.4603,-2.4577,-2.4185,-2.3558,-2.3558,-2.3361,-2.308,-2.3255,-2.3409,-2.3519,-2.337,-2.3395,-2.3505,-2.3059,-2.2665,-2.2376,-2.2232,-2.2021,-2.1769,-2.1462,-2.131,-2.1305,-2.1079,-2.0854,-2.0589,-2.0735,-1.9866,-1.8112,-1.8556,-1.8672,-1.8317,-1.8024,-1.7828,-1.7672,-1.7672,-1.757,-1.7331,-1.7447,-1.7155,-1.6421,-1.6474,-1.5928,-1.4681,-1.4297,-1.4036,-1.3778,-1.1705,-1.0044,0.0,0.0,0.0,0.0,0.0,0.0,0.0,0.0,0.0,0.0,0.0,-1.1481,-0.9071,-1.3175,-1.5588,-1.4754,-1.5452,-1.6381,-1.7292,-1.7696,-1.8369,-1.9564,-1.9682,-2.0033,-2.087,-2.125,-2.1603,-2.2036,-2.2603,-2.3095,-2.3353,-2.3744,-2.3636,-2.2724,-2.2856,-2.3003,-2.2844,-2.3125,-2.3433,-2.3509,-2.3227,-2.3,-2.2892,-2.2244,-2.1483,-2.1087,-2.066,-2.021,-1.9807,-1.973,-1.973,-1.973,-1.973,-1.9746,-1.9918,-1.978,-1.9631,-1.9707,-1.973,-1.973,-2.7053,-2.7026,-2.6864,-2.6782,-2.6782,-2.6782,-2.6234,-2.5329,-2.5343,-2.498,-2.4382,-2.4357,-2.4368,-2.4382,-2.4368,-2.4357,-2.4357,-2.4272,-2.423,-2.4205,-2.412,-2.3783,-2.3224,-2.321,-2.2925,-2.2334,-2.232,-2.2292,-2.2194,-2.2194,-2.1926,-2.142,-2.1392,-2.1153,-2.0653,-2.04,-1.9816,-1.8883,-1.8351,-1.8044,-1.7942,-1.7942,-1.7828,-1.7591,-1.7747,-1.7357,-1.6389,-1.6539,-1.6029,-1.4707,-1.4663,-1.448,-1.3961,-1.2857,-1.2184,0.0,-1.1051,0.0,0.0,0.0,0.0,0.0,0.0,0.0,0.0,-1.2971,-1.3323,-1.4003,-1.7157,-1.864,-1.7453,-1.8396,-1.912,-1.9133,-1.9264,-1.9773,-2.0779,-2.0947,-2.1353,-2.2351,-2.2508,-2.2655,-2.2924,-2.3444,-2.3929,-2.4273,-2.4805,-2.4833,-2.3903,-2.3472,-2.3608,-2.4191,-2.4218,-2.4326,-2.4691,-2.428,-2.3846,-2.3737,-2.2836,-2.1794,-2.146,-2.0914,-2.0447,-2.0097,-2.0012,-1.9959,-1.9913,-1.9936,-2.0074,-2.0423,-2.0481,-2.0354,-2.0056,-2.0005,-1.9884,-2.8442,-2.8318,-2.8275,-2.8275,-2.8275,-2.8275,-2.7459,-2.6074,-2.6074,-2.6003,-2.5877,-2.5756,-2.5783,-2.5877,-2.5771,-2.5717,-2.5689,-2.522,-2.4916,-2.481,-2.4343,-2.4047,-2.3909,-2.3909,-2.3572,-2.2957,-2.2929,-2.2686,-2.2208,-2.2194,-2.2151,-2.2025,-2.2025,-2.1969,-2.187,0.0,0.0,0.0,-1.9175,-1.8808,-1.819,-1.8143,-1.8043,-1.7808,-1.7652,0.0,-1.6,-1.6263,-1.5884,-1.4707,-1.5055,0.0,0.0,0.0,0.0,0.0,0.0,0.0,0.0,0.0,0.0,0.0,-1.4289,-1.4224,-1.3622,-1.4415,-1.5416,-1.6453,-1.8881,-1.9876,-1.8692,-1.963,-2.0371,-2.0373,-2.1172,-2.1851,-2.206,-2.226,-2.2512,-2.2698,-2.3163,-2.3565,-2.3852,-2.4158,-2.4576,-2.5094,-2.5147,-2.5204,-2.5367,-2.5229,-2.5217,-2.5135,-2.4914,-2.487,-2.4991,-2.4868,-2.4704,-2.4605,-2.3783,-2.3014,-2.274,-2.1952,-2.1369,-2.1245,-2.1124,-2.0953,-2.1035,-2.0996,-2.0911,-2.1029,-2.104,-2.1029,-2.0937,-2.0914,-2.0925,-2.8779,-2.8694,-2.8694,-2.8694,0.0,-2.8694,-2.8248,-2.7433,-2.7077,-2.6666,-2.6313,-2.6233,-2.6192,-2.6206,-2.6111,-2.6056,-2.5988,-2.5745,-2.5563,-2.5442,-2.5186,-2.489,-2.4542,-2.4542,-2.4219,-2.3614,-2.3575,-2.3277,-2.2686,-2.2634,-2.2479,-2.2194,-2.2194,-2.2194,-2.2194,-2.2194,-2.1589,-2.0344,-1.9719,-1.9195,-1.88,-1.8494,-1.8242,-1.8063,-1.8009,0.0,0.0,0.0,0.0,0.0,0.0,0.0,0.0,0.0,0.0,-1.5384,-1.4605,-1.4124,-1.415,-1.4662,-1.5227,-1.5846,-1.6702,-1.6799,-1.5945,-1.6669,-1.7539,-1.8427,-2.0616,-2.1515,-2.036,-2.1141,-2.1667,-2.1577,-2.2181,-2.2696,-2.3013,-2.3162,-2.3432,-2.3809,-2.398,-2.4265,-2.4723,-2.49,-2.516,-2.5605,-2.5578,-2.5564,-2.5811,-2.5798,-2.5647,-2.5591,-2.5536,-2.5439,-2.5425,-2.53,-2.5257,-2.5159,-2.4622,-2.3959,-2.3374,-2.2907,-2.2414,-2.1862,-2.158,-2.1526,-2.1537,-2.1498,-2.1423,-2.1316,-2.1316,-2.1273,-2.1233,-2.1201,-2.1201,-2.9157,-2.9143,-2.9086,-2.9071,-2.9086,-2.9043,-2.897,-2.884,-2.8047,0.0,0.0,-2.6696,-2.6584,-2.6403,-2.6362,-2.6224,-2.5975,-2.6098,-2.6056,-2.5921,-2.6002,-2.5734,-2.5216,-2.5202,-2.4878,-2.4326,-2.4272,-2.3935,-2.3305,-2.3178,-2.2845,-2.2405,-2.2264,-2.2194,-2.2194,-2.2194,-2.1954,-2.1434,-2.0294,-1.9677,-1.9564,-1.8989,-1.8573,-1.8428,-1.8436,-1.8015,-1.7107,-1.7284,-1.7032,-1.6291,-1.6335,-1.6351,-1.6336,-1.615,-1.6421,-1.7259,-1.6937,-1.6762,-1.6833,-1.7293,-1.7636,-1.7728,-1.8599,-1.8917,-1.844,-1.8715,-1.9251,-2.0022,-2.195,-2.2749,-2.1839,-2.2459,-2.2884,-2.2722,-2.299,-2.3392,-2.3847,-2.3982,-2.4296,-2.491,-2.4838,-2.4907,-2.5453,-2.5508,-2.5605,-2.5825,-2.5866,-2.5893,-2.588,-2.5743,-2.5674,-2.5825,-2.5839,-2.5866,-2.5853,-2.5578,-2.5425,-2.5341,-2.4948,-2.4321,-2.3581,-2.3357,-2.2962,-2.1987,-2.1831,-2.1831,-2.1761,-2.1655,-2.1612,-2.1431,-2.1388,-2.1348,-2.1221,-2.1201,-2.1201,-3.0865,-3.0749,-3.0587,-3.0499,-3.0499,-3.0366,-3.0001,-2.9407,-2.8783,-2.8464,-2.8349,-2.8237,-2.7919,-2.7456,-2.736,-2.6909,-2.6274,-2.6286,-2.6138,-2.5921,-2.5907,-2.5933,-2.597,-2.5929,-2.5645,-2.5079,-2.5062,-2.4659,-2.3952,-2.3378,-2.3055,-2.2915,-2.2451,-2.2194,-2.2194,-2.2194,-2.2165,-2.2067,-2.1378,-2.0787,-2.0274,-1.9621,-1.9263,-1.9215,-1.8599,-1.7951,-1.731,-1.7632,-1.752,-1.6916,-1.7155,-1.7303,-1.7302,-1.7133,-1.7285,-1.7904,-1.7904,-1.8061,-1.8506,-1.8839,-1.9239,-1.9731,-1.993,-1.989,-1.9588,-1.9146,-1.9564,-2.108,-2.2141,-2.2577,-2.2618,-2.3204,-2.366,-2.3865,-2.4339,-2.4732,-2.4786,-2.5009,-2.5218,-2.5383,-2.5411,-2.5453,-2.5743,-2.5647,-2.5633,-2.5853,-2.5893,-2.5893,-2.5893,-2.5866,-2.5839,-2.5893,-2.5893,-2.5893,-2.5729,-2.5425,-2.509,-2.5061,-2.4163,-2.3505,-2.3207,-2.2902,-2.2531,-2.2185,-2.2092,-2.2061,-2.1906,-2.1632,-2.1526,-2.1451,-2.1368,-2.1285,-2.1253,-2.1233,-2.1233,-3.0999,-3.0925,-3.0762,-3.0687,-3.0672,-3.0642,-3.0438,-3.0118,-2.9842,-2.9348,-2.8695,-2.8652,-2.8437,-2.8134,-2.8064,-2.7607,-2.6854,-2.6854,-2.6573,-2.6125,-2.6125,-2.6152,-2.6206,-2.6125,-2.5969,-2.57,-2.5606,-2.5242,-2.4599,-2.4264,-2.3966,-2.3628,-2.3009,-2.2531,-2.2222,-2.2194,-2.2194,-2.2194,-2.1603,-2.1153,-2.09,-2.0274,-1.9929,-1.995,-1.9566,-1.9078,-1.8464,-1.8615,-1.8568,-1.8331,-1.8446,-1.8625,-1.8833,-1.8768,-1.8803,-1.8941,-1.8968,-1.9008,-1.9103,-1.9548,-1.991,-2.019,-2.0949,-2.1274,-2.0977,-2.0289,-2.0601,-2.2324,-2.3258,-2.3714,-2.3568,-2.4218,-2.4639,-2.4598,-2.4996,-2.5244,-2.5285,-2.5383,-2.555,-2.5674,-2.5578,-2.5605,-2.5866,-2.5798,-2.5743,-2.5893,-2.5907,-2.5907,-2.5921,-2.5907,-2.5771,-2.5481,-2.5425,-2.5231,-2.4964,-2.4667,-2.4481,-2.4465,-2.4005,-2.3492,-2.3225,-2.301,-2.2884,-2.234,-2.2197,-2.2166,-2.2061,-2.1956,-2.1831,-2.1694,-2.1632,-2.1537,-2.1486,-2.138,-2.1273,-3.094,-3.091,-3.0762,-3.0657,-3.0612,-3.0612,-3.0612,-3.0612,-3.0598,-3.0045,-2.9203,-2.913,-2.9,-2.8742,-2.8742,-2.831,-2.7666,-2.7567,-2.7209,-2.6556,-2.6486,-2.6415,-2.6286,-2.6165,-2.6098,-2.6084,-2.6002,-2.5694,-2.5246,-2.5077,-2.4683,-2.4106,-2.3572,-2.3108,-2.2644,-2.2489,-2.2419,-2.2376,-2.1814,-2.149,-2.1476,-2.0914,-2.0618,-2.0597,-2.0456,-2.0161,-1.9642,-1.9635,-1.9635,-1.9614,-1.9558,-1.9663,-1.9978,-1.9954,-1.9899,-1.9889,-1.9894,-1.9917,-1.9907,-2.0241,-2.0515,-2.0686,-2.1765,-2.2427,-2.2348,-2.1702,-2.1807,-2.3244,-2.4436,-2.4969,-2.46,-2.5025,-2.5411,-2.523,-2.5439,-2.5592,-2.5605,-2.5605,-2.5674,-2.5853,-2.5702,-2.5716,-2.6007,-2.6104,-2.6106,-2.6092,-2.6092,-2.605,-2.5882,-2.5826,-2.5571,-2.513,-2.4966,-2.4765,-2.415,-2.3875,-2.3816,-2.3816,-2.3623,-2.328,-2.301,-2.328,-2.325,-2.2359,-2.2197,-2.2197,-2.2197,-2.2123,-2.2061,-2.1894,-2.1812,-2.1769,-2.1624,-2.1454,-2.1336,-3.138,-3.1234,-3.1132,-3.0895,-3.0598,-3.0612,-3.0612,-3.0612,-3.0612,-3.0569,-3.0365,-3.0409,-3.0045,-2.9566,-2.9508,-2.9103,-2.8411,-2.8382,-2.7952,-2.7253,-2.7072,-2.6773,-2.637,-2.6179,-2.6098,-2.6098,-2.6056,-2.5946,-2.5725,-2.5288,-2.4711,-2.4174,-2.4022,-2.3952,-2.3825,-2.3319,-2.3013,-2.2999,-2.2433,-2.2123,-2.2081,-2.1518,-2.1195,-2.1195,-2.0681,-2.0386,-2.0316,-2.0316,-2.0316,-2.028,-2.008,-1.9964,-2.0025,-1.985,-1.998,-2.0475,-2.0529,-2.0817,-2.1441,-2.1387,-2.151,-2.2049,-2.2476,-2.3063,-2.3729,-2.3284,-2.3071,-2.381,-2.4984,-2.5577,-2.5439,-2.5467,-2.5619,-2.5813,-2.5854,-2.5866,-2.5937,-2.588,-2.5866,-2.5893,-2.5965,-2.6077,-2.654,-2.6581,-2.6576,-2.6408,-2.6375,-2.6226,-2.579,-2.5669,-2.5437,-2.4939,-2.4852,-2.4698,-2.4109,-2.3522,-2.3275,-2.3173,-2.2744,-2.2512,-2.2451,-2.242,-2.2278,-2.2328,-2.2197,-2.2197,-2.2154,-2.2049,-2.1968,-2.1968,-2.1843,-2.1686,-2.1474,-2.138,-2.1348,-3.2303,-3.1872,-3.1618,-3.1172,-3.0641,-3.0612,-3.0612,-3.0612,-3.0612,-3.0612,-3.0612,-3.0612,-3.0452,-3.0176,-3.019,-2.9813,-2.916,-2.9059,-2.8713,-2.815,-2.7995,-2.7609,-2.7022,-2.6856,-2.6561,-2.6112,-2.6029,-2.5934,-2.5851,-2.564,-2.5205,-2.4697,-2.4627,-2.4458,-2.4132,-2.3825,-2.3698,-2.367,-2.3066,-2.2742,-2.2672,-2.2151,-2.1828,-2.1814,-2.1603,-2.1271,-2.0984,-2.0942,-2.0942,-2.0928,-2.0826,-2.0913,-2.1276,-2.1221,-2.1287,-2.15,-2.1411,-2.1615,-2.229,-2.2234,-2.2421,-2.3063,-2.3691,-2.4161,-2.4339,-2.4557,-2.4777,-2.486,-2.5453,-2.5839,-2.5771,-2.5743,-2.591,-2.6315,-2.6441,-2.6568,-2.7004,-2.7018,-2.7046,-2.7003,-2.6632,-2.6426,-2.6601,-2.6345,-2.6109,-2.6061,-2.6038,-2.5923,-2.5621,-2.5608,-2.5338,-2.488,-2.4765,-2.4548,-2.3967,-2.3133,-2.2825,-2.2861,-2.2584,-2.2197,-2.2209,-2.2197,-2.2197,-2.2197,-2.2197,-2.2197,-2.2197,-2.2154,-2.2061,-2.2061,-2.2061,-2.1968,-2.1882,-2.1737,-2.1675,-3.2924,-3.2416,-3.2126,-3.1547,-3.0843,-3.0859,-3.0757,-3.0612,-3.0612,-3.0612,-3.0612,-3.0612,-3.0612,-3.0612,-3.0612,-3.0306,-2.9929,-2.9753,-2.945,-2.8957,-2.8813,-2.8396,-2.7736,-2.7554,-2.7058,-2.6368,-2.6188,-2.6062,-2.5921,-2.5893,-2.5669,-2.5302,-2.5233,-2.5035,-2.4627,-2.4444,-2.4371,-2.4301,-2.3713,-2.3389,-2.3333,-2.2939,-2.2559,-2.225,-2.2194,-2.1983,-2.1561,-2.1547,-2.1547,-2.1533,-2.1533,-2.1744,-2.2165,-2.2194,-2.2278,-2.2423,-2.2462,-2.2606,-2.3064,-2.3078,-2.3305,-2.3889,-2.4611,-2.4959,-2.4954,-2.5451,-2.5771,-2.5617,-2.5727,-2.5852,-2.6133,-2.6301,-2.661,-2.7017,-2.6917,-2.7039,-2.7678,-2.7527,-2.7191,-2.7395,-2.672,-2.647,-2.6543,-2.639,-2.6218,-2.5975,-2.5884,-2.5704,-2.5562,-2.5503,-2.5333,-2.4926,-2.476,-2.4398,-2.386,-2.3329,-2.2895,-2.2927,-2.283,-2.2462,-2.2366,-2.233,-2.2197,-2.2197,-2.2197,-2.2197,-2.2197,-2.2197,-2.2197,-2.2197,-2.2154,-2.2123,-2.2018,-2.1937,-2.1831,-3.2991,-3.2708,-3.2518,-3.2063,-3.1482,-3.1437,-3.1148,-3.0743,-3.0656,-3.0627,-3.0656,-3.0612,-3.0612,-3.0612,-3.0612,-3.0583,-3.0554,-3.048,-3.0132,-2.9595,-2.9435,-2.8943,-2.8183,-2.8011,-2.757,-2.6863,-2.6778,-2.6497,-2.5978,-2.5907,-2.5879,-2.5837,-2.5836,-2.5836,-2.5682,-2.5217,-2.4964,-2.4894,-2.4359,-2.4036,-2.4036,-2.4033,-2.3375,-2.2419,-2.2222,-2.2222,-2.2165,-2.2165,-2.2151,-2.2165,-2.2165,-2.2208,-2.2236,-2.2264,-2.2531,-2.3027,-2.3603,-2.3955,-2.4011,-2.4011,-2.4149,-2.4457,-2.4783,-2.514,-2.5384,-2.5687,-2.5869,-2.5821,-2.5828,-2.6052,-2.6733,-2.7027,-2.7478,-2.7677,-2.7102,-2.7157,-2.7759,-2.6915,-2.6175,-2.6593,-2.6334,-2.6048,-2.6453,-2.7053,-2.6745,-2.6405,-2.6276,-2.6068,-2.5477,-2.5341,-2.5282,-2.5185,-2.485,-2.4372,-2.395,-2.3589,-2.3601,-2.3604,-2.334,-2.2955,-2.2775,-2.2606,-2.2378,-2.2209,-2.2197,-2.2197,-2.2197,-2.2197,-2.2197,-2.2166,-2.2061,-2.203,-2.2061,-2.1843,-2.1781,-3.4024,-3.3308,-3.2818,-3.2416,-3.2179,-3.2133,-3.2034,-3.1787,-3.1351,-3.1177,-3.1105,-3.0786,-3.0612,-3.0612,-3.0612,-3.0612,-3.0612,-3.0612,-3.0392,-3.007,-3.0144,-2.9723,-2.8912,-2.8767,-2.8337,-2.7654,-2.7482,-2.7102,-2.6497,-2.609,-2.5893,-2.5893,-2.5893,-2.5893,-2.5851,-2.5683,-2.557,-2.5527,-2.4992,-2.4683,-2.4627,-2.4289,-2.3853,-2.3417,-2.2995,-2.2774,-2.2774,-2.2419,-2.2376,-2.2746,-2.2774,-2.2981,-2.3361,-2.3417,-2.3502,-2.3727,-2.3952,-2.4261,-2.4599,-2.4683,-2.4884,-2.531,-2.5122,-2.5191,-2.5632,-2.5853,-2.6036,-2.6362,-2.6698,-2.7148,-2.7531,-2.7089,-2.6935,-2.8028,-2.7734,-2.7687,-2.848,-2.807,-2.757,-2.7628,-2.6876,-2.6068,-2.5831,-2.5968,-2.5988,-2.5756,-2.5687,-2.5594,-2.5418,-2.5312,-2.5312,-2.5288,-2.5155,-2.4975,-2.4819,-2.4155,-2.3809,-2.3977,-2.3881,-2.3592,-2.3408,-2.2787,-2.2462,-2.2582,-2.2498,-2.2366,-2.2402,-2.2221,-2.2221,-2.2238,-2.2164,-2.2193,-2.2092,-2.2194,-2.2103,-3.4552,-3.3915,-3.3459,-3.3103,-3.2846,-3.2817,-3.2716,-3.2483,-3.2002,-3.1799,-3.1727,-3.138,-3.109,-3.0932,-3.0917,-3.0742,-3.0627,-3.0612,-3.0523,-3.0417,-3.0538,-3.02,-2.9584,-2.9483,-2.9051,-2.8291,-2.7934,-2.7566,-2.7144,-2.6694,-2.6399,-2.6217,-2.6188,-2.6076,-2.5908,-2.5729,-2.5619,-2.5494,-2.4998,-2.4764,-2.4898,-2.4618,-2.4487,-2.4559,-2.4064,-2.3628,-2.3421,-2.2815,-2.2773,-2.3287,-2.3219,-2.3234,-2.3474,-2.3689,-2.38,-2.3877,-2.3993,-2.4229,-2.4586,-2.4668,-2.4847,-2.5231,-2.495,-2.4919,-2.5463,-2.5714,-2.6028,-2.6374,-2.6601,-2.7109,-2.7434,-2.6453,-2.6387,-2.8087,-2.7999,-2.7926,-2.8689,-2.7992,-2.7439,-2.718,-2.6506,-2.5824,-2.5418,-2.5347,-2.5347,-2.5312,-2.5312,-2.5312,-2.5312,-2.5312,-2.5312,-2.5312,-2.53,-2.5264,-2.5155,-2.4699,-2.4446,-2.4578,-2.435,-2.4109,-2.3881,-2.322,-2.2847,-2.2943,-2.2895,-2.2727,-2.2534,-2.233,-2.2318,-2.2414,-2.2546,-2.2623,-2.2647,-2.2799,-2.2703,-3.4399,-3.4356,-3.4399,-3.3964,-3.3547,-3.3503,-3.3122,-3.2716,-3.2524,-3.2527,-3.2498,-3.244,-3.2004,-3.1582,-3.1453,-3.1163,-3.0757,-3.0641,-3.0582,-3.0507,-3.0582,-3.0387,-3.0009,-2.9981,-2.9558,-2.8705,-2.8115,-2.7847,-2.7805,-2.7621,-2.7326,-2.6891,-2.6807,-2.6596,-2.5978,-2.5577,-2.5172,-2.5102,-2.4597,-2.4456,-2.4893,-2.4869,-2.5052,-2.5506,-2.5031,-2.4461,-2.4047,-2.338,-2.3286,-2.3796,-2.3409,-2.2828,-2.2697,-2.3014,-2.326,-2.3497,-2.3778,-2.4,-2.4026,-2.4071,-2.4116,-2.4192,-2.4047,-2.4321,-2.4909,-2.5312,-2.5629,-2.5787,-2.5726,-2.5859,-2.6433,-2.6024,-2.6294,-2.8011,-2.7795,-2.7472,-2.7358,-2.6299,-2.5382,-2.5546,-2.5453,-2.5347,-2.5312,-2.5312,-2.5312,-2.5312,-2.5312,-2.5312,-2.5312,-2.5312,-2.5312,-2.5312,-2.5312,-2.5312,-2.5312,-2.5288,-2.5264,-2.5204,-2.4784,-2.453,-2.4506,-2.4073,-2.3688,-2.3676,-2.3544,-2.3364,-2.3071,-2.2859,-2.283,-2.2903,-2.2999,-2.3119,-2.3228,-2.3316,-2.3382,-3.4515,-3.4414,-3.438,-3.4312,-3.4124,-3.4124,-3.3993,-3.3775,-3.3383,-3.318,-3.3093,-3.2701,-3.2365,-3.2104,-3.1712,-3.1424,-3.1192,-3.08,-3.0492,-3.0325,-3.0371,-3.0221,-2.9946,-2.9898,-2.969,-2.9282,-2.8703,-2.8408,-2.8338,-2.8044,-2.7636,-2.7538,-2.7467,-2.7383,-2.7058,-2.6566,-2.6245,-2.6133,-2.521,-2.4821,-2.4948,-2.4538,-2.441,-2.4498,-2.401,-2.3769,-2.3992,-2.3434,-2.3232,-2.3433,-2.3213,-2.3333,-2.3763,-2.3802,-2.3647,-2.3447,-2.379,-2.3992,-2.3992,-2.3975,-2.3959,-2.3982,-2.3953,-2.4222,-2.4662,-2.476,-2.5194,-2.595,-2.6278,-2.6552,-2.6981,-2.6968,-2.7069,-2.7723,-2.717,-2.6981,-2.7217,-2.6573,-2.5884,-2.5382,-2.5312,-2.5312,-2.5312,-2.5312,-2.5312,-2.5312,-2.5312,-2.5312,-2.5312,-2.5312,-2.5312,-2.5312,-2.5312,-2.5312,-2.5312,-2.5312,-2.5312,-2.5312,-2.5083,-2.4856,-2.4868,-2.482,-2.4518,-2.423,-2.4109,-2.3893,-2.3601,-2.3408,-2.3324,-2.3408,-2.3541,-2.3649,-2.377,-2.3869,-2.3946,-3.4515,-3.4414,-3.438,-3.438,-3.438,-3.438,-3.438,-3.4356,-3.4008,-3.3852,-3.3732,-3.3412,-3.3064,-3.2817,-3.2425,-3.2121,-3.1814,-3.1221,-3.0823,-3.052,-3.0307,-3.0174,-2.9929,-2.9822,-2.973,-2.9577,-2.9271,-2.8951,-2.8632,-2.8482,-2.8084,-2.7454,-2.7577,-2.7409,-2.7023,-2.6654,-2.6333,-2.5926,-2.509,-2.4609,-2.4481,-2.3975,-2.3758,-2.3904,-2.3653,-2.3535,-2.3634,-2.3287,-2.3203,-2.3334,-2.3228,-2.3364,-2.3745,-2.3446,-2.3203,-2.3053,-2.3173,-2.331,-2.3352,-2.3465,-2.3614,-2.3624,-2.3785,-2.4114,-2.4505,-2.4457,-2.493,-2.5841,-2.612,-2.6393,-2.6561,-2.6663,-2.6697,-2.6663,-2.6573,-2.6483,-2.6641,-2.6311,-2.5861,-2.5418,-2.5312,-2.5312,-2.5312,-2.5312,-2.5312,-2.5312,-2.5312,-2.5312,-2.5312,-2.5312,-2.5312,-2.5312,-2.5312,-2.5312,-2.5312,-2.5312,-2.5312,-2.5312,-2.5276,-2.5192,-2.518,-2.5168,-2.4951,-2.4614,-2.4422,-2.4157,-2.3845,-2.3746,-2.3673,-2.3866,-2.4107,-2.423,-2.4374,-2.447,-2.4556,-3.438,-3.438,-3.438,-3.438,-3.438,-3.438,-3.438,-3.4414,-3.437,-3.4341,-3.4356,-3.4221,-3.4008,-3.3634,-3.3373,-3.3006,-3.2495,-3.1702,-3.132,-3.1005,-3.0511,-2.9998,-2.9727,-2.9668,-2.9557,-2.9369,-2.9425,-2.9115,-2.8397,-2.8829,-2.8515,-2.6944,-2.7287,-2.7028,-2.6293,-2.5882,-2.5686,-2.5198,-2.4462,-2.4122,-2.4029,-2.3509,-2.3432,-2.3935,-2.3918,-2.3705,-2.3356,-2.3268,-2.3395,-2.3712,-2.3234,-2.2779,-2.2389,-2.2216,-2.2309,-2.2466,-2.2325,-2.2454,-2.2476,-2.3009,-2.3227,-2.3288,-2.3692,-2.4023,-2.4428,-2.4609,-2.4817,-2.5366,-2.5452,-2.5406,-2.5441,-2.5476,-2.5476,-2.5441,-2.5896,-2.5965,-2.5453,-2.5382,-2.5382,-2.5347,-2.5312,-2.5312,-2.5312,-2.5312,-2.5312,-2.5312,-2.5312,-2.5312,-2.5312,-2.5312,-2.5312,-2.5312,-2.5312,-2.5312,-2.5312,-2.5312,-2.5312,-2.5312,-2.5312,-2.5312,-2.5312,-2.5312,-2.53,-2.4975,-2.4711,-2.4434,-2.4302,-2.4242,-2.4266,-2.4458,-2.4675,-2.4832,-2.4892,-2.4963,-2.4963,-3.438,-3.438,-3.438,-3.438,-3.438,-3.438,-3.438,-3.438,-3.438,-3.438,-3.438,-3.438,-3.4312,-3.4124,-3.3707,-3.3402,-3.2948,-3.1917,-3.1344,-3.1096,-2.995,-2.9103,-2.8789,-2.9085,-2.8926,-2.843,-2.8417,-2.8124,-2.7789,-2.8032,-2.7742,-2.7295,-2.7295,-2.7321,-2.7,-2.6472,-2.6258,-2.5878,-2.4994,-2.4512,-2.4384,-2.3887,-2.3684,-2.3801,-2.386,-2.3764,-2.362,-2.362,-2.3238,-2.2684,-2.2561,-2.2389,-2.2228,-2.2234,-2.259,-2.3132,-2.3011,-2.2987,-2.33,-2.3505,-2.3589,-2.3625,-2.4025,-2.4374,-2.4518,-2.4891,-2.5131,-2.5312,-2.5312,-2.5312,-2.5312,-2.5312,-2.5312,-2.5312,-2.5558,-2.5594,-2.5382,-2.5312,-2.5312,-2.5312,-2.5312,-2.5312,-2.5312,-2.5312,-2.5312,-2.5312,-2.5312,-2.5312,-2.5312,-2.5312,-2.5312,-2.5312,-2.5312,-2.5312,-2.5312,-2.5312,-2.5312,-2.5312,-2.5312,-2.5312,-2.5312,-2.5312,-2.5312,-2.5204,-2.5071,-2.4843,-2.4939,-2.4987,-2.5071,-2.4975,-2.5059,-2.5096,-2.5144,-2.5204,-2.5192,-3.438,-3.438,-3.438,-3.438,-3.438,-3.438,-3.438,-3.438,-3.438,-3.438,-3.438,-3.438,-3.438,-3.4337,-3.4037,-3.3696,-3.3264,-3.223,-3.1579,-3.1027,-3.01,-2.9027,-2.8325,-2.8463,-2.8287,-2.7762,-2.7716,-2.7484,-2.7183,-2.7351,-2.717,-2.6684,-2.69,-2.6879,-2.6463,-2.6585,-2.6256,-2.5933,-2.5344,-2.4958,-2.4595,-2.4089,-2.3827,-2.3794,-2.3806,-2.3806,-2.3794,-2.3794,-2.3481,-2.3011,-2.2867,-2.2666,-2.2282,-2.2686,-2.3168,-2.377,-2.3505,-2.3493,-2.3758,-2.3953,-2.4085,-2.4169,-2.4554,-2.4795,-2.4903,-2.5155,-2.5312,-2.5312,-2.5312,-2.5312,-2.5312,-2.5312,-2.5312,-2.5312,-2.5312,-2.5312,-2.5312,-2.5312,-2.5312,-2.5312,-2.5312,-2.5312,-2.5312,-2.5312,-2.5312,-2.5312,-2.5312,-2.5312,-2.5312,-2.5312,-2.5312,-2.5312,-2.5312,-2.5312,-2.5312,-2.5312,-2.5312,-2.5312,-2.5312,-2.5312,-2.5312,-2.5312,-2.5312,-2.5312,-2.5312,-2.5312,-2.5312,-2.5312,-2.5264,-2.5216,-2.53,-2.5312,-2.5312,-2.5312,-2.5312,-3.438,-3.438,-3.438,-3.438,-3.438,-3.438,-3.438,-3.438,-3.438,-3.438,-3.438,-3.438,-3.438,-3.438,-3.4109,-3.3865,-3.3171,-3.2298,-3.1457,-3.0756,-2.994,-2.9056,-2.784,-2.7974,-2.7722,-2.7263,-2.7411,-2.6955,-2.6539,-2.6913,-2.6526,-2.5884,-2.607,-2.5931,-2.5744,-2.5951,-2.5884,-2.5505,-2.5472,-2.5182,-2.4747,-2.4324,-2.4179,-2.4167,-2.4155,-2.4131,-2.4095,-2.4059,-2.3986,-2.3941,-2.3878,-2.3288,-2.2606,-2.3372,-2.3854,-2.3986,-2.3998,-2.3926,-2.4059,-2.4434,-2.4602,-2.4687,-2.5035,-2.53,-2.5264,-2.53,-2.5312,-2.5312,-2.5312,-2.5312,-2.5312,-2.5312,-2.5312,-2.5312,-2.5312,-2.5312,-2.5312,-2.5312,-2.5312,-2.5312,-2.5312,-2.5312,-2.5312,-2.5312,-2.5312,-2.5312,-2.5312,-2.5312,-2.5312,-2.5312,-2.5312,-2.5312,-2.5312,-2.5312,-2.5312,-2.5312,-2.5312,-2.5312,-2.5312,-2.5312,-2.5312,-2.5312,-2.5312,-2.5312,-2.5312,-2.5312,-2.5312,-2.5312,-2.5312,-2.5312,-2.5312,-2.5312,-2.5312,-2.5312,-2.5312,-3.438,-3.438,-3.438,-3.438,-3.438,-3.438,-3.438,-3.438,-3.438,-3.438,-3.438,-3.438,-3.438,-3.4346,-3.3776,-3.3332,-3.2932,-3.1784,-3.0503,-2.9199,-2.9061,-2.8348,-2.7623,-2.7774,-2.7279,-2.6486,-2.6082,-2.5908,-2.5746,-2.5816,-2.5639,-2.5453,-2.5476,-2.5476,-2.5418,-2.5476,-2.5523,-2.5323,-2.5343,-2.5305,-2.5153,-2.4987,-2.4879,-2.4891,-2.4903,-2.4939,-2.4975,-2.4975,-2.4975,-2.4795,-2.4287,-2.3758,-2.3589,-2.3722,-2.4203,-2.4638,-2.4554,-2.453,-2.4879,-2.5011,-2.5119,-2.5119,-2.5204,-2.5312,-2.5312,-2.5312,-2.5312,-2.5312,-2.5312,-2.5312,-2.5312,-2.5312,-2.536,-2.5384,-2.5408,-2.5396,-2.5336,-2.5336,-2.536,-2.536,-2.5384,-2.5336,-2.5348,-2.5384,-2.5372,-2.5336,-2.5312,-2.5312,-2.5312,-2.5312,-2.5312,-2.5312,-2.5312,-2.5312,-2.5312,-2.5312,-2.5312,-2.5312,-2.5312,-2.5312,-2.5312,-2.5312,-2.5312,-2.5312,-2.5312,-2.5312,-2.5312,-2.5312,-2.5312,-2.5312,-2.5312,-2.5312,-2.5312,-2.5312,-2.5312,-3.438,-3.438,-3.438,-3.438,-3.438,-3.438,-3.438,-3.438,-3.438,-3.438,-3.438,-3.438,-3.4196,-3.3811,-3.3367,-3.2897,-3.1951,-3.0807,-2.9783,-2.9098,-2.8895,-2.8381,-2.7762,-2.7742,-2.7322,-2.6287,-2.5937,-2.5768,-2.5672,-2.5444,-2.5382,-2.5312,-2.5312,-2.5347,-2.5312,-2.5312,-2.5312,-2.5312,-2.5312,-2.5312,-2.5312,-2.5312,-2.5312,-2.5312,-2.5312,-2.5312,-2.5288,-2.5288,-2.53,-2.5168,-2.4783,-2.4482,-2.4482,-2.4494,-2.4795,-2.5095,-2.506,-2.4987,-2.524,-2.5312,-2.53,-2.5312,-2.5312,-2.5312,-2.5312,-2.5312,-2.5312,-2.5312,-2.5312,-2.5312,-2.5336,-2.56,-2.5648,-2.5733,-2.5877,-2.6009,-2.5985,-2.5853,-2.5673,-2.5745,-2.5973,-2.6081,-2.6057,-2.5829,-2.5709,-2.5781,-2.5373,-2.5348,-2.5312,-2.5312,-2.5312,-2.5312,-2.5312,-2.5312,-2.5312,-2.5312,-2.5312,-2.5312,-2.5312,-2.5312,-2.5312,-2.5312,-2.5312,-2.5312,-2.5312,-2.5312,-2.5312,-2.5312,-2.5312,-2.5312,-2.5312,-2.5312,-2.5312,-2.5312,-2.5312,-3.438,-3.438,-3.438,-3.438,-3.438,-3.438,-3.438,-3.438,-3.4264,-3.4113,-3.4162,-3.4128,-3.35,-3.3122,-3.2826,-3.1988,-3.0871,-2.9999,-2.9344,-2.9227,-2.902,-2.8604,-2.8171,-2.8025,-2.7817,-2.7128,-2.6526,-2.6262,-2.6093,-2.5721,-2.554,-2.5444,-2.5324,-2.5324,-2.5312,-2.5312,-2.5312,-2.5312,-2.5312,-2.5312,-2.5312,-2.5312,-2.5312,-2.5312,-2.5312,-2.5312,-2.5312,-2.5312,-2.5312,-2.5312,-2.5312,-2.5312,-2.5312,-2.5312,-2.5312,-2.5312,-2.5252,-2.5264,-2.5276,-2.5312,-2.5312,-2.5312,-2.5312,-2.5384,-2.5432,-2.542,-2.5492,-2.5589,-2.5673,-2.5637,-2.5541,-2.5889,-2.6165,-2.6249,-2.6633,-2.6812,-2.6837,-2.6501,-2.6344,-2.6274,-2.6393,-2.6537,-2.6537,-2.643,-2.6322,-2.6154,-2.5781,-2.5481,-2.5457,-2.554,-2.5649,-2.5769,-2.5877,-2.5925,-2.5925,-2.5624,-2.5588,-2.5528,-2.5492,-2.5396,-2.5384,-2.5312,-2.5312,-2.5312,-2.5312,-2.5312,-2.5312,-2.5312,-2.5312,-2.5312,-2.5312,-2.5312,-2.5312,-2.5312,-2.5312,-3.438,-3.438,-3.438,-3.438,-3.438,-3.438,-3.4332,-3.4264,-3.3624,-3.3416,-3.3346,-3.2755,-3.2519,-3.2146,-3.1549,-3.0809,-3.0126,-2.9586,-2.9302,-2.9157,-2.8961,-2.8642,-2.8448,-2.8349,-2.8285,-2.8005,-2.7356,-2.6825,-2.6633,-2.6262,-2.5997,-2.5889,-2.5612,-2.5432,-2.5444,-2.5336,-2.5468,-2.5528,-2.5504,-2.5457,-2.548,-2.542,-2.5444,-2.5432,-2.5373,-2.5348,-2.5348,-2.5336,-2.5312,-2.5312,-2.5312,-2.5312,-2.5336,-2.5336,-2.536,-2.5312,-2.5312,-2.5312,-2.5312,-2.5348,-2.5324,-2.5312,-2.5408,-2.5624,-2.5757,-2.5661,-2.5853,-2.6248,-2.639,-2.6326,-2.6385,-2.6508,-2.658,-2.6726,-2.681,-2.6854,-2.6966,-2.7062,-2.7048,-2.6958,-2.6958,-2.6994,-2.7042,-2.7043,-2.6863,-2.6719,-2.6429,-2.6273,-2.6249,-2.6345,-2.6477,-2.6585,-2.6681,-2.6705,-2.6705,-2.6274,-2.5997,-2.5937,-2.5841,-2.5624,-2.554,-2.5372,-2.5324,-2.5468,-2.5408,-2.5312,-2.5312,-2.5312,-2.5312,-2.5312,-2.5312,-2.5312,-2.5312,-2.5312,-2.5312,-3.4147,-3.3845,-3.4216,-3.4162,-3.3825,-3.3791,-3.3569,-3.3171,-3.2791,-3.2613,-3.2541,-3.2254,-3.1856,-3.1489,-3.1119,-3.0482,-2.9882,-2.9521,-2.9275,-2.9079,-2.8882,-2.8685,-2.851,-2.851,-2.851,-2.8378,-2.7969,-2.7522,-2.7308,-2.6765,-2.6562,-2.6478,-2.6213,-2.6117,-2.6129,-2.6165,-2.6081,-2.6117,-2.6081,-2.6081,-2.6081,-2.5901,-2.5829,-2.5973,-2.5589,-2.5468,-2.5636,-2.5396,-2.5324,-2.5312,-2.5312,-2.5312,-2.5372,-2.554,-2.5612,-2.5444,-2.5372,-2.5336,-2.5396,-2.5516,-2.5733,-2.5769,-2.5937,-2.6201,-2.6369,-2.6345,-2.6393,-2.668,-2.6735,-2.6659,-2.6737,-2.6986,-2.7205,-2.7316,-2.7421,-2.7565,-2.7699,-2.7852,-2.7783,-2.7642,-2.7738,-2.7762,-2.7777,-2.7657,-2.7416,-2.721,-2.7078,-2.703,-2.7006,-2.7042,-2.7114,-2.7078,-2.7102,-2.7114,-2.7102,-2.6801,-2.6526,-2.643,-2.6213,-2.5997,-2.5973,-2.5925,-2.5841,-2.5817,-2.5673,-2.5528,-2.5312,-2.5312,-2.5312,-2.5312,-2.5312,-2.5312,-2.5312,-2.5312,-2.5312,-3.3638,-3.3227,-3.3722,-3.3569,-3.3052,-3.2967,-3.2684,-3.2146,-3.1928,-3.1856,-3.1819,-3.1649,-3.1206,-3.0809,-3.062,-3.0317,-2.9792,-2.9482,-2.9236,-2.9091,-2.8816,-2.8618,-2.855,-2.851,-2.851,-2.8498,-2.8426,-2.8254,-2.7822,-2.7306,-2.709,-2.6982,-2.6982,-2.6885,-2.6801,-2.6705,-2.6873,-2.6885,-2.6885,-2.6885,-2.6765,-2.6538,-2.6417,-2.6813,-2.6045,-2.5877,-2.6178,-2.5973,-2.5793,-2.5721,-2.5673,-2.5541,-2.5456,-2.5913,-2.6154,-2.5961,-2.5781,-2.5648,-2.5769,-2.5997,-2.6274,-2.6286,-2.6633,-2.6873,-2.7102,-2.7126,-2.7234,-2.7133,-2.7143,-2.7114,-2.7311,-2.7502,-2.772,-2.7828,-2.8091,-2.8355,-2.8259,-2.8271,-2.8299,-2.8314,-2.8471,-2.8414,-2.8182,-2.8044,-2.7792,-2.7822,-2.769,-2.763,-2.7606,-2.7522,-2.7522,-2.7438,-2.7414,-2.7426,-2.739,-2.7294,-2.7115,-2.7043,-2.6777,-2.6525,-2.6609,-2.6705,-2.6513,-2.6298,-2.6129,-2.5937,-2.5648,-2.5336,-2.5312,-2.5312,-2.5312,-2.5312,-2.5312,-2.5312,-2.5312,-3.2698,-3.3143,-3.2613,-3.2304,-3.2254,-3.2218,-3.2196,-3.1965,-3.1304,-3.1044,-3.102,-3.0419,-3.0139,-3.0037,-2.9998,-2.9895,-2.9702,-2.9417,-2.9157,-2.9052,-2.8736,-2.859,-2.851,-2.851,-2.851,-2.851,-2.851,-2.8498,-2.8246,-2.7786,-2.7594,-2.7534,-2.7234,-2.6934,-2.7126,-2.7138,-2.6885,-2.6922,-2.6946,-2.6958,-2.6946,-2.6873,-2.6873,-2.691,-2.6741,-2.6633,-2.6729,-2.6597,-2.6537,-2.6573,-2.6621,-2.6201,-2.5685,-2.6273,-2.7284,-2.756,-2.7368,-2.6693,-2.6633,-2.6717,-2.6789,-2.6801,-2.697,-2.7162,-2.751,-2.7879,-2.7992,-2.7961,-2.806,-2.8056,-2.7877,-2.7909,-2.8004,-2.802,-2.8096,-2.8191,-2.8219,-2.8379,-2.8431,-2.8391,-2.8431,-2.8471,-2.8374,-2.8255,-2.8164,-2.8259,-2.8342,-2.8206,-2.8134,-2.8041,-2.8005,-2.7921,-2.7846,-2.7897,-2.781,-2.769,-2.7669,-2.7621,-2.7378,-2.7126,-2.7222,-2.7294,-2.703,-2.6801,-2.6657,-2.6345,-2.5937,-2.5636,-2.542,-2.5492,-2.5733,-2.5576,-2.5312,-2.53,-2.5314,-3.1257,-3.1901,-3.2037,-3.1833,-3.1452,-3.1415,-3.1182,-3.0797,-3.0419,-3.0279,-3.0241,-2.996,-2.9779,-2.9779,-2.9779,-2.9779,-2.9702,-2.9404,-2.9197,-2.9052,-2.8776,-2.8618,-2.851,-2.851,-2.851,-2.851,-2.851,-2.851,-2.8414,-2.833,-2.8174,-2.8114,-2.7906,-2.7834,-2.7717,-2.7762,-2.781,-2.7861,-2.7849,-2.7798,-2.7714,-2.7534,-2.7486,-2.7726,-2.7222,-2.7138,-2.7234,-2.7006,-2.691,-2.6849,-2.6741,-2.6549,-2.6381,-2.6837,-2.7558,-2.8306,-2.8114,-2.751,-2.7018,-2.7198,-2.7306,-2.745,-2.7621,-2.7969,-2.8146,-2.8223,-2.8351,-2.8339,-2.8259,-2.8311,-2.8299,-2.8191,-2.8151,-2.8139,-2.8059,-2.8111,-2.8191,-2.8311,-2.8431,-2.8379,-2.8339,-2.8379,-2.8431,-2.8419,-2.8315,-2.8383,-2.8438,-2.8402,-2.8378,-2.8354,-2.8354,-2.8378,-2.8366,-2.8378,-2.8306,-2.8222,-2.8162,-2.8126,-2.8126,-2.7933,-2.7933,-2.7861,-2.757,-2.7546,-2.7621,-2.714,-2.6357,-2.6129,-2.6117,-2.6165,-2.6213,-2.5789,-2.5414,-2.5417,-2.5182,-3.0266,-3.0683,-3.1281,-3.1182,-3.0658,-3.062,-3.0343,-2.9856,-2.9818,-2.9818,-2.9779,-2.9779,-2.9779,-2.974,-2.9689,-2.965,-2.9663,-2.9392,-2.9184,-2.9,-2.8803,-2.8657,-2.855,-2.851,-2.851,-2.851,-2.851,-2.851,-2.851,-2.8474,-2.845,-2.851,-2.8378,-2.8414,-2.8474,-2.8414,-2.8378,-2.8378,-2.839,-2.8402,-2.8366,-2.8089,-2.8174,-2.8126,-2.7822,-2.7524,-2.7777,-2.7582,-2.7354,-2.7306,-2.7236,-2.7236,-2.7356,-2.757,-2.7945,-2.8426,-2.8354,-2.8074,-2.7702,-2.769,-2.7846,-2.8002,-2.8198,-2.8378,-2.841,-2.8311,-2.8271,-2.8471,-2.8351,-2.8351,-2.8351,-2.8231,-2.8059,-2.8018,-2.8018,-2.8099,-2.8151,-2.8271,-2.8391,-2.8431,-2.8391,-2.8299,-2.8351,-2.8431,-2.8471,-2.8471,-2.851,-2.851,-2.851,-2.851,-2.851,-2.851,-2.851,-2.851,-2.8498,-2.8486,-2.851,-2.8471,-2.8471,-2.8435,-2.8239,-2.8254,-2.8162,-2.8246,-2.8148,-2.7731,-2.6872,-2.6862,-2.6798,-2.6344,-2.5913,-2.5738,-2.5516,-2.5445,-2.4954,-3.0431,-2.9895,-2.9972,-3.0011,-2.9934,-2.9856,-2.9856,-2.9779,-2.9779,-2.9779,-2.9779,-2.9779,-2.9779,-2.974,-2.956,-2.9457,-2.9419,-2.9028,-2.891,-2.8791,-2.8605,-2.855,-2.851,-2.851,-2.851,-2.851,-2.851,-2.851,-2.851,-2.851,-2.851,-2.851,-2.851,-2.851,-2.851,-2.851,-2.851,-2.851,-2.851,-2.851,-2.851,-2.8414,-2.845,-2.8474,-2.8438,-2.8426,-2.8438,-2.8282,-2.821,-2.8198,-2.8089,-2.8065,-2.8114,-2.821,-2.839,-2.845,-2.851,-2.8354,-2.8246,-2.8234,-2.8378,-2.845,-2.8435,-2.8471,-2.8471,-2.851,-2.851,-2.8471,-2.8351,-2.8311,-2.8231,-2.803,-2.7817,-2.7857,-2.7898,-2.795,-2.803,-2.8231,-2.8351,-2.8403,-2.8391,-2.8351,-2.8351,-2.8431,-2.8471,-2.851,-2.851,-2.851,-2.851,-2.851,-2.851,-2.851,-2.851,-2.851,-2.851,-2.851,-2.851,-2.8391,-2.8299,-2.8299,-2.8251,-2.8303,-2.8016,-2.7815,-2.7539,-2.7475,-2.7342,-2.6865,-2.6368,-2.5885,-2.5595,-2.5492,-2.5021,-2.4643,-2.4175,-3.0075,-2.9792,-2.9779,-2.9779,-2.9779,-2.9779,-2.9779,-2.9779,-2.9779,-2.9779,-2.9792,-2.9779,-2.9689,-2.9548,-2.947,-2.9314,-2.9197,-2.891,-2.8831,-2.8724,-2.8605,-2.851,-2.851,-2.851,-2.851,-2.851,-2.851,-2.851,-2.851,-2.851,-2.851,-2.851,-2.851,-2.851,-2.851,-2.851,-2.851,-2.851,-2.851,-2.851,-2.851,-2.851,-2.851,-2.851,-2.851,-2.851,-2.8498,-2.851,-2.851,-2.851,-2.851,-2.851,-2.851,-2.851,-2.851,-2.851,-2.851,-2.851,-2.851,-2.851,-2.851,-2.8471,-2.8379,-2.8391,-2.8471,-2.851,-2.851,-2.8431,-2.8271,-2.8151,-2.8179,-2.7898,-2.7644,-2.7696,-2.7748,-2.7829,-2.795,-2.8151,-2.8231,-2.8271,-2.8351,-2.8391,-2.8391,-2.8431,-2.8471,-2.851,-2.851,-2.8471,-2.8391,-2.8299,-2.8219,-2.8047,-2.8007,-2.8087,-2.8087,-2.8259,-2.8431,-2.8219,-2.7966,-2.7794,-2.7632,-2.7418,-2.7151,-2.704,-2.6782,-2.6449,-2.6255,-2.6269,-2.6015,-2.5594,-2.5448,-2.542,-2.4782,-2.3961,-2.3534,-2.9779,-2.9779,-2.9779,-2.9779,-2.9779,-2.9779,-2.9779,-2.9779,-2.9779,-2.9753,-2.9702,-2.965,-2.9534,-2.9353,-2.9223,-2.9157,-2.8961,-2.8803,-2.8724,-2.8645,-2.8578,-2.851,-2.851,-2.851,-2.851,-2.851,-2.851,-2.851,-2.851,-2.851,-2.851,-2.851,-2.851,-2.851,-2.851,-2.851,-2.851,-2.851,-2.851,-2.851,-2.851,-2.851,-2.851,-2.851,-2.851,-2.851,-2.851,-2.851,-2.851,-2.851,-2.851,-2.851,-2.851,-2.851,-2.851,-2.851,-2.851,-2.851,-2.851,-2.851,-2.851,-2.8471,-2.8419,-2.8419,-2.8471,-2.851,-2.8471,-2.8391,-2.8122,-2.7962,-2.8099,-2.7857,-2.7736,-2.78,-2.7788,-2.7829,-2.7921,-2.8042,-2.8082,-2.8111,-2.8231,-2.8219,-2.7713,-2.7672,-2.7926,-2.8127,-2.851,-2.8259,-2.7886,-2.7753,-2.7632,-2.7458,-2.7296,-2.7458,-2.762,-2.7418,-2.7203,-2.7133,-2.6917,-2.6835,-2.667,-2.6412,-2.6329,-2.6318,-2.5944,-2.5316,-2.5209,-2.5332,-2.5396,-2.5377,-2.503,-2.4608,-2.4237,-2.3496,-2.3361,-2.9779,-2.9779,-2.9779,-2.9779,-2.9779,-2.9779,-2.9779,-2.9792,-2.9779,-2.9663,-2.9457,-2.9431,-2.9314,-2.9118,-2.8949,-2.8882,-2.8764,-2.8618,-2.855,-2.855,-2.8498,-2.851,-2.851,-2.851,-2.851,-2.851,-2.851,-2.851,-2.851,-2.851,-2.851,-2.851,-2.851,-2.851,-2.851,-2.851,-2.851,-2.851,-2.851,-2.851,-2.851,-2.851,-2.851,-2.851,-2.851,-2.851,-2.851,-2.851,-2.851,-2.851,-2.851,-2.851,-2.851,-2.851,-2.851,-2.851,-2.851,-2.851,-2.851,-2.851,-2.851,-2.8471,-2.8419,-2.8419,-2.8471,-2.8471,-2.8391,-2.8259,-2.803,-2.7921,-2.7921,-2.7881,-2.7881,-2.7881,-2.7881,-2.7881,-2.7962,-2.8082,-2.8151,-2.7765,-2.7886,-2.7914,-2.7162,-2.6782,-2.7162,-2.758,-2.8247,-2.8087,-2.7377,-2.7133,-2.6958,-2.6876,-2.6659,-2.6618,-2.6659,-2.6235,-2.6027,-2.5955,-2.5913,-2.5872,-2.5621,-2.5284,-2.5316,-2.5484,-2.5105,-2.4478,-2.4445,-2.451,-2.4488,-2.4445,-2.3854,-2.3444,-2.3212,-2.3178,-2.3135,-2.9779,-2.9779,-2.9779,-2.9779,-2.9779,-2.9779,-2.9779,-2.974,-2.9599,-2.947,-2.938,-2.9275,-2.9079,-2.8922,-2.8831,-2.8724,-2.8578,-2.859,-2.851,-2.851,-2.851,-2.851,-2.851,-2.851,-2.851,-2.851,-2.851,-2.851,-2.851,-2.851,-2.851,-2.851,-2.851,-2.851,-2.851,-2.851,-2.851,-2.851,-2.851,-2.851,-2.851,-2.851,-2.851,-2.851,-2.851,-2.851,-2.851,-2.851,-2.851,-2.851,-2.851,-2.851,-2.851,-2.851,-2.851,-2.851,-2.851,-2.851,-2.851,-2.851,-2.851,-2.8471,-2.8419,-2.8419,-2.8471,-2.8243,-2.8151,-2.8151,-2.799,-2.7921,-2.7881,-2.7881,-2.7881,-2.7921,-2.7921,-2.7962,-2.8002,-2.8191,-2.8219,-2.7458,-2.7232,-2.6823,-2.6193,-2.5746,-2.5955,-2.6121,-2.6618,-2.6782,-2.6287,-2.6246,-2.6163,-2.6163,-2.6027,-2.5902,-2.5735,-2.5358,-2.5274,-2.5411,-2.52,-2.4956,-2.4659,-2.4317,-2.4145,-2.4231,-2.3973,-2.3691,-2.3777,-2.382,-2.3647,-2.3396,-2.3178,-2.3101,-2.3135,-2.3135,-2.3091,-2.9779,-2.9779,-2.9779,-2.9779,-2.9779,-2.9779,-2.9779,-2.974,-2.9611,-2.9482,-2.9275,-2.9131,-2.8934,-2.8764,-2.8697,-2.8657,-2.851,-2.851,-2.851,-2.851,-2.851,-2.851,-2.851,-2.851,-2.851,-2.851,-2.851,-2.851,-2.851,-2.851,-2.851,-2.851,-2.851,-2.851,-2.851,-2.851,-2.851,-2.851,-2.851,-2.851,-2.851,-2.851,-2.851,-2.851,-2.851,-2.851,-2.851,-2.851,-2.851,-2.851,-2.851,-2.851,-2.851,-2.851,-2.851,-2.851,-2.851,-2.851,-2.851,-2.851,-2.851,-2.851,-2.8339,-2.8379,-2.8431,-2.8311,-2.8151,-2.807,-2.7962,-2.7921,-2.7921,-2.7921,-2.7962,-2.7962,-2.7921,-2.7921,-2.7869,-2.8059,-2.762,-2.6894,-2.6307,-2.5819,-2.5274,-2.4904,-2.4701,-2.4776,-2.4861,-2.5073,-2.5274,-2.5316,-2.5242,-2.5073,-2.4978,-2.4734,-2.4606,-2.452,-2.4563,-2.4819,-2.4531,-2.4198,-2.394,-2.3637,-2.3309,-2.3101,-2.3266,-2.3353,-2.3222,-2.3135,-2.3222,-2.3222,-2.3135,-2.3101,-2.3101,-2.3101,-2.3101,-2.9779,-2.9779,-2.9779,-2.9779,-2.9779,-2.9779,-2.9779,-2.9779,-2.974,-2.9507,-2.9131,-2.9091,-2.8895,-2.859,-2.855,-2.851,-2.851,-2.851,-2.851,-2.851,-2.851,-2.851,-2.851,-2.851,-2.851,-2.851,-2.851,-2.851,-2.851,-2.851,-2.851,-2.851,-2.851,-2.851,-2.851,-2.851,-2.851,-2.851,-2.851,-2.851,-2.851,-2.851,-2.851,-2.851,-2.851,-2.851,-2.851,-2.851,-2.851,-2.851,-2.851,-2.851,-2.851,-2.851,-2.851,-2.851,-2.851,-2.851,-2.851,-2.851,-2.851,-2.851,-2.8471,-2.851,-2.8471,-2.8431,-2.8271,-2.8082,-2.7973,-2.7921,-2.7921,-2.7962,-2.8042,-2.795,-2.7829,-2.7736,-2.7615,-2.7348,-2.6823,-2.6224,-2.5652,-2.5115,-2.4402,-2.3983,-2.3897,-2.3854,-2.3983,-2.4112,-2.4317,-2.4402,-2.4231,-2.381,-2.3637,-2.343,-2.3387,-2.3724,-2.3767,-2.4016,-2.3767,-2.3474,-2.3222,-2.3222,-2.3135,-2.3101,-2.3101,-2.3101,-2.3101,-2.3101,-2.3135,-2.3101,-2.3101,-2.3101,-2.3101,-2.3101,-2.3101,-2.9779,-2.9779,-2.9779,-2.9779,-2.9779,-2.9779,-2.9702,-2.9521,-2.9365,-2.9209,-2.9091,-2.8961,-2.8843,-2.8685,-2.855,-2.851,-2.851,-2.851,-2.851,-2.851,-2.851,-2.851,-2.851,-2.851,-2.851,-2.851,-2.851,-2.851,-2.851,-2.851,-2.851,-2.851,-2.851,-2.851,-2.851,-2.851,-2.851,-2.851,-2.851,-2.851,-2.851,-2.851,-2.851,-2.851,-2.851,-2.851,-2.851,-2.851,-2.851,-2.851,-2.851,-2.851,-2.851,-2.851,-2.851,-2.851,-2.851,-2.851,-2.851,-2.851,-2.851,-2.851,-2.851,-2.851,-2.851,-2.8471,-2.8351,-2.8122,-2.8002,-2.8042,-2.803,-2.807,-2.795,-2.7777,-2.7563,-2.7255,-2.7051,-2.6505,-2.5944,-2.5147,-2.4563,-2.4231,-2.356,-2.3517,-2.344,-2.3222,-2.3178,-2.3353,-2.3484,-2.3647,-2.3647,-2.3222,-2.3101,-2.3101,-2.3101,-2.3353,-2.3266,-2.3178,-2.3101,-2.3101,-2.3135,-2.3135,-2.3091,-2.3101,-2.3101,-2.3101,-2.3101,-2.3101,-2.3101,-2.3101,-2.3101,-2.3101,-2.3101,-2.3101,-2.3101,-2.9779,-2.9779,-2.9779,-2.9779,-2.9779,-2.9689,-2.9548,-2.938,-2.9365,-2.9339,-2.9197,-2.9,-2.8882,-2.8764,-2.8578,-2.851,-2.851,-2.851,-2.851,-2.851,-2.851,-2.851,-2.851,-2.851,-2.851,-2.851,-2.851,-2.851,-2.851,-2.851,-2.851,-2.851,-2.851,-2.851,-2.851,-2.851,-2.851,-2.851,-2.851,-2.851,-2.851,-2.851,-2.851,-2.851,-2.851,-2.851,-2.851,-2.851,-2.851,-2.851,-2.851,-2.851,-2.851,-2.851,-2.851,-2.851,-2.851,-2.851,-2.851,-2.851,-2.851,-2.851,-2.851,-2.851,-2.851,-2.8471,-2.8323,-2.8122,-2.8122,-2.8163,-2.8151,-2.8111,-2.7805,-2.7551,-2.7121,-2.6689,-2.6193,-2.5652,-2.4861,-2.394,-2.3474,-2.3222,-2.3013,-2.3057,-2.3101,-2.3101,-2.3101,-2.3178,-2.3222,-2.3309,-2.3353,-2.3135,-2.3101,-2.3101,-2.3101,-2.3101,-2.3101,-2.3101,-2.3101,-2.3101,-2.3101,-2.3101,-2.3101,-2.3101,-2.3101,-2.3101,-2.3101,-2.3101,-2.3101,-2.3101,-2.3101,-2.3101,-2.3101,-2.3101,-2.3101,-2.9779,-2.9779,-2.9779,-2.9779,-2.9753,-2.9521,-2.938,-2.938,-2.9573,-2.9573,-2.9353,-2.9157,-2.8961,-2.8764,-2.8578,-2.851,-2.851,-2.851,-2.851,-2.851,-2.851,-2.851,-2.851,-2.851,-2.851,-2.851,-2.851,-2.851,-2.851,-2.851,-2.851,-2.851,-2.851,-2.851,-2.851,-2.851,-2.851,-2.851,-2.851,-2.851,-2.851,-2.851,-2.851,-2.851,-2.851,-2.851,-2.851,-2.851,-2.851,-2.851,-2.851,-2.851,-2.851,-2.851,-2.851,-2.851,-2.851,-2.851,-2.851,-2.851,-2.851,-2.851,-2.851,-2.8471,-2.8471,-2.8351,-2.8163,-2.8243,-2.8271,-2.7938,-2.7805,-2.7632,-2.7377,-2.6794,-2.6205,-2.5861,-2.5442,-2.4861,-2.4069,-2.3353,-2.3178,-2.2969,-2.3057,-2.3101,-2.3101,-2.3101,-2.3101,-2.3101,-2.3101,-2.3101,-2.3101,-2.3101,-2.3101,-2.3101,-2.3101,-2.3101,-2.3101,-2.3101,-2.3101,-2.3101,-2.3101,-2.3101,-2.3101,-2.3101,-2.3101,-2.3101,-2.3101,-2.3101,-2.3101,-2.3101,-2.3101,-2.3101,-2.3101,-2.3101,-2.3101,-2.9779,-2.9779,-2.9779,-2.9702,-2.9509,-2.9419,-2.9314,-2.917,-2.926,-2.9248,-2.9157,-2.8961,-2.887,-2.8803,-2.8578,-2.851,-2.851,-2.851,-2.851,-2.851,-2.851,-2.851,-2.851,-2.851,-2.851,-2.851,-2.851,-2.851,-2.851,-2.851,-2.851,-2.851,-2.851,-2.851,-2.851,-2.851,-2.851,-2.851,-2.851,-2.851,-2.851,-2.851,-2.851,-2.851,-2.851,-2.851,-2.851,-2.851,-2.851,-2.851,-2.851,-2.851,-2.851,-2.851,-2.851,-2.851,-2.851,-2.851,-2.851,-2.851,-2.851,-2.851,-2.8471,-2.8379,-2.8299,-2.8111,-2.807,-2.8231,-2.8139,-2.7672,-2.7336,-2.7121,-2.6782,-2.5997,-2.5295,-2.5041,-2.4734,-2.4026,-2.3309,-2.3135,-2.2969,-2.3013,-2.3101,-2.3101,-2.3101,-2.3101,-2.3101,-2.3101,-2.3101,-2.3101,-2.3101,-2.3101,-2.3101,-2.3101,-2.3101,-2.3101,-2.3101,-2.3101,-2.3101,-2.3101,-2.3101,-2.3101,-2.3101,-2.3101,-2.3101,-2.3101,-2.3101,-2.3101,-2.3101,-2.3101,-2.3101,-2.3101,-2.3101,-2.3101,-2.3101,-2.9779,-2.9779,-2.9663,-2.947,-2.9275,-2.9275,-2.9197,-2.9091,-2.9013,-2.8961,-2.8961,-2.8843,-2.8803,-2.8764,-2.8578,-2.851,-2.851,-2.851,-2.851,-2.851,-2.851,-2.851,-2.851,-2.851,-2.851,-2.851,-2.851,-2.851,-2.851,-2.851,-2.851,-2.851,-2.851,-2.851,-2.851,-2.851,-2.851,-2.851,-2.851,-2.851,-2.851,-2.851,-2.851,-2.851,-2.851,-2.851,-2.851,-2.851,-2.851,-2.851,-2.851,-2.851,-2.851,-2.851,-2.851,-2.851,-2.851,-2.851,-2.851,-2.851,-2.851,-2.851,-2.8471,-2.8379,-2.8207,-2.8018,-2.7389,-2.7418,-2.704,-2.6577,-2.6453,-2.6235,-2.5777,-2.5073,-2.4659,-2.436,-2.3983,-2.343,-2.3144,-2.3144,-2.3057,-2.3057,-2.3101,-2.3101,-2.3101,-2.3101,-2.3101,-2.3101,-2.3101,-2.3101,-2.3101,-2.3101,-2.3101,-2.3101,-2.3101,-2.3101,-2.3101,-2.3101,-2.3101,-2.3101,-2.3101,-2.3101,-2.3101,-2.3101,-2.3101,-2.3101,-2.3101,-2.3101,-2.3101,-2.3101,-2.3101,-2.3101,-2.3101,-2.3101,-2.3101,-2.9702,-2.9663,-2.9482,-2.9236,-2.9091,-2.9052,-2.9052,-2.8973,-2.8843,-2.8764,-2.8764,-2.8764,-2.8764,-2.8685,-2.8618,-2.855,-2.851,-2.851,-2.851,-2.851,-2.851,-2.851,-2.851,-2.851,-2.851,-2.851,-2.851,-2.851,-2.851,-2.851,-2.851,-2.851,-2.851,-2.851,-2.851,-2.851,-2.851,-2.851,-2.851,-2.851,-2.851,-2.851,-2.851,-2.851,-2.851,-2.851,-2.851,-2.851,-2.851,-2.851,-2.851,-2.851,-2.851,-2.851,-2.851,-2.851,-2.851,-2.851,-2.851,-2.851,-2.851,-2.8471,-2.8431,-2.8219,-2.8007,-2.758,-2.6958,-2.6329,-2.5913,-2.5704,-2.5526,-2.5358,-2.4861,-2.4317,-2.3973,-2.3714,-2.3343,-2.3013,-2.3057,-2.3101,-2.3101,-2.3101,-2.3101,-2.3101,-2.3101,-2.3101,-2.3101,-2.3101,-2.3101,-2.3101,-2.3101,-2.3101,-2.3101,-2.3101,-2.3101,-2.3101,-2.3101,-2.3101,-2.3101,-2.3101,-2.3101,-2.3101,-2.3101,-2.3101,-2.3101,-2.3101,-2.3101,-2.3101,-2.3101,-2.3101,-2.3101,-2.3101,-2.3101,-2.3101,-2.3101,-2.9392,-2.9221,-2.917,-2.904,-2.8882,-2.8831,-2.8764,-2.8618,-2.859,-2.8538,-2.8578,-2.8538,-2.8538,-2.855,-2.855,-2.851,-2.851,-2.851,-2.851,-2.851,-2.851,-2.851,-2.851,-2.851,-2.851,-2.851,-2.851,-2.851,-2.851,-2.851,-2.851,-2.851,-2.851,-2.851,-2.851,-2.851,-2.851,-2.851,-2.851,-2.851,-2.851,-2.851,-2.851,-2.851,-2.851,-2.851,-2.851,-2.851,-2.851,-2.851,-2.851,-2.851,-2.851,-2.851,-2.851,-2.851,-2.851,-2.851,-2.851,-2.8351,-2.8299,-2.8219,-2.8007,-2.7429,-2.7174,-2.6905,-2.6205,-2.5284,-2.4904,-2.4776,-2.4648,-2.4659,-2.4327,-2.3681,-2.3212,-2.3178,-2.2969,-2.3013,-2.3101,-2.3101,-2.3101,-2.3101,-2.3101,-2.3101,-2.3101,-2.3101,-2.3101,-2.3101,-2.3101,-2.3101,-2.3101,-2.3101,-2.3101,-2.3101,-2.3101,-2.3101,-2.3101,-2.3101,-2.3101,-2.3101,-2.3101,-2.3101,-2.3101,-2.3101,-2.3101,-2.3101,-2.3101,-2.3101,-2.3101,-2.3101,-2.3101,-2.3101,-2.3101,-2.3101,-2.3101]},{"header":{"parameterUnit":"m.s-1","parameterCategory":1,"la1":31.0,"la2":29.5877,"lo1":-88.7671,"lo2":-86.6584,"dy":0.0162,"dx":0.0185,"nx":115,"ny":88,"refTime":"2024-09-20T12:00:00:Z","depth":0,"parameterNumber":3,"parameterNumberName":"V-component_of_WINDS"},"data":[0.0,0.0,0.0,0.0,0.0,0.0,0.0,0.0,0.0,0.0,0.0,0.0,0.0,0.0,0.0,0.0,0.0,0.0,0.0,0.0,0.0,0.0,0.0,0.0,0.0,0.0,0.0,0.0,0.0,0.0,0.0,0.0,0.0,0.0,0.0,0.0,0.0,0.0,0.0,0.0,0.0,0.0,0.0,0.0,0.0,0.0,0.0,0.0,0.0,0.0,0.0,0.0,0.0,0.0,0.0,0.0,0.0,0.0,0.0,0.0,0.0,0.0,0.0,0.0,0.0,0.0,0.0,0.0,0.0,0.0,0.0,0.0,0.0,0.0,0.0,0.0,0.0,0.0,0.0,0.0,0.0,0.0,0.0,0.0,0.0,0.0,0.0,0.0,0.0,0.0,0.0,0.0,0.0,0.0,0.0,0.0,0.0,0.0,0.0,0.0,0.0,0.0,0.0,0.0,0.0,0.0,0.0,0.0,0.0,0.0,0.0,0.0,0.0,0.0,0.0,0.0,0.0,0.0,0.0,0.0,0.0,0.0,0.0,0.0,0.0,0.0,0.0,0.0,0.0,0.0,0.0,0.0,0.0,0.0,0.0,0.0,0.0,0.0,0.0,0.0,0.0,0.0,0.0,0.0,0.0,0.0,0.0,0.0,0.0,0.0,0.0,0.0,0.0,0.0,0.0,0.0,0.0,0.0,0.0,0.0,0.0,0.0,0.0,0.0,0.0,0.0,0.0,0.0,0.0,0.0,0.0,0.0,0.0,0.0,0.0,0.0,0.0,0.0,0.0,0.0,0.0,0.0,0.0,0.0,0.0,0.0,0.0,0.0,0.0,0.0,0.0,0.0,0.0,0.0,0.0,0.0,0.0,0.0,0.0,0.0,0.0,0.0,0.0,0.0,0.0,0.0,0.0,0.0,0.0,0.0,0.0,0.0,0.0,0.0,0.0,0.0,0.0,0.0,0.0,0.0,0.0,0.0,0.0,0.0,0.0,0.0,0.0,0.0,0.0,0.0,0.0,0.0,0.0,0.0,0.0,0.0,0.0,0.0,0.0,0.0,0.0,0.0,0.0,0.0,0.0,0.0,0.0,0.0,0.0,0.0,0.0,0.0,0.0,0.0,0.0,0.0,0.0,0.0,0.0,0.0,0.0,0.0,0.0,0.0,0.0,0.0,0.0,0.0,0.0,0.0,0.0,0.0,0.0,0.0,0.0,0.0,0.0,0.0,0.0,0.0,0.0,0.0,0.0,0.0,0.0,0.0,0.0,0.0,0.0,0.0,0.0,0.0,0.0,0.0,0.0,0.0,0.0,0.0,0.0,0.0,0.0,0.0,0.0,0.0,0.0,0.0,0.0,0.0,0.0,0.0,0.0,0.0,0.0,0.0,0.0,0.0,0.0,0.0,0.0,0.0,0.0,0.0,0.0,0.0,0.0,0.0,0.0,0.0,0.0,0.0,0.0,0.0,0.0,0.0,0.0,0.0,0.0,0.0,0.0,0.0,0.0,0.0,0.0,0.0,0.0,0.0,0.0,0.0,0.0,0.0,0.0,0.0,0.0,0.0,0.0,0.0,0.0,0.0,0.0,0.0,0.0,0.0,0.0,0.0,0.0,0.0,0.0,0.0,0.0,0.0,0.0,0.0,0.0,0.0,0.0,0.0,0.0,0.0,0.0,0.0,0.0,0.0,0.0,0.0,0.0,0.0,0.0,0.0,0.0,0.0,0.0,0.0,0.0,0.0,0.0,0.0,0.0,0.0,0.0,0.0,0.0,0.0,0.0,0.0,0.0,0.0,0.0,0.0,0.0,0.0,0.0,0.0,0.0,0.0,0.0,0.0,0.0,0.0,0.0,0.0,0.0,0.0,0.0,0.0,0.0,0.0,0.0,0.0,0.0,0.0,0.0,0.0,0.0,0.0,0.0,0.0,0.0,0.0,0.0,0.0,0.0,0.0,0.0,0.0,0.0,0.0,0.0,0.0,0.0,0.0,0.0,0.0,0.0,0.0,0.0,0.0,0.0,0.0,0.0,0.0,0.0,0.0,0.0,0.0,0.0,0.0,0.0,0.0,0.0,0.0,0.0,0.0,0.0,0.0,0.0,0.0,0.0,0.0,0.0,0.0,0.0,0.0,0.0,0.0,0.0,0.0,0.0,0.0,0.0,0.0,0.0,0.0,0.0,0.0,0.0,0.0,0.0,0.0,0.0,0.0,0.0,0.0,0.0,0.0,0.0,0.0,0.0,0.0,0.0,0.0,0.0,0.0,0.0,0.0,0.0,0.0,0.0,0.0,0.0,0.0,0.0,0.0,0.0,0.0,0.0,0.0,0.0,0.0,0.0,0.0,0.0,0.0,0.0,0.0,0.0,0.0,0.0,0.0,0.0,0.0,0.0,0.0,0.0,0.0,0.0,0.0,0.0,0.0,0.0,0.0,0.0,0.0,0.0,0.0,0.0,0.0,0.0,0.0,0.0,0.0,0.0,0.0,0.0,0.0,0.0,0.0,0.0,0.0,0.0,0.0,0.0,0.0,0.0,0.0,0.0,0.0,0.0,0.0,0.0,0.0,0.0,0.0,0.0,0.0,0.0,0.0,0.0,0.0,0.0,0.0,0.0,0.0,0.0,0.0,0.0,0.0,0.0,0.0,0.0,0.0,0.0,0.0,0.0,0.0,0.0,0.0,0.0,0.0,0.0,0.0,0.0,0.0,0.0,0.0,0.0,0.0,0.0,0.0,0.0,0.0,0.0,0.0,0.0,0.0,0.0,0.0,0.0,0.0,0.0,0.0,0.0,0.0,0.0,0.0,0.0,0.0,0.0,0.0,0.0,0.0,0.0,0.0,0.0,0.0,0.0,0.0,0.0,0.0,0.0,0.0,0.0,0.0,0.0,0.0,0.0,0.0,0.0,0.0,0.0,0.0,0.0,0.0,0.0,0.0,0.0,0.0,0.0,0.0,0.0,0.0,0.0,0.0,0.0,0.0,0.0,0.0,0.0,0.0,0.0,0.0,0.0,0.0,0.0,0.0,0.0,0.0,0.0,0.0,0.0,0.0,0.0,0.0,0.0,0.0,0.0,0.0,0.0,0.0,0.0,0.0,0.0,0.0,0.0,0.0,0.0,0.0,0.0,0.0,0.0,0.0,0.0,0.0,0.0,0.0,0.0,0.0,0.0,0.0,0.0,0.0,0.0,0.0,0.0,0.0,0.0,0.0,0.0,0.0,0.0,0.0,0.0,0.0,0.0,0.0,0.0,0.0,0.0,0.0,0.0,0.0,0.0,0.0,0.0,0.0,0.0,0.0,0.0,0.0,0.0,0.0,0.0,0.0,0.0,0.0,0.0,0.0,0.0,0.0,0.0,0.0,0.0,0.0,0.0,0.0,0.0,0.0,0.0,0.0,0.0,0.0,0.0,0.0,0.0,0.0,0.0,0.0,0.0,0.0,0.0,0.0,0.0,0.0,0.0,0.0,0.0,0.0,0.0,0.0,0.0,0.0,0.0,0.0,0.0,0.0,0.0,0.0,0.0,0.0,0.0,0.0,0.0,0.0,0.0,0.0,0.0,0.0,0.0,0.0,0.0,0.0,0.0,0.0,0.0,0.0,0.0,0.0,0.0,0.0,0.0,0.0,0.0,0.0,0.0,0.0,0.0,0.0,0.0,0.0,0.0,0.0,0.0,0.0,0.0,0.0,0.0,0.0,0.0,0.0,0.0,0.0,0.0,0.0,0.0,0.0,0.0,0.0,0.0,0.0,0.0,0.0,0.0,0.0,0.0,0.0,0.0,0.0,0.0,0.0,0.0,0.0,0.0,0.0,0.0,0.0,0.0,0.0,0.0,0.0,0.0,0.0,0.0,0.0,0.0,0.0,0.0,0.0,0.0,0.0,0.0,0.0,0.0,0.0,0.0,0.0,0.0,0.0,0.0,0.0,0.0,0.0,0.0,0.0,0.0,0.0,0.0,0.0,0.0,0.0,0.0,0.0,0.0,0.0,0.0,0.0,0.0,0.0,0.0,0.0,0.0,0.0,0.0,0.0,0.0,0.0,0.0,0.0,0.0,0.0,0.0,0.0,0.0,0.0,0.0,0.0,0.0,0.0,0.0,0.0,0.0,0.0,0.0,0.0,0.0,0.0,0.0,0.0,0.0,0.0,0.0,0.0,0.0,0.0,0.0,0.0,0.0,0.0,0.0,0.0,0.0,0.0,0.0,0.0,0.0,0.0,0.0,0.0,0.0,0.0,0.0,0.0,0.0,0.0,0.0,0.0,0.0,0.0,0.6891,0.0,0.0,0.0,0.0,0.0,0.0,0.0,0.0,0.0,0.0,0.0,0.0,0.0,0.0,0.0,0.0,0.0,0.0,0.0,0.0,0.0,0.0,0.0,0.0,0.0,0.0,0.0,0.0,0.0,0.0,0.0,0.0,0.0,0.0,0.0,0.0,0.0,0.0,0.0,0.0,0.0,0.0,0.0,0.0,0.0,0.0,0.0,0.0,0.0,0.0,0.0,0.0,0.0,0.0,0.0,0.0,0.0,0.0,0.0,0.0,0.0,0.0,0.0,0.0,0.0,0.0,0.0,0.0,0.0,0.0,0.0,0.0,0.0,0.0,0.0,0.0,0.0,0.0,0.0,0.0,0.0,0.0,0.0,0.0,0.0,0.0,0.0,0.0,0.0,0.0,0.0,0.0,0.0,0.0,0.0,0.0,0.0,0.0,0.0,0.0,0.0,0.0,0.0,0.0,0.0,0.0,0.0,0.0,0.0,0.0,0.7818,0.776,0.7869,0.7763,0.7443,0.0,0.0,0.0,0.0,0.0,0.0,0.0,0.0,0.0,0.0,0.0,0.0,0.0,0.0,0.0,0.0,0.0,0.0,0.0,0.0,0.0,0.0,0.0,0.0,0.0,0.0,0.0,0.0,0.0,0.0,0.0,0.0,0.0,0.0,0.0,0.0,0.0,0.0,0.0,0.0,0.0,0.0,0.0,0.0,0.0,0.0,0.0,0.0,0.0,0.0,0.0,0.0,0.0,0.0,0.0,0.0,0.0,0.0,0.0,0.0,0.0,0.0,0.0,0.0,0.0,0.0,0.0,0.0,0.0,0.0,0.0,0.0,0.0,0.0,0.0,0.0,0.0,0.0,0.0,0.0,0.0,0.0,0.0,0.0,0.0,0.0,0.0,0.0,0.0,0.0,0.0,0.0,0.0,0.0,0.0,0.0,0.0,0.0,0.0,0.0,0.0,0.0,0.0,0.0,0.0,0.0,0.0,0.0,0.0,0.0,0.0,0.0,0.8275,0.8249,0.8004,0.0,0.0,0.0,0.0,0.0,0.0,0.0,0.0,0.0,0.0,0.0,0.0,0.0,0.0,0.0,0.0,0.0,0.0,0.0,0.0,0.0,0.0,0.0,0.0,0.0,0.0,0.0,0.0,0.0,0.0,0.0,0.0,0.0,0.0,0.0,0.0,0.0,0.0,0.0,0.0,0.0,0.0,0.0,0.0,0.0,0.0,0.0,0.0,0.0,0.0,0.0,0.0,0.0,0.0,0.0,0.0,0.0,0.0,0.0,0.0,0.0,0.0,0.0,0.0,0.0,0.0,0.0,0.0,0.0,0.0,0.0,0.0,0.0,0.0,0.0,0.0,0.0,0.0,0.0,0.0,0.0,0.0,0.0,0.0,0.0,0.0,0.0,0.0,0.0,0.0,0.0,0.0,0.0,0.0,0.0,0.0,0.0,0.0,0.0,0.0,0.0,0.0,0.0,0.0,0.0,0.0,0.0,0.0,0.0,0.0,0.8213,0.8864,0.8847,0.0,0.8088,0.0,0.0,0.0,0.0,0.0,0.0,0.0,0.0,0.0,0.0,0.0,0.0,0.0,0.0,0.0,0.0,0.0,0.0,0.0,0.0,0.0,0.0,0.0,0.0,0.0,0.0,0.0,0.0,0.0,0.0,0.0,0.0,0.0,0.0,0.0,0.0,0.0,0.0,0.0,0.0,0.0,0.0,0.0,0.0,0.0,0.0,0.0,0.0,0.0,0.0,0.0,0.0,0.0,0.0,0.0,0.0,0.0,0.0,0.0,0.0,0.0,0.0,0.0,0.0,0.0,0.0,0.0,0.0,0.0,0.0,0.0,0.0,0.0,0.0,0.0,0.0,0.0,0.0,0.0,0.0,0.0,0.0,0.0,0.0,0.0,0.0,0.0,0.0,0.0,0.0,0.0,0.0,0.0,0.0,0.0,0.0,0.0,0.0,0.0,0.0,0.0,0.0,0.0,0.0,0.0,0.0,0.0,0.0,0.0,0.0,0.8697,0.9001,0.8629,0.8301,0.0,0.0,0.0,0.0,0.0,0.0,0.0,0.0,0.0,0.0,0.0,0.0,0.0,0.0,0.0,0.0,0.0,0.0,0.0,0.0,0.0,0.0,0.0,0.0,0.0,0.0,0.0,0.0,0.0,0.0,0.0,0.0,0.0,0.0,0.0,0.0,0.0,0.0,0.0,0.0,0.0,0.0,0.0,0.0,0.0,0.0,0.0,0.0,0.0,0.0,0.0,0.0,0.0,0.0,0.0,0.0,0.0,0.0,0.0,0.0,0.0,0.0,0.0,0.0,0.0,0.0,0.0,0.0,0.0,0.0,0.0,0.0,0.0,0.0,0.0,0.0,0.0,0.0,0.0,0.0,0.0,0.0,0.0,0.0,0.0,0.0,0.0,0.0,0.0,0.0,0.0,0.0,0.0,0.0,0.0,0.0,0.0,0.0,0.0,0.0,0.0,0.0,0.0,0.0,0.0,0.0,0.0,0.0,0.0,0.0,0.8849,0.91,0.9261,0.8881,0.8395,0.7847,0.0,0.0,0.0,0.0,0.0,0.0,0.0,0.0,0.0,0.0,0.0,0.0,0.0,0.0,0.0,0.0,0.0,0.0,0.0,0.0,0.0,0.0,0.0,0.0,0.0,0.0,0.0,0.0,0.0,0.0,0.0,0.0,0.0,0.0,0.0,0.0,0.0,0.0,0.0,0.0,0.0,0.0,0.0,0.0,0.0,0.0,0.0,0.0,0.0,0.0,0.0,0.0,0.0,0.0,0.0,0.0,0.0,0.0,0.0,0.0,0.0,0.0,0.0,0.0,0.0,0.0,0.0,0.0,0.0,0.0,0.0,0.0,0.0,0.0,0.0,0.0,0.0,0.0,0.0,0.0,0.0,0.0,0.0,0.0,0.0,0.0,0.0,0.0,0.0,0.0,0.0,0.0,0.0,0.0,0.0,0.0,0.0,0.0,0.0,0.0,0.0,0.0,0.0,0.0,0.0,0.0,0.0,0.0,0.9879,0.933,0.9345,1.0018,1.0011,0.9111,0.0,0.0,0.0,0.0,0.0,0.0,0.0,0.0,0.0,0.0,0.0,0.0,0.0,0.0,0.0,0.0,0.0,0.0,0.0,0.0,0.0,0.0,0.0,0.0,0.0,0.0,0.0,0.0,0.0,0.0,0.0,0.0,0.0,0.0,0.0,0.0,0.0,0.0,0.0,0.0,0.0,0.0,0.0,0.0,0.0,0.0,0.0,0.0,0.0,0.0,0.0,0.0,0.0,0.0,0.0,0.0,0.0,0.0,0.0,0.0,0.0,0.0,0.0,0.0,0.0,0.0,0.0,0.0,0.0,0.0,0.0,0.0,0.0,0.0,0.0,0.0,0.0,0.0,0.0,0.0,0.0,0.0,0.0,0.0,0.0,0.0,0.0,0.0,0.0,0.0,0.0,0.0,0.0,0.0,0.0,0.0,0.0,0.0,0.0,0.0,0.0,0.0,0.0,0.0,0.0,0.0,0.0,0.0,0.0,0.8849,0.8981,0.9602,1.0617,0.9096,0.8032,0.0,0.0,0.0,0.0,0.0,0.0,0.0,0.0,0.0,0.0,0.0,0.0,0.0,0.0,0.0,0.0,0.0,0.0,0.0,0.0,0.0,0.0,0.0,0.0,0.0,0.0,0.0,0.0,0.0,0.0,0.0,0.0,0.0,0.0,0.0,0.0,0.0,0.0,0.0,0.0,0.0,0.0,0.0,0.0,0.0,0.0,0.0,0.0,0.0,0.0,0.0,0.0,0.0,0.0,0.0,0.0,0.0,0.0,0.0,0.0,0.0,0.0,0.0,0.0,0.0,0.0,0.0,0.0,0.0,0.0,0.0,0.0,0.0,0.0,0.0,0.0,0.0,0.0,0.0,0.0,0.0,0.0,0.0,0.0,0.0,0.0,0.0,0.0,0.0,0.0,0.0,0.0,0.0,0.0,0.0,0.0,0.0,0.0,0.0,0.0,0.0,0.0,0.0,0.0,0.0,0.0,0.0,0.0,0.0,0.881,0.0,1.0081,1.0672,0.8819,0.7662,0.0,0.0,0.0,0.0,0.0,0.0,0.0,0.0,0.0,0.0,0.0,0.0,0.0,0.0,0.0,0.0,0.0,0.0,0.0,0.0,0.0,0.0,0.0,0.0,0.0,0.0,0.0,0.0,0.0,0.0,0.0,0.0,0.0,0.0,0.0,0.0,0.0,0.0,0.0,0.0,0.0,0.0,0.0,0.0,0.0,0.0,0.0,0.0,0.0,0.0,0.0,0.0,0.0,0.0,0.0,0.0,0.0,0.0,0.0,0.0,0.0,0.0,0.0,0.0,0.0,0.0,0.0,0.0,0.0,0.0,0.0,0.0,0.0,0.0,0.0,0.0,0.0,0.0,0.0,0.0,0.0,0.0,0.0,0.0,0.0,0.0,0.0,0.0,0.0,0.0,0.0,0.0,0.0,0.0,0.0,0.0,0.0,0.0,0.0,0.0,0.0,0.0,0.0,0.0,0.0,0.0,0.0,0.0,0.8833,1.0028,1.0687,1.0734,1.0158,0.9427,0.8142,0.0,0.0,0.0,0.0,0.0,0.0,0.0,0.0,0.0,0.0,0.0,0.0,0.0,0.0,0.0,0.0,0.0,0.0,0.0,0.0,0.0,0.0,0.0,0.0,0.0,0.0,0.0,0.0,0.0,0.0,0.0,0.0,0.0,0.0,0.0,0.0,0.0,0.0,0.0,0.0,0.0,0.0,0.0,0.0,0.0,0.0,0.0,0.0,0.0,0.0,0.0,0.0,0.0,0.0,0.0,0.0,0.0,0.0,0.0,0.0,0.0,0.0,0.0,0.0,0.0,0.0,0.0,0.0,0.0,0.0,0.0,0.0,0.0,0.0,0.0,0.0,0.0,0.0,0.0,0.0,0.0,0.0,0.0,0.0,0.0,0.0,0.0,0.0,0.0,0.0,0.0,0.0,0.0,0.0,0.0,0.0,0.0,0.0,0.0,0.0,0.0,0.0,0.0,0.0,0.0,0.0,0.0,0.0,0.0,0.9435,1.0023,1.0727,1.142,0.9608,0.8684,0.0,0.0,0.0,0.0,0.0,0.0,0.0,0.0,0.0,0.0,0.0,0.0,0.0,0.0,0.0,0.0,0.0,0.0,0.0,0.0,0.0,0.0,0.0,0.0,0.0,0.0,0.0,0.0,0.0,0.0,0.0,0.0,0.0,0.0,0.0,0.0,0.0,0.0,0.0,0.0,0.0,0.0,0.0,0.0,0.0,0.0,0.0,0.0,0.0,0.0,0.0,0.0,0.0,0.0,0.0,0.0,0.0,0.0,0.0,0.0,0.0,0.0,0.0,0.0,0.0,0.0,0.0,0.0,0.0,0.0,0.0,0.0,0.0,0.0,0.0,0.0,0.0,0.0,0.0,0.0,0.0,0.0,0.0,0.0,0.0,0.0,0.0,0.0,0.0,0.0,0.0,0.0,0.0,0.0,0.0,0.0,0.0,0.0,0.0,0.0,0.0,0.0,0.0,0.0,0.0,0.0,0.0,0.0,0.0,1.0513,1.0906,1.1444,1.2096,1.0105,0.9139,0.9375,0.0,0.0,0.0,0.0,0.0,0.0,0.0,0.0,0.0,0.0,0.0,0.0,0.0,0.0,0.0,0.0,0.0,0.0,0.0,0.0,0.0,0.0,0.0,0.0,0.0,0.0,0.0,0.0,0.0,0.0,0.0,0.0,0.0,0.0,0.0,0.0,0.0,0.0,0.0,0.0,0.0,0.0,0.0,0.0,0.0,0.0,0.0,0.0,0.0,0.0,0.0,0.0,0.0,0.0,0.0,0.0,0.0,0.0,0.0,0.0,0.0,0.0,0.0,0.0,0.0,0.0,0.0,0.0,0.0,0.0,0.0,0.0,0.0,0.0,0.0,0.0,0.0,0.0,0.0,0.0,0.0,0.0,0.0,0.0,0.0,0.0,0.0,0.0,0.0,0.0,0.0,0.0,0.0,0.0,0.0,0.0,0.0,0.0,0.0,0.0,0.0,0.0,0.0,0.0,0.0,0.0,0.0,0.0,1.2894,1.3076,1.2883,1.2275,1.0986,0.9653,0.0,0.0,0.0,0.0,0.0,0.0,0.0,0.0,0.0,0.0,0.0,0.0,0.0,0.0,0.0,0.0,0.0,0.0,0.0,0.0,0.0,0.0,0.0,0.0,0.0,0.0,0.0,0.0,0.0,0.0,0.0,0.0,0.0,0.0,0.0,0.0,0.0,0.0,0.0,0.0,0.0,0.0,0.0,0.0,0.0,0.0,0.0,0.0,0.0,0.0,0.0,0.0,0.0,0.0,0.0,0.0,0.0,0.0,0.0,0.0,0.0,0.0,0.0,0.0,0.0,0.0,0.0,0.0,0.0,0.0,0.0,0.0,0.0,0.0,0.0,0.0,0.0,0.0,0.0,0.0,0.0,0.0,0.0,0.0,0.0,0.0,0.0,0.0,0.0,0.0,0.0,0.0,0.0,0.0,0.0,0.0,0.0,0.0,0.0,0.0,0.0,0.0,0.0,0.0,0.0,0.0,0.0,0.0,0.0,1.2889,1.4322,1.5041,1.4892,1.2633,1.1349,0.0,0.0,0.0,0.0,0.0,0.0,0.0,0.0,0.0,0.0,0.0,0.0,0.0,0.0,0.0,0.0,0.0,0.0,0.0,0.0,0.0,0.0,0.0,0.0,0.0,0.0,0.0,0.0,0.0,0.0,0.0,0.0,0.0,0.0,0.0,0.0,0.0,0.0,0.0,0.0,0.0,0.0,0.0,0.0,0.0,0.0,0.0,0.0,0.0,0.0,0.0,0.0,0.0,0.0,0.0,0.0,0.0,0.0,0.0,0.0,0.0,0.0,0.0,0.0,0.0,0.0,0.0,0.0,0.0,0.0,0.0,0.0,0.0,0.0,0.0,0.0,0.0,0.0,0.0,0.0,0.0,0.0,0.0,0.0,0.0,0.0,0.0,0.0,0.0,0.0,0.0,0.0,0.0,0.0,0.0,0.0,0.0,0.0,0.0,0.0,0.0,0.0,0.0,0.0,0.0,0.0,0.0,0.0,1.3097,1.4887,1.6435,1.735,1.7588,1.5125,1.3145,0.0,0.0,0.0,0.0,0.0,0.0,0.0,0.0,0.0,0.0,0.0,0.0,0.0,0.0,0.0,0.0,0.0,0.0,0.0,0.0,0.0,0.0,0.0,0.0,0.0,0.0,0.0,0.0,0.0,0.0,0.0,0.0,0.0,0.0,0.0,0.0,0.0,0.0,0.0,0.0,0.0,0.0,0.0,0.0,0.0,0.0,0.0,0.0,0.0,0.0,0.0,0.0,0.0,0.0,0.0,0.0,0.0,0.0,0.0,0.0,0.0,0.0,0.0,0.0,0.0,0.0,0.0,0.0,0.0,0.0,0.0,0.0,0.0,0.0,0.0,0.0,0.0,0.0,0.0,0.0,0.0,0.0,0.0,0.0,0.0,0.0,0.0,0.0,0.0,0.0,0.0,0.0,0.0,0.0,0.0,0.0,0.0,0.0,0.0,0.0,0.0,0.0,0.0,0.0,0.0,0.0,0.0,0.0,1.4978,1.7543,1.8658,1.9415,1.9719,1.7648,1.484,0.0,0.0,0.0,0.0,0.0,0.0,0.0,0.0,0.0,0.0,0.0,0.0,0.0,0.0,0.0,0.0,0.0,0.0,0.0,0.0,0.0,0.0,0.0,0.0,0.0,0.0,0.0,0.0,0.0,0.0,0.0,0.0,0.0,0.0,0.0,0.0,0.0,0.0,0.0,0.0,0.0,0.0,0.0,0.0,0.0,0.0,0.0,0.0,0.0,0.0,0.0,0.0,0.0,0.0,0.0,0.0,0.0,0.0,0.0,0.0,0.0,0.0,0.0,0.0,0.0,0.0,0.0,0.0,0.0,0.0,0.0,0.0,0.0,0.0,0.0,0.0,0.0,0.0,0.0,0.0,0.0,0.0,0.0,0.0,0.0,0.0,0.0,0.0,0.0,0.0,0.0,0.0,0.0,0.0,0.0,0.0,0.0,0.0,0.0,0.0,0.0,0.0,0.0,0.0,0.0,0.0,0.0,0.0,1.5201,1.6902,1.8565,1.9531,1.9782,1.7591,1.5407,0.0,0.0,0.0,0.0,0.0,0.0,0.0,0.0,0.0,0.0,0.0,0.0,0.0,0.0,0.0,0.0,0.0,0.0,0.0,0.0,0.0,0.0,0.0,0.0,0.0,0.0,0.0,0.0,0.0,0.0,0.0,0.0,0.0,0.0,0.0,0.0,0.0,0.0,0.0,0.0,0.0,0.0,0.0,0.0,0.0,0.0,0.0,0.0,0.9422,0.0,0.0,0.0,0.0,0.0,0.0,0.0,0.0,0.0,0.0,0.0,0.0,0.0,0.0,0.0,0.0,0.0,0.0,0.0,0.0,0.0,0.0,0.0,0.0,0.0,0.0,0.0,0.0,0.0,0.0,0.0,0.0,0.0,0.0,0.0,0.0,0.0,0.0,0.0,0.0,0.0,0.0,0.0,0.0,0.0,0.0,0.0,0.0,0.0,0.0,0.0,0.0,0.0,0.0,0.0,0.0,0.0,0.0,0.0,1.6293,1.8434,1.9802,2.0572,2.0661,1.889,1.6609,0.0,0.0,0.0,0.0,0.0,0.0,0.0,0.0,0.0,0.0,0.0,0.0,0.0,0.0,0.0,0.0,0.0,0.0,0.0,0.0,0.0,0.0,0.0,0.0,0.0,0.0,0.0,0.0,0.0,0.0,0.0,0.0,0.0,0.0,0.0,0.0,0.0,0.0,0.0,0.0,0.0,0.0,0.0,0.0,0.0,0.0,0.0,0.0,0.0,0.0,0.0,0.0,0.0,0.0,0.0,0.0,0.0,0.0,0.0,0.0,0.0,0.0,0.0,0.0,0.0,0.0,0.0,0.0,0.0,0.0,0.0,0.0,0.0,0.0,0.0,0.0,0.0,0.0,0.0,0.0,0.0,0.0,0.0,0.0,0.0,0.0,0.0,0.0,0.0,0.0,0.0,0.0,0.0,0.0,0.0,0.0,0.0,0.0,0.0,0.0,0.0,0.0,0.0,0.0,0.0,0.0,0.0,1.5394,1.7441,2.0317,2.1182,2.1619,2.169,2.0317,1.7823,1.4168,0.0,0.0,0.0,0.0,0.0,0.0,0.0,0.0,0.0,0.0,0.0,0.0,0.0,0.0,0.0,0.0,0.0,0.0,0.0,0.0,0.0,0.0,0.0,0.0,0.0,0.0,0.0,0.0,0.0,0.0,0.0,0.0,0.0,0.0,0.0,0.0,0.0,0.0,0.7989,0.9081,0.0,0.0,0.0,0.0,0.0,0.0,0.0,0.0,0.9847,0.0,0.0,0.0,0.0,0.0,0.0,0.0,0.0,0.0,0.0,0.0,0.0,0.0,0.0,0.0,0.0,0.0,0.0,0.0,0.0,0.0,0.0,0.0,0.0,0.0,0.0,0.0,0.0,0.0,0.0,0.0,0.0,0.0,0.0,0.0,0.0,0.0,0.0,0.0,0.0,0.0,0.0,0.0,0.0,0.0,0.0,0.0,0.0,0.0,0.0,0.0,0.0,0.0,0.0,0.0,0.0,1.569,1.5849,1.7313,2.0174,2.0967,2.1372,2.1354,2.0105,1.7973,1.4995,0.0,0.0,0.0,0.0,0.0,0.0,0.0,0.0,0.0,0.0,0.0,0.0,0.0,0.0,0.0,0.0,0.0,0.0,0.0,0.0,0.0,0.0,0.0,0.0,0.0,0.0,0.0,0.0,0.0,0.0,0.0,0.0,0.0,0.0,0.0,0.0,0.0,0.0,0.0,1.0005,1.0446,0.0,0.0,0.0,0.0,0.0,0.0,0.0,0.0,1.0103,0.0,0.0,0.0,0.0,0.0,0.0,0.0,0.0,0.0,0.0,0.0,0.0,0.0,0.0,0.0,0.0,0.0,0.0,0.0,0.0,0.0,0.0,0.0,0.0,0.0,0.0,0.0,0.0,0.0,0.0,0.0,0.0,0.0,0.0,0.0,0.0,0.0,0.0,0.0,0.0,0.0,0.0,0.0,0.0,0.0,0.0,0.0,0.0,0.0,0.0,0.0,0.0,0.0,0.0,0.0,1.5133,1.626,1.8014,2.0415,2.0895,2.1151,2.1198,1.926,1.7191,0.0,0.0,0.0,0.0,0.0,0.0,0.0,0.0,0.0,0.0,0.0,0.0,0.0,0.0,0.0,0.0,0.0,0.0,0.0,0.0,0.0,0.0,0.0,0.0,0.0,0.0,0.0,0.0,0.0,0.0,0.0,0.0,0.0,0.0,0.0,0.0,0.0,0.0,0.0,0.0,1.0728,1.1191,1.1541,0.0,0.0,0.0,0.0,0.0,0.0,1.0703,1.0326,0.0,0.0,0.0,0.0,0.0,0.0,0.0,0.0,0.0,0.0,0.0,0.0,0.0,0.0,0.0,0.0,0.0,0.0,0.0,0.0,0.0,0.0,0.0,0.0,0.0,0.0,0.0,0.0,0.0,0.0,0.0,0.0,0.0,0.0,0.0,0.0,0.0,0.0,0.0,0.0,0.0,0.0,0.0,0.0,0.0,0.0,0.0,0.0,0.0,0.0,0.0,0.0,0.0,0.0,0.0,1.4471,1.6402,1.8463,2.0619,2.0828,2.0926,2.1007,1.869,1.6637,0.0,0.0,0.0,0.0,0.0,0.0,0.0,0.0,0.0,0.0,0.0,0.0,0.0,0.0,0.0,0.0,0.0,0.0,0.0,0.0,0.0,0.0,0.0,0.0,0.0,0.0,0.0,0.0,0.0,0.0,0.0,0.0,0.0,0.0,0.0,0.0,0.0,0.0,0.0,0.0,0.0,1.2069,1.2593,1.2668,0.0,0.0,0.0,0.0,1.1989,1.1699,0.0,0.0,0.0,0.0,0.0,0.0,0.0,0.0,0.0,0.0,0.0,0.0,0.0,0.0,0.0,0.0,0.0,0.0,0.0,0.0,0.0,0.0,0.0,0.0,0.0,0.0,0.0,0.0,0.0,0.0,0.0,0.0,0.0,0.0,0.0,0.0,0.0,0.0,0.0,0.0,0.0,0.0,0.0,0.0,0.0,0.0,0.0,0.0,0.0,0.0,0.0,0.0,0.0,0.0,0.0,0.0,1.4424,1.5904,1.7903,2.0388,2.0728,2.0728,2.0579,1.9247,1.7264,0.0,0.0,0.0,0.0,0.0,0.0,0.0,0.0,0.0,0.0,0.0,0.0,0.0,0.0,0.0,0.0,0.0,0.0,0.0,0.0,0.0,0.0,0.0,0.0,0.0,0.0,0.0,0.0,0.0,0.0,0.0,0.0,0.0,0.0,0.0,0.0,0.0,0.0,0.0,0.0,0.0,1.3225,1.3292,1.3249,1.3174,0.0,0.0,1.3973,1.4043,1.4451,0.0,0.0,0.0,0.0,0.0,0.0,0.0,0.0,0.0,0.0,0.0,0.0,0.0,0.0,0.0,0.0,0.0,0.0,0.0,0.0,0.0,0.0,0.0,0.0,0.0,0.0,0.0,0.0,0.0,0.0,0.0,0.0,0.0,0.0,0.0,0.0,0.0,0.0,0.0,0.0,0.0,0.0,0.0,0.0,0.0,0.0,0.0,0.0,0.0,0.0,0.0,0.0,0.0,0.0,0.0,1.2512,1.4386,1.6489,1.8485,2.0314,2.0509,2.0356,1.9882,1.7904,1.5917,0.0,0.0,0.0,0.0,0.0,0.0,0.0,0.0,0.0,0.0,0.0,0.0,0.0,0.0,0.0,0.0,0.0,0.0,0.0,0.0,0.0,0.0,0.0,0.0,0.0,0.0,0.0,0.0,0.0,0.0,0.0,0.0,0.0,0.0,0.0,0.0,0.0,0.0,0.0,0.0,0.0,0.0,1.428,1.4747,0.0,0.0,0.0,1.5462,1.5531,0.0,0.0,0.0,0.0,0.0,0.0,0.0,0.0,0.0,0.0,0.0,0.0,0.0,0.0,0.0,0.0,0.0,0.0,0.0,0.0,0.0,0.0,0.0,0.0,0.0,0.0,0.0,0.0,0.0,0.0,0.0,0.0,0.0,0.0,0.0,0.0,0.0,0.0,0.0,0.0,0.0,0.0,0.0,0.0,0.0,0.0,0.0,0.0,0.0,0.0,0.0,0.0,0.0,0.0,0.0,0.0,0.0,1.4283,1.6954,1.898,2.0258,2.0354,2.0048,1.9367,1.723,0.0,0.0,0.0,0.0,0.0,0.0,0.0,0.0,0.0,0.0,0.0,0.0,0.0,0.0,0.0,0.0,0.0,0.0,0.0,0.0,0.0,0.0,0.0,0.0,0.0,0.0,0.0,0.4729,0.0,0.0,0.0,0.0,0.0,0.0,0.0,0.0,0.0,0.0,0.0,0.0,0.0,0.0,1.4745,1.5209,1.6152,1.6972,0.0,0.0,1.693,1.6819,1.6636,1.5806,0.0,0.0,0.0,0.0,0.0,0.0,0.0,0.0,0.0,0.0,0.0,0.0,0.0,0.0,0.0,0.0,0.0,0.0,0.0,0.0,0.0,0.0,0.0,0.0,0.0,0.0,0.0,0.0,0.0,0.0,0.0,0.0,0.0,0.0,0.0,0.0,0.0,0.0,0.0,0.0,0.0,0.0,0.0,0.0,0.0,0.0,0.0,0.0,0.0,0.0,0.0,0.0,0.0,0.0,1.2855,1.4239,1.6853,1.8884,2.0225,2.0304,1.998,1.9334,1.8454,1.6498,0.0,0.0,0.0,0.0,0.0,0.0,0.0,0.0,0.0,0.0,0.0,0.0,0.0,0.0,0.0,0.0,0.0,0.0,0.0,0.0,0.0,0.0,0.0,0.0,0.0,0.0,0.0,0.0,0.0,0.0,0.0,0.0,0.0,0.0,0.0,0.0,0.0,0.0,0.0,0.0,0.0,1.5292,1.594,1.7105,1.779,0.0,1.8216,1.8594,1.8003,1.8884,1.8399,1.4567,0.0,0.0,0.0,0.0,0.0,0.0,0.0,0.0,0.0,0.0,0.0,0.0,0.0,0.0,0.0,0.0,0.0,0.0,0.0,0.0,0.0,0.0,0.0,0.0,0.0,0.0,0.0,0.0,0.8089,0.0,0.0,0.0,0.0,0.0,0.0,0.0,0.0,0.0,0.0,0.0,0.0,0.0,0.0,0.0,0.0,0.0,0.0,0.0,0.0,0.0,0.0,0.0,0.0,1.2799,1.4154,1.6738,1.8753,2.0052,2.0096,1.9808,1.9136,1.8083,1.6336,0.0,0.0,0.0,0.0,0.0,0.0,0.0,0.0,0.0,0.0,0.0,0.0,0.0,0.0,0.0,0.0,0.0,0.0,0.0,0.0,0.0,0.0,0.0,0.0,0.0,0.0,0.0,0.0,0.6896,0.7356,0.7758,0.0,0.0,0.0,0.0,0.0,0.0,0.0,0.0,0.0,0.0,1.6633,1.744,1.8168,0.0,0.0,1.8972,1.9064,1.9216,1.8973,1.8108,1.6151,1.5165,0.0,0.0,0.0,0.0,0.0,0.0,0.0,0.0,0.0,0.0,0.0,0.0,0.0,0.0,0.0,0.0,0.0,0.0,0.0,0.0,0.0,0.0,0.0,0.0,0.0,0.0,0.0,0.7851,0.0,0.0,0.0,0.0,0.0,0.0,0.0,0.0,0.0,0.0,0.0,0.0,0.0,0.0,0.0,0.0,0.0,0.0,0.0,0.0,0.0,0.0,0.0,0.0,1.2726,1.4069,1.665,1.8654,1.996,2.0005,1.9687,1.9004,1.7959,1.6404,0.0,0.0,0.0,0.0,0.0,0.0,0.0,0.0,0.0,0.0,0.0,0.0,0.0,0.0,0.0,0.0,0.0,0.0,0.0,0.0,0.0,0.0,0.0,0.0,0.0,0.0,0.0,0.0,0.7329,0.7613,0.8073,0.0,0.0,0.0,0.0,0.0,0.0,0.0,0.0,0.0,0.0,1.7682,1.8718,1.9051,1.9373,1.9788,1.9491,1.9373,1.9826,1.9116,1.8224,1.7378,0.0,0.0,0.0,0.0,0.0,0.0,0.0,0.0,0.0,0.0,0.0,0.0,0.0,0.0,0.0,0.0,0.0,0.0,0.0,0.0,0.0,0.0,0.0,0.0,0.0,0.0,0.0,0.8235,0.0,0.0,0.8243,0.0,0.0,0.0,0.0,0.0,0.0,0.0,0.0,0.0,0.0,0.0,0.0,0.0,0.0,0.0,0.0,0.0,0.0,0.0,0.0,0.0,0.0,1.2685,1.4019,1.6666,1.8638,1.9942,2.0005,1.9702,1.9032,1.8335,1.7,1.4928,0.0,0.0,0.0,0.0,0.0,0.0,0.0,0.0,0.0,0.0,0.0,0.0,0.0,0.0,0.0,0.0,0.0,0.0,0.0,0.0,0.0,0.0,0.0,0.0,0.0,0.0,0.7138,0.7638,0.7984,0.0,0.0,0.0,0.0,0.0,0.0,0.0,0.0,0.0,1.6383,1.7344,1.8243,1.9468,1.9696,1.9663,1.9708,1.9693,1.9678,1.9693,1.9663,1.9246,0.0,0.0,0.0,0.0,0.0,0.0,0.0,0.0,0.0,0.0,0.0,0.0,0.0,0.0,0.0,0.0,0.0,0.0,0.0,0.0,0.0,0.0,0.0,0.0,0.0,0.0,0.0,1.104,1.065,0.0,0.0,0.0,0.0,0.0,0.0,0.0,0.0,0.0,0.0,0.0,1.4821,1.5368,0.0,0.0,0.0,0.0,0.0,0.0,0.0,0.0,0.0,0.0,0.0,0.0,1.313,1.4511,1.7056,1.8837,1.9708,1.9777,1.9692,1.9449,1.8869,1.7392,1.4975,0.0,0.0,0.0,0.0,0.0,0.0,0.0,0.0,0.0,0.0,0.0,0.0,0.0,0.0,0.0,0.0,0.0,0.0,0.0,0.0,0.0,0.0,0.0,0.0,0.0,0.7754,0.0,0.0,0.0,0.0,0.0,0.0,0.0,0.0,0.0,0.0,1.4274,1.5382,1.7051,1.7805,1.8515,1.9372,1.9505,1.949,0.0,0.0,0.0,0.0,0.0,0.0,0.0,0.0,0.0,0.0,0.0,0.0,0.0,0.0,1.9582,1.6044,1.5008,1.4731,1.4918,0.0,0.0,0.0,0.0,0.0,0.0,0.0,0.0,0.0,0.0,0.0,0.0,0.0,0.0,1.2897,1.266,1.2104,0.0,0.0,0.0,0.0,0.0,0.0,0.0,0.0,1.5787,1.6679,1.6679,1.7474,1.7143,1.5949,1.6125,1.4709,0.0,0.0,0.0,0.0,0.0,0.0,0.0,0.0,1.3668,1.5017,1.7329,1.8853,1.9493,1.9563,1.9614,1.9599,1.8976,1.7549,1.5213,1.372,1.2237,0.0,0.0,0.0,0.0,0.0,0.0,0.0,0.0,0.0,0.0,0.0,0.0,0.0,0.0,0.0,0.0,0.0,0.0,0.0,0.0,0.0,0.0,0.0,0.8005,0.0,0.0,0.0,0.0,0.0,0.0,0.0,0.0,0.0,1.4761,1.5683,1.6855,1.8315,1.865,1.9056,1.9954,0.0,0.0,0.0,0.0,0.0,0.0,0.0,1.9513,1.9428,1.9446,1.9409,1.9259,2.0621,2.1824,2.2109,0.0,0.0,1.8818,1.7769,1.7506,1.7803,1.8409,1.8831,1.8684,1.9538,2.0176,0.0,0.0,0.0,0.0,1.341,0.0,0.0,0.0,1.3387,1.3811,0.0,1.3883,0.0,0.0,0.0,0.0,1.2934,1.533,0.0,0.0,1.882,1.9708,1.8599,1.9748,1.9681,1.8475,1.8976,1.7963,1.5534,1.3676,1.2382,0.0,0.0,0.0,0.0,0.0,1.4298,1.5581,1.7466,1.8732,1.938,1.9409,1.9409,1.938,1.875,1.7543,1.5773,1.5089,1.3893,1.2062,1.0158,0.0,0.0,0.0,0.0,0.0,0.0,0.0,0.0,0.0,0.0,0.0,0.0,0.0,0.0,0.0,0.0,0.0,0.0,0.0,0.0,0.7979,0.0,0.0,0.0,0.0,0.0,0.0,0.0,0.0,0.0,1.6332,1.5906,1.6789,1.8217,2.0135,0.0,0.0,0.0,0.0,2.0637,2.1186,2.1269,2.1254,2.1254,2.1274,2.1274,2.1239,0.0,0.0,2.0941,2.1758,2.2391,2.209,2.288,2.3458,2.3361,2.2053,2.1439,2.2231,2.1871,2.1868,2.2647,2.2915,2.3391,1.8112,0.0,0.0,0.0,0.0,1.6562,1.7075,1.8223,1.781,1.7245,1.6584,1.5997,0.0,0.0,0.0,0.0,0.0,0.0,1.7597,1.7726,1.9248,2.0004,2.0045,2.0587,2.0619,2.0229,1.9982,1.9492,1.8713,1.711,1.4717,1.1696,0.0,0.0,0.0,0.0,1.5928,1.6822,1.8294,1.9134,1.9306,1.9391,1.9409,1.9409,1.8747,1.8145,1.7602,1.6554,1.5286,1.3808,1.2363,0.0,0.0,0.0,0.0,0.0,0.0,0.0,0.0,0.0,0.0,0.0,0.0,0.0,0.0,0.0,0.0,0.0,0.0,0.0,0.8598,0.8573,0.9108,0.0,0.0,0.0,0.0,0.0,0.0,0.0,0.0,0.0,1.8775,1.9185,1.9748,0.0,0.0,2.0682,2.1027,2.0925,2.0887,2.1056,2.1085,0.0,2.1085,2.1161,2.1196,2.1105,2.1478,2.2083,2.2934,2.3315,2.3656,2.4023,2.4354,2.4538,2.4493,2.3572,2.2909,2.3091,2.2993,2.2929,2.3191,2.3385,2.3497,2.1012,1.9549,1.8865,1.9037,1.9705,1.9315,1.9634,2.0412,2.0108,1.958,1.8882,1.8299,1.7455,1.6393,1.5725,0.0,0.0,0.0,1.9027,1.9221,1.9998,2.0415,2.0585,2.0919,2.094,2.0718,2.0339,2.0182,2.0167,1.9237,1.7164,1.4041,0.0,1.4198,1.4021,1.5672,1.6903,1.7658,1.8684,1.9213,1.9228,1.9265,1.9284,1.9269,1.8874,1.8587,1.8373,1.7636,1.6491,1.4948,1.3902,1.2128,0.0,0.0,0.0,0.0,0.0,0.0,0.0,0.0,0.0,0.0,0.0,0.6862,0.5393,0.0,0.0,0.0,0.8447,0.9588,0.9988,1.0397,0.0,0.0,0.0,0.0,0.0,0.0,0.0,1.7727,1.871,1.9696,2.0764,2.1129,2.1312,2.1386,2.1162,2.1191,2.1678,0.0,2.1569,2.2062,2.2149,2.2258,2.2497,2.2585,2.2535,2.22,2.2352,2.2868,2.3785,2.4109,2.438,2.4846,2.5005,2.5005,2.5005,2.4461,2.4053,2.4126,2.4142,2.4178,2.4234,2.4215,2.416,2.291,2.2831,2.2094,2.1713,2.1607,2.1632,2.1295,2.0748,2.0996,2.1047,2.0992,2.0609,2.0432,2.0348,1.9817,0.0,1.9587,2.0216,2.0482,2.0474,2.0991,2.0943,2.0454,2.103,2.1002,2.0477,2.0399,2.0371,2.0371,2.0315,1.9404,1.7716,1.6522,1.5955,1.608,1.6693,1.7423,1.822,1.877,1.9049,1.9082,1.9082,1.9068,1.9101,1.9116,1.8833,1.834,1.8282,1.7453,1.5654,1.4919,1.3759,1.195,0.0,0.0,0.0,0.0,0.0,0.0,0.0,0.0,0.0,0.0,0.0,0.0,0.0,0.0,0.0,1.0742,0.0,1.1903,1.2964,0.0,0.0,0.0,1.5345,1.6552,1.7699,1.8906,2.0103,0.0,0.0,2.2062,2.2678,2.283,2.225,2.1663,2.1692,2.2844,2.2518,2.2598,2.3673,2.392,2.4128,2.453,2.4621,2.4404,2.3943,2.3723,2.3754,2.4167,2.4501,2.4787,2.5194,2.5159,2.5207,2.5175,2.5227,2.5219,2.5396,2.5371,2.5413,2.5599,2.5551,2.5435,2.3793,2.3767,2.3604,2.3163,2.2665,2.2755,2.2726,2.2564,2.2615,2.2408,2.1969,2.1896,2.1568,2.1168,2.1659,2.1787,2.1609,2.1963,2.2007,2.1824,2.17,2.1587,2.1472,2.1797,2.1889,2.1721,2.1226,2.098,2.0952,2.0365,1.9855,1.9405,1.894,1.795,1.6554,1.7557,1.8228,1.8422,1.8568,1.8721,1.886,1.886,1.895,1.9101,1.9116,1.8829,1.8234,1.8219,1.7539,1.61,1.546,1.4907,1.4412,1.1702,0.0,0.0,0.0,0.0,0.0,0.0,0.0,0.0,0.0,1.0455,0.7812,0.0,1.0867,0.0,1.1483,1.4361,1.3875,1.4496,0.0,0.0,1.7666,1.8553,1.9745,2.0166,2.064,2.1452,2.2084,2.2707,2.3368,2.4007,2.4283,2.388,2.3674,2.3645,2.3864,2.3673,2.3672,2.4048,2.4221,2.4416,2.4829,2.4839,2.4781,2.4607,2.4761,2.5068,2.5478,2.5797,2.614,2.6514,2.6593,2.6609,2.6562,2.6593,2.6614,2.6625,2.6213,2.6027,2.6613,2.6682,2.6677,2.4125,2.4125,2.4157,2.3936,2.3564,2.3659,2.3621,2.3501,2.3528,2.3203,2.27,2.27,2.251,2.2239,2.2704,2.2854,2.2712,2.2865,2.284,2.2698,2.2513,2.2273,2.2037,2.2183,2.2118,2.1817,2.1462,2.131,2.1259,2.085,2.0493,2.0233,2.0112,1.9353,1.8072,1.876,1.9084,1.8885,1.8624,1.8542,1.8664,1.8664,1.876,1.8955,1.8874,1.8639,1.8198,1.8097,1.7459,1.6269,1.5879,1.5589,1.5269,1.3114,1.1428,0.0,0.0,0.0,0.0,0.0,0.0,0.0,0.0,0.0,0.0,0.0,1.3207,1.0412,1.4891,1.758,1.6676,1.7388,1.8313,1.9332,1.9783,2.0491,2.1728,2.1859,2.22,2.3128,2.3548,2.3835,2.4101,2.4721,2.4984,2.4663,2.4803,2.469,2.4209,2.4138,2.424,2.4497,2.4582,2.4802,2.5266,2.5182,2.5045,2.5091,2.5253,2.5546,2.5925,2.6266,2.6638,2.7013,2.7093,2.7093,2.7093,2.7093,2.7178,2.7415,2.7225,2.702,2.7062,2.7093,2.7093,2.4305,2.4334,2.4455,2.4487,2.4487,2.4487,2.4304,2.3984,2.3998,2.3757,2.3392,2.3419,2.3379,2.3392,2.3379,2.3419,2.3419,2.3337,2.3297,2.3323,2.3242,2.2917,2.2427,2.2414,2.209,2.1521,2.1507,2.148,2.1385,2.1385,2.1128,2.064,2.0613,2.0382,1.9944,2.0091,1.9903,1.9342,1.8797,1.8523,1.8459,1.8459,1.8542,1.8741,1.862,1.8371,1.8043,1.7931,1.734,1.6298,1.6285,1.6082,1.5472,1.4311,1.3681,0.0,1.2546,0.0,0.0,0.0,0.0,0.0,0.0,0.0,0.0,1.4758,1.5125,1.5828,1.9139,2.0747,1.9555,2.052,2.1235,2.1249,2.1394,2.196,2.3026,2.3111,2.3508,2.4606,2.4833,2.4778,2.453,2.5086,2.5381,2.508,2.5297,2.516,2.4377,2.4359,2.4608,2.4941,2.5024,2.5246,2.568,2.5641,2.546,2.5454,2.5641,2.5744,2.6149,2.6589,2.695,2.7284,2.7419,2.7409,2.7346,2.7377,2.7567,2.811,2.8189,2.8015,2.7604,2.7472,2.7367,2.533,2.5497,2.5515,2.5515,2.5515,2.5515,2.5107,2.4475,2.4475,2.4408,2.4343,2.4442,2.4414,2.4343,2.4455,2.4512,2.4485,2.3985,2.3852,2.3906,2.3405,2.3121,2.3039,2.3039,2.2713,2.2169,2.2142,2.186,2.1399,2.1385,2.1345,2.1223,2.1223,2.1169,2.1074,0.0,0.0,0.0,1.8802,1.8563,1.827,1.8262,1.8361,1.8562,1.8683,0.0,1.7233,1.7787,1.7525,1.6298,1.6721,0.0,0.0,0.0,0.0,0.0,0.0,0.0,0.0,0.0,0.0,0.0,1.5939,1.5866,1.533,1.6115,1.7158,1.8353,2.0924,2.2026,2.0805,2.1801,2.2526,2.2577,2.3514,2.4268,2.45,2.4293,2.4247,2.4447,2.4948,2.516,2.4916,2.5568,2.5898,2.5424,2.5646,2.5536,2.4874,2.4847,2.5053,2.5411,2.5519,2.5698,2.5879,2.5808,2.575,2.5871,2.6471,2.6886,2.7041,2.7784,2.8358,2.8451,2.8613,2.8642,2.8558,2.8635,2.8649,2.8877,2.8893,2.8877,2.8751,2.8719,2.8735,2.5686,2.578,2.578,2.578,0.0,2.578,2.5546,2.5193,2.4975,2.4758,2.4591,2.4677,2.4692,2.4706,2.4778,2.4835,2.4878,2.4538,2.4418,2.4516,2.4163,2.3879,2.3649,2.3649,2.3337,2.2754,2.2766,2.2429,2.186,2.1857,2.1708,2.1385,2.1385,2.1385,2.1385,2.1385,2.0803,1.9646,1.9084,1.8699,1.8515,1.8214,1.8163,1.8341,1.8366,0.0,0.0,0.0,0.0,0.0,0.0,0.0,0.0,0.0,0.0,1.7161,1.6364,1.5825,1.5854,1.6391,1.6986,1.7638,1.855,1.8699,1.7786,1.8553,1.9478,2.0465,2.2302,2.3173,2.2562,2.3172,2.3697,2.3858,2.4312,2.4768,2.506,2.5002,2.4964,2.5145,2.5548,2.5682,2.5268,2.556,2.5715,2.5328,2.5355,2.5342,2.509,2.5131,2.5313,2.5314,2.537,2.5439,2.5481,2.5633,2.5702,2.5771,2.6231,2.6785,2.7246,2.7665,2.8116,2.8621,2.8834,2.8826,2.8842,2.892,2.8951,2.9006,2.9006,2.9013,2.9091,2.9114,2.9114,2.5966,2.6011,2.6074,2.6061,2.6074,2.6093,2.6028,2.591,2.5476,0.0,0.0,2.484,2.4845,2.4838,2.4853,2.4886,2.492,2.482,2.4835,2.4977,2.4892,2.4635,2.4244,2.4231,2.392,2.3338,2.3337,2.3013,2.2456,2.2334,2.2061,2.1589,2.1453,2.1385,2.1385,2.1385,2.1155,2.0654,1.9641,1.9043,1.8934,1.8378,1.8133,1.8308,1.8078,1.7781,1.7446,1.7436,1.7218,1.6796,1.6916,1.7306,1.7906,1.7547,1.7881,1.9126,1.8811,1.8575,1.8695,1.9121,1.9416,1.9517,2.0521,2.0918,2.048,2.0785,2.138,2.2236,2.3435,2.4078,2.399,2.4349,2.4647,2.4797,2.4708,2.4921,2.5405,2.5438,2.5491,2.5795,2.5946,2.5961,2.5453,2.5453,2.5383,2.5103,2.5033,2.5005,2.5047,2.5188,2.5285,2.5103,2.5061,2.5033,2.5075,2.5355,2.5536,2.5619,2.5948,2.6484,2.7067,2.7287,2.767,2.8525,2.8645,2.8645,2.8747,2.8803,2.8811,2.8897,2.8904,2.8982,2.9075,2.9114,2.9114,2.6654,2.6848,2.7002,2.7102,2.7102,2.7222,2.7013,2.6536,2.5973,2.5685,2.5638,2.5761,2.5472,2.4994,2.5071,2.4983,2.4662,2.462,2.475,2.4977,2.4963,2.4879,2.4699,2.4714,2.4389,2.3851,2.3783,2.3555,2.3079,2.2576,2.2264,2.2129,2.1681,2.1385,2.1385,2.1385,2.1358,2.1263,2.0599,2.003,1.9578,1.8989,1.8684,1.8678,1.8357,1.7873,1.7272,1.7943,1.8025,1.7441,1.8078,1.8555,1.8636,1.8739,1.9155,1.9885,1.9885,2.0059,2.0553,2.0514,2.0676,2.1205,2.142,2.1564,2.1707,2.1264,2.1728,2.3412,2.4269,2.4585,2.4414,2.4883,2.5152,2.4984,2.5369,2.5723,2.5779,2.5617,2.5494,2.555,2.5578,2.5508,2.5188,2.5313,2.5355,2.5075,2.5005,2.5005,2.5005,2.5033,2.5061,2.5005,2.5005,2.5005,2.5174,2.5481,2.5811,2.5839,2.6602,2.7159,2.7414,2.772,2.8073,2.8396,2.8468,2.8493,2.8612,2.8771,2.8826,2.8858,2.8943,2.9029,2.9052,2.9091,2.9091,2.7066,2.718,2.7335,2.739,2.7436,2.7469,2.7346,2.7118,2.687,2.6367,2.5837,2.5855,2.5774,2.5555,2.5603,2.5408,2.5042,2.5042,2.4943,2.4791,2.4791,2.4763,2.4706,2.4791,2.4644,2.4388,2.4459,2.4217,2.3703,2.3431,2.3093,2.2768,2.2171,2.1711,2.1412,2.1385,2.1385,2.1385,2.0816,2.0382,2.0139,1.9578,1.9288,1.9266,1.9102,1.8707,1.8105,1.8453,1.8527,1.8212,1.8567,1.8994,1.9418,1.9562,1.9771,2.0179,2.0207,2.0384,2.0801,2.1055,2.1305,2.1604,2.2124,2.2516,2.2793,2.2337,2.2581,2.3835,2.4832,2.5208,2.4727,2.5133,2.5459,2.5472,2.5603,2.5688,2.5674,2.5605,2.5439,2.5285,2.5411,2.5383,2.5033,2.5131,2.5188,2.5005,2.5018,2.5018,2.5032,2.5018,2.5159,2.5425,2.5481,2.5619,2.5851,2.6108,2.631,2.6351,2.6718,2.7144,2.7373,2.7605,2.776,2.8275,2.8411,2.8436,2.8493,2.8549,2.8645,2.8724,2.8771,2.8842,2.8905,2.8959,2.9013,2.7134,2.7167,2.7335,2.7423,2.7503,2.7503,2.7503,2.7503,2.749,2.6994,2.6237,2.6171,2.617,2.6164,2.6164,2.5942,2.5574,2.5538,2.5262,2.4818,2.4807,2.474,2.462,2.4721,2.482,2.4806,2.4892,2.4705,2.4326,2.4164,2.3784,2.3228,2.2713,2.2266,2.1819,2.167,2.1602,2.1562,2.1019,2.0708,2.0694,2.0152,1.9867,1.989,1.9754,1.9469,1.9051,1.9002,1.9002,1.9024,1.9053,1.9365,1.9935,2.0041,2.0206,2.0461,2.0511,2.0625,2.0932,2.1423,2.1808,2.1942,2.2587,2.3224,2.3705,2.3426,2.3488,2.4281,2.5139,2.5465,2.5143,2.53,2.5578,2.5674,2.5495,2.5369,2.5383,2.5383,2.5285,2.5075,2.5257,2.5326,2.5225,2.5208,2.5375,2.5696,2.5641,2.5655,2.577,2.5826,2.6078,2.6423,2.6309,2.6096,2.6587,2.6808,2.686,2.686,2.7056,2.7378,2.7605,2.7378,2.7403,2.8235,2.8411,2.8411,2.8411,2.8444,2.8493,2.8597,2.8684,2.8692,2.8826,2.8928,2.8967,2.6683,2.6794,2.7003,2.7214,2.749,2.7503,2.7503,2.7503,2.7503,2.7464,2.7281,2.732,2.7053,2.668,2.6627,2.6377,2.5977,2.595,2.5725,2.5359,2.5467,2.5186,2.4645,2.4734,2.482,2.482,2.4835,2.4838,2.4842,2.4367,2.3811,2.3243,2.3147,2.3079,2.2957,2.247,2.2224,2.221,2.1616,2.1318,2.1277,2.0735,2.0423,2.0423,1.9971,1.9686,1.9619,1.9619,1.9619,1.9627,1.9776,1.9921,2.0025,2.0199,2.051,2.1064,2.112,2.1276,2.1676,2.2002,2.2372,2.2883,2.2822,2.3367,2.4519,2.427,2.4365,2.5036,2.5148,2.5189,2.5384,2.5467,2.5397,2.5256,2.5186,2.5033,2.5157,2.5047,2.5033,2.5005,2.5239,2.5237,2.5797,2.5951,2.6345,2.7227,2.7312,2.7456,2.7839,2.7951,2.8188,2.85,2.748,2.6427,2.6835,2.7119,2.7433,2.7494,2.79,2.8113,2.8162,2.8186,2.8323,2.8259,2.8411,2.8411,2.842,2.8477,2.8565,2.8565,2.866,2.8779,2.8889,2.8959,2.8982,2.7468,2.7281,2.7545,2.7579,2.7529,2.7503,2.7503,2.7503,2.7503,2.7503,2.7503,2.7503,2.7359,2.717,2.7183,2.6902,2.6429,2.6512,2.6196,2.5682,2.5765,2.5521,2.5034,2.5098,2.5041,2.4833,2.4863,2.4935,2.4964,2.4761,2.434,2.3798,2.373,2.3567,2.3202,2.2957,2.2835,2.2808,2.2226,2.1914,2.1846,2.1345,2.1033,2.1019,2.0816,2.0541,2.022,2.0179,2.0179,2.0166,2.0243,2.0461,2.0817,2.09,2.1056,2.1313,2.1457,2.1805,2.229,2.2429,2.2766,2.3367,2.3485,2.3899,2.4606,2.4664,2.4886,2.5298,2.5176,2.5061,2.5215,2.5188,2.5296,2.5468,2.5534,2.5656,2.602,2.6034,2.6061,2.6077,2.64,2.6716,2.701,2.7341,2.7755,2.8254,2.8354,2.8539,2.8706,2.8691,2.8956,2.9324,2.8678,2.8426,2.8689,2.8314,2.8312,2.8484,2.8455,2.8411,2.8427,2.8411,2.8411,2.8411,2.8411,2.8411,2.8411,2.842,2.8493,2.8493,2.8493,2.8565,2.8581,2.8716,2.8763,2.8244,2.8055,2.8298,2.8157,2.7771,2.7725,2.7633,2.7503,2.7503,2.7503,2.7503,2.7503,2.7503,2.7503,2.7503,2.7288,2.6948,2.7026,2.6692,2.613,2.6172,2.5963,2.5527,2.5638,2.551,2.5187,2.5234,2.5168,2.5032,2.5005,2.4788,2.438,2.4367,2.4123,2.373,2.3554,2.3432,2.3365,2.2849,2.2537,2.2483,2.2104,2.1738,2.144,2.1385,2.1182,2.0775,2.0762,2.0762,2.0748,2.0748,2.0952,2.1358,2.1385,2.1467,2.1654,2.1978,2.2361,2.2814,2.2828,2.3153,2.3785,2.4027,2.4314,2.4737,2.4956,2.527,2.5841,2.5952,2.5965,2.5291,2.5398,2.5697,2.609,2.6278,2.6572,2.6728,2.7051,2.725,2.7157,2.7549,2.8139,2.8339,2.88,2.9246,2.9488,2.9516,2.9569,2.9666,2.9794,2.999,3.0304,3.0238,3.013,3.0334,2.9659,2.9304,2.9279,2.9156,2.875,2.8627,2.8581,2.8411,2.8411,2.8411,2.8411,2.8411,2.8411,2.8411,2.8411,2.842,2.8444,2.8501,2.8589,2.8645,2.8615,2.8938,2.9151,2.8869,2.8347,2.8368,2.8046,2.762,2.7542,2.7516,2.7542,2.7503,2.7503,2.7503,2.7503,2.7477,2.7451,2.7445,2.719,2.6706,2.6795,2.6638,2.6281,2.6407,2.622,2.5828,2.586,2.5588,2.5086,2.5018,2.4991,2.4951,2.4895,2.4895,2.4746,2.4299,2.4055,2.3987,2.3472,2.3161,2.3161,2.3107,2.2524,2.1602,2.1412,2.1412,2.1358,2.1358,2.1345,2.1358,2.1358,2.1399,2.1426,2.1453,2.1711,2.2237,2.2793,2.3133,2.3187,2.3187,2.3577,2.435,2.4354,2.4491,2.5218,2.5133,2.5477,2.668,2.7697,2.7755,2.627,2.6444,2.671,2.6785,2.7339,2.7395,2.6924,2.7932,2.8254,2.8023,2.8426,2.9057,2.9508,3.0045,3.0631,3.1053,3.1315,3.1413,3.1744,3.2002,3.1999,3.1876,3.1593,3.1124,3.0586,3.0125,3.014,3.0212,2.9874,2.9381,2.915,2.8935,2.8642,2.8427,2.8411,2.8411,2.8411,2.8411,2.8411,2.8436,2.8493,2.8517,2.8493,2.866,2.8708,2.9511,2.9468,2.9227,2.906,2.8974,2.8996,2.8843,2.8621,2.8229,2.8072,2.8007,2.7659,2.7503,2.7503,2.7503,2.7503,2.7503,2.7503,2.7485,2.7374,2.7321,2.7117,2.6902,2.6943,2.6716,2.6358,2.6424,2.6172,2.5588,2.5195,2.5005,2.5005,2.5005,2.5005,2.4964,2.4801,2.4693,2.4597,2.4082,2.3784,2.373,2.3405,2.2984,2.2564,2.2158,2.1993,2.1993,2.1602,2.1562,2.1966,2.1993,2.2144,2.251,2.2564,2.2646,2.2863,2.3079,2.3378,2.3703,2.3784,2.4082,2.4764,2.5122,2.5191,2.5189,2.5075,2.5363,2.6477,2.8568,2.8923,2.7712,2.7626,2.7831,2.7543,2.7977,2.8298,2.8171,2.8689,2.9116,2.9114,2.9784,3.0724,3.1127,3.1571,3.1807,3.202,3.2076,3.2176,3.2315,3.2398,3.2398,3.2367,3.2198,3.1967,3.1767,3.0848,3.0474,3.0689,3.0566,3.0197,2.9894,2.9166,2.875,2.8904,2.8796,2.8627,2.8673,2.8442,2.8442,2.8528,2.8561,2.8662,2.8468,2.8859,2.8805,3.0302,3.0138,2.9798,2.9611,2.9575,2.9549,2.9457,2.9248,2.8878,2.8695,2.8629,2.8255,2.7994,2.779,2.7777,2.768,2.7516,2.7503,2.7543,2.7689,2.7556,2.7492,2.7527,2.7493,2.7269,2.6906,2.68,2.6562,2.6212,2.5778,2.5493,2.5317,2.529,2.5181,2.5074,2.5174,2.5286,2.5218,2.5052,2.4872,2.4682,2.4298,2.3958,2.3716,2.3188,2.2768,2.2617,2.2371,2.233,2.2586,2.2768,2.3032,2.3372,2.3792,2.3957,2.3825,2.4151,2.4494,2.4856,2.4939,2.5119,2.5508,2.5892,2.603,2.5855,2.5827,2.6314,2.7611,2.9479,3.044,2.9484,2.9508,2.9435,2.8644,2.8867,2.9235,2.9258,2.9952,3.0407,3.0586,3.1172,3.189,3.2315,3.237,3.237,3.2398,3.2398,3.2398,3.2398,3.2398,3.2398,3.2398,3.2382,3.2336,3.2198,3.1613,3.1289,3.1459,3.1166,3.0859,3.0566,2.972,2.9243,2.9366,2.9304,2.9089,2.8842,2.8581,2.8565,2.8688,2.8858,2.9021,2.9052,2.9181,2.9255,3.0973,3.0934,3.0973,3.0581,3.014,3.01,2.9823,2.9457,2.9349,2.9287,2.9261,2.9209,2.8817,2.8499,2.832,2.8059,2.7633,2.7529,2.7536,2.759,2.7536,2.7723,2.8045,2.8019,2.7927,2.766,2.7091,2.6833,2.6793,2.6674,2.6389,2.5968,2.5887,2.5683,2.5086,2.5577,2.584,2.5881,2.6147,2.6226,2.5947,2.5753,2.5493,2.501,2.4491,2.3985,2.3374,2.374,2.3696,2.3435,2.3821,2.4003,2.4127,2.5006,2.5495,2.5197,2.5949,2.6538,2.6567,2.65,2.6433,2.6575,2.6707,2.7012,2.7243,2.7563,2.8278,2.973,3.1138,3.1862,3.1362,3.15,3.1198,2.9907,3.0002,3.0377,3.0585,3.1551,3.2342,3.2188,3.2287,3.237,3.2398,3.2398,3.2398,3.2398,3.2398,3.2398,3.2398,3.2398,3.2398,3.2398,3.2398,3.2398,3.2398,3.2367,3.2336,3.2259,3.1794,3.1397,3.1366,3.0812,3.032,3.0304,3.0135,2.9904,2.9464,2.9258,2.9156,2.9248,2.9371,2.9525,2.9664,2.9843,3.0063,3.0874,3.0986,3.1024,3.0895,3.0725,3.0725,3.0607,3.0411,3.0059,2.9876,2.9797,2.9444,2.9205,2.897,2.8616,2.8294,2.8085,2.7732,2.7636,2.7848,2.7769,2.7875,2.817,2.8249,2.8298,2.8216,2.7718,2.7434,2.7366,2.7023,2.6687,2.6535,2.6524,2.6443,2.6244,2.605,2.5903,2.5905,2.6049,2.6042,2.5948,2.6256,2.6349,2.6213,2.6318,2.6168,2.5616,2.464,2.4428,2.491,2.5167,2.5296,2.5483,2.6032,2.6436,2.6561,2.6596,2.6704,2.6704,2.6745,2.6785,2.687,2.7494,2.7803,2.7937,2.9119,2.9826,3.0183,3.0904,3.1364,3.097,3.0955,3.0866,3.0254,3.0778,3.097,3.0763,3.132,3.1892,3.2342,3.2398,3.2398,3.2398,3.2398,3.2398,3.2398,3.2398,3.2398,3.2398,3.2398,3.2398,3.2398,3.2398,3.2398,3.2398,3.2398,3.2398,3.2398,3.2105,3.1886,3.1901,3.184,3.1382,3.1012,3.0859,3.0582,3.014,2.9894,2.9787,2.9894,3.0063,3.0202,3.0356,3.0551,3.0788,3.0874,3.0986,3.1024,3.1024,3.1024,3.1024,3.1024,3.0934,3.062,3.0414,3.0372,3.0085,2.9771,2.9549,2.9196,2.8922,2.8708,2.8111,2.7998,2.8213,2.7954,2.7954,2.8216,2.83,2.8398,2.85,2.8143,2.808,2.8322,2.7806,2.7598,2.7815,2.7638,2.7529,2.7499,2.7123,2.6972,2.7202,2.7023,2.6856,2.6893,2.698,2.6912,2.6782,2.703,2.7133,2.6891,2.5919,2.56,2.6087,2.6312,2.6583,2.6898,2.721,2.7469,2.7595,2.7494,2.7352,2.7342,2.7656,2.7709,2.7906,2.8662,2.9252,2.9334,3.0609,3.0855,3.0864,3.1267,3.1523,3.1305,3.1218,3.1189,3.1218,3.132,3.1422,3.1262,3.1566,3.1936,3.2315,3.2398,3.2398,3.2398,3.2398,3.2398,3.2398,3.2398,3.2398,3.2398,3.2398,3.2398,3.2398,3.2398,3.2398,3.2398,3.2398,3.2398,3.2398,3.2351,3.2244,3.2228,3.2213,3.1936,3.1505,3.1259,3.092,3.052,3.0325,3.0233,3.0479,3.0786,3.1012,3.1197,3.132,3.1501,3.1024,3.1024,3.1024,3.1024,3.1024,3.1024,3.1024,3.0986,3.0947,3.0921,3.0934,3.088,3.062,3.0218,2.9983,2.9719,2.9323,2.886,2.8699,2.8724,2.8452,2.8343,2.8457,2.8463,2.8605,2.8798,2.8602,2.8862,2.9406,2.8955,2.9018,2.9405,2.9007,2.8794,2.8757,2.8681,2.8779,2.9051,2.8705,2.8431,2.851,2.8079,2.7556,2.7173,2.7213,2.7451,2.7774,2.7669,2.7331,2.6979,2.7263,2.7695,2.821,2.8372,2.8299,2.8498,2.851,2.8483,2.8639,2.8991,2.9266,2.9343,2.9919,3.0678,3.1056,3.1286,3.1693,3.2032,3.2213,3.2299,3.2272,3.2244,3.2244,3.2272,3.1908,3.1851,3.2287,3.2342,3.2342,3.237,3.2398,3.2398,3.2398,3.2398,3.2398,3.2398,3.2398,3.2398,3.2398,3.2398,3.2398,3.2398,3.2398,3.2398,3.2398,3.2398,3.2398,3.2398,3.2398,3.2398,3.2398,3.2398,3.2382,3.1967,3.1628,3.1274,3.1105,3.1028,3.1059,3.1305,3.1582,3.1855,3.1932,3.1951,3.1951,3.1024,3.1024,3.1024,3.1024,3.1024,3.1024,3.1024,3.1024,3.1024,3.1024,3.1024,3.1024,3.0895,3.0725,3.0283,3.0009,2.9928,2.9894,2.9875,2.9964,3.0016,2.9809,2.9488,2.9085,2.9243,2.9699,2.9685,2.9962,3.0194,2.9995,3.0077,3.0248,3.0116,3.0013,2.9987,2.9595,2.942,2.9573,2.9459,2.9277,2.9384,2.9564,2.9576,2.9457,2.9334,2.9412,2.9628,2.9628,2.9083,2.8075,2.8048,2.821,2.8387,2.8458,2.8849,2.9541,2.9387,2.9356,2.9756,3.0017,3.0125,3.0171,3.0751,3.1197,3.1382,3.1859,3.2167,3.2398,3.2398,3.2398,3.2398,3.2398,3.2398,3.2398,3.2203,3.2176,3.2342,3.2398,3.2398,3.2398,3.2398,3.2398,3.2398,3.2398,3.2398,3.2398,3.2398,3.2398,3.2398,3.2398,3.2398,3.2398,3.2398,3.2398,3.2398,3.2398,3.2398,3.2398,3.2398,3.2398,3.2398,3.2398,3.2398,3.2259,3.209,3.1797,3.1921,3.1982,3.209,3.1967,3.2074,3.2194,3.2256,3.2259,3.2244,3.1024,3.1024,3.1024,3.1024,3.1024,3.1024,3.1024,3.1024,3.1024,3.1024,3.1024,3.1024,3.1024,3.0985,3.0647,3.0674,3.0884,3.0786,3.0897,3.1231,3.1101,3.0722,3.0176,2.9668,2.9808,3.0297,3.0313,3.0524,3.0792,3.0644,3.0778,3.1174,3.1014,3.1058,3.126,3.0718,3.0538,3.0634,3.0338,3.0075,3.0372,3.0352,3.036,3.0386,3.0402,3.0402,3.0386,3.0386,2.9986,2.9387,2.9202,2.9012,2.8519,2.8972,2.9587,3.0356,3.0017,3.0002,3.034,3.0658,3.0828,3.0936,3.1428,3.1736,3.1874,3.2198,3.2398,3.2398,3.2398,3.2398,3.2398,3.2398,3.2398,3.2398,3.2398,3.2398,3.2398,3.2398,3.2398,3.2398,3.2398,3.2398,3.2398,3.2398,3.2398,3.2398,3.2398,3.2398,3.2398,3.2398,3.2398,3.2398,3.2398,3.2398,3.2398,3.2398,3.2398,3.2398,3.2398,3.2398,3.2398,3.2398,3.2398,3.2398,3.2398,3.2398,3.2398,3.2398,3.2336,3.2275,3.2382,3.2398,3.2398,3.2398,3.2398,3.1024,3.1024,3.1024,3.1024,3.1024,3.1024,3.1024,3.1024,3.1024,3.1024,3.1024,3.1024,3.1024,3.1024,3.1119,3.1442,3.2033,3.1809,3.2151,3.2339,3.2248,3.1709,3.1123,3.0528,3.0519,3.0748,3.051,3.094,3.1349,3.1028,3.1334,3.1892,3.1766,3.1879,3.2005,3.1762,3.1892,3.1921,3.1245,3.1028,3.1251,3.1063,3.0878,3.0863,3.0848,3.0817,3.0771,3.0725,3.0632,3.0643,3.0494,2.974,2.8935,2.9848,3.0463,3.0632,3.0648,3.0555,3.0725,3.1274,3.149,3.1597,3.2044,3.2382,3.2336,3.2382,3.2398,3.2398,3.2398,3.2398,3.2398,3.2398,3.2398,3.2398,3.2398,3.2398,3.2398,3.2398,3.2398,3.2398,3.2398,3.2398,3.2398,3.2398,3.2398,3.2398,3.2398,3.2398,3.2398,3.2398,3.2398,3.2398,3.2398,3.2398,3.2398,3.2398,3.2398,3.2398,3.2398,3.2398,3.2398,3.2398,3.2398,3.2398,3.2398,3.2398,3.2398,3.2398,3.2398,3.2398,3.2398,3.2398,3.2398,3.2398,3.2398,3.1024,3.1024,3.1024,3.1024,3.1024,3.1024,3.1024,3.1024,3.1024,3.1024,3.1024,3.1024,3.1024,3.1061,3.1566,3.1978,3.2362,3.3058,3.3877,3.4112,3.4101,3.3784,3.3066,3.2092,3.159,3.1776,3.1781,3.1923,3.2079,3.2023,3.2089,3.2287,3.2244,3.2244,3.2315,3.2244,3.2231,3.2339,3.2075,3.1956,3.205,3.1982,3.1844,3.1859,3.1874,3.1921,3.1967,3.1967,3.1967,3.1736,3.1017,3.034,3.0125,3.0294,3.0909,3.1536,3.1428,3.1397,3.1844,3.2013,3.2151,3.2151,3.2259,3.2398,3.2398,3.2398,3.2398,3.2398,3.2398,3.2398,3.2398,3.2398,3.2459,3.249,3.2521,3.2505,3.2428,3.2428,3.2459,3.2459,3.249,3.2428,3.2444,3.249,3.2475,3.2428,3.2398,3.2398,3.2398,3.2398,3.2398,3.2398,3.2398,3.2398,3.2398,3.2398,3.2398,3.2398,3.2398,3.2398,3.2398,3.2398,3.2398,3.2398,3.2398,3.2398,3.2398,3.2398,3.2398,3.2398,3.2398,3.2398,3.2398,3.2398,3.2398,3.1024,3.1024,3.1024,3.1024,3.1024,3.1024,3.1024,3.1024,3.1024,3.1024,3.1024,3.1024,3.1198,3.1529,3.1942,3.2398,3.3304,3.4365,3.5026,3.5142,3.5208,3.5047,3.4668,3.388,3.3366,3.3271,3.29,3.2834,3.2785,3.2567,3.2342,3.2398,3.2398,3.237,3.2398,3.2398,3.2398,3.2398,3.2398,3.2398,3.2398,3.2398,3.2398,3.2398,3.2398,3.2398,3.2367,3.2367,3.2382,3.2213,3.172,3.1336,3.1336,3.1351,3.1736,3.2121,3.2148,3.1982,3.2305,3.2398,3.2382,3.2398,3.2398,3.2398,3.2398,3.2398,3.2398,3.2398,3.2398,3.2398,3.2428,3.2767,3.2829,3.2936,3.3195,3.3365,3.3334,3.309,3.2859,3.2952,3.3244,3.3383,3.3352,3.3059,3.2906,3.2998,3.2548,3.2518,3.2398,3.2398,3.2398,3.2398,3.2398,3.2398,3.2398,3.2398,3.2398,3.2398,3.2398,3.2398,3.2398,3.2398,3.2398,3.2398,3.2398,3.2398,3.2398,3.2398,3.2398,3.2398,3.2398,3.2398,3.2398,3.2398,3.2398,3.1024,3.1024,3.1024,3.1024,3.1024,3.1024,3.1024,3.1024,3.1123,3.1259,3.1235,3.1272,3.1859,3.2196,3.247,3.3269,3.4361,3.5124,3.5597,3.5693,3.5837,3.572,3.5416,3.5233,3.5049,3.4722,3.3952,3.3614,3.3398,3.2921,3.269,3.2567,3.2413,3.2413,3.2398,3.2398,3.2398,3.2398,3.2398,3.2398,3.2398,3.2398,3.2398,3.2398,3.2398,3.2398,3.2398,3.2398,3.2398,3.2398,3.2398,3.2398,3.2398,3.2398,3.2398,3.2398,3.2321,3.2336,3.2351,3.2398,3.2398,3.2398,3.2398,3.249,3.2552,3.2536,3.2628,3.2826,3.2934,3.2962,3.2838,3.3285,3.3565,3.3673,3.4166,3.4472,3.4428,3.3996,3.3871,3.3629,3.3858,3.4043,3.4043,3.3829,3.369,3.3475,3.2998,3.2687,3.2656,3.269,3.2903,3.3057,3.3195,3.3257,3.3257,3.2798,3.2752,3.2675,3.2628,3.2505,3.249,3.2398,3.2398,3.2398,3.2398,3.2398,3.2398,3.2398,3.2398,3.2398,3.2398,3.2398,3.2398,3.2398,3.2398,3.1024,3.1024,3.1024,3.1024,3.1024,3.1024,3.1048,3.1123,3.17,3.1919,3.1992,3.2541,3.2804,3.3143,3.3685,3.4442,3.5118,3.5574,3.5784,3.5926,3.6085,3.6089,3.6168,3.6122,3.6122,3.5845,3.5014,3.4412,3.4166,3.3614,3.3275,3.3136,3.2782,3.2552,3.2567,3.2428,3.2598,3.2675,3.2644,3.2656,3.2613,3.2536,3.2567,3.2552,3.2548,3.2444,3.2444,3.2428,3.2398,3.2398,3.2398,3.2398,3.2428,3.2428,3.2459,3.2398,3.2398,3.2398,3.2398,3.2444,3.2413,3.2398,3.2521,3.2798,3.2967,3.2844,3.309,3.3748,3.4083,3.4231,3.4308,3.4313,3.4405,3.444,3.4548,3.4761,3.4749,3.4872,3.4932,3.4582,3.4582,3.4628,3.469,3.4614,3.4383,3.4198,3.3904,3.3704,3.3673,3.3796,3.3966,3.4104,3.4227,3.4258,3.4258,3.3629,3.3275,3.3198,3.3075,3.2798,3.269,3.2475,3.2413,3.2598,3.2521,3.2398,3.2398,3.2398,3.2398,3.2398,3.2398,3.2398,3.2398,3.2398,3.2398,3.1222,3.1492,3.1147,3.1235,3.1542,3.1579,3.1786,3.2173,3.2506,3.2684,3.2755,3.3038,3.3422,3.3768,3.4109,3.4758,3.5377,3.5653,3.5831,3.599,3.6148,3.6305,3.6492,3.6492,3.6492,3.6322,3.5799,3.5306,3.4953,3.4335,3.3998,3.3891,3.3627,3.3503,3.3519,3.3565,3.3457,3.3429,3.3457,3.3457,3.3383,3.3152,3.3059,3.3244,3.2826,3.2598,3.2813,3.2505,3.2413,3.2398,3.2398,3.2398,3.2475,3.269,3.2782,3.2567,3.2475,3.2428,3.2505,3.2659,3.2936,3.2982,3.3198,3.3611,3.3827,3.3796,3.3858,3.4303,3.4606,3.4665,3.4531,3.4931,3.5057,3.512,3.5335,3.552,3.5613,3.589,3.5721,3.546,3.5583,3.5614,3.5553,3.5399,3.5091,3.4905,3.4736,3.4674,3.4643,3.469,3.4782,3.4736,3.4767,3.4782,3.4767,3.4382,3.3952,3.3829,3.3627,3.3349,3.3319,3.3257,3.3075,3.3044,3.2859,3.2675,3.2398,3.2398,3.2398,3.2398,3.2398,3.2398,3.2398,3.2398,3.2398,3.1713,3.2087,3.1653,3.1786,3.2268,3.2326,3.2613,3.3143,3.3353,3.3422,3.3457,3.3644,3.4056,3.4442,3.461,3.4953,3.5504,3.5686,3.5863,3.6005,3.6226,3.6383,3.646,3.6492,3.6492,3.6476,3.6384,3.6245,3.5691,3.5028,3.4751,3.4613,3.4613,3.4489,3.4382,3.4258,3.4474,3.4489,3.4489,3.4489,3.4335,3.3967,3.3889,3.4397,3.3411,3.3121,3.3506,3.3244,3.3013,3.2995,3.2934,3.2764,3.2582,3.3167,3.3475,3.3229,3.2998,3.2829,3.2982,3.3275,3.3629,3.3644,3.4166,3.4474,3.4767,3.4797,3.4936,3.4965,3.5056,3.5177,3.5272,3.5519,3.5721,3.5859,3.6199,3.6538,3.6415,3.643,3.6384,3.6322,3.6523,3.6368,3.6153,3.6137,3.5813,3.5691,3.5521,3.5444,3.5414,3.5306,3.5306,3.5198,3.5167,3.5183,3.5136,3.5013,3.4706,3.4614,3.4351,3.4027,3.4135,3.4258,3.4012,3.366,3.3444,3.3272,3.2829,3.2428,3.2398,3.2398,3.2398,3.2398,3.2398,3.2398,3.2398,3.2627,3.2146,3.2684,3.3017,3.3038,3.3073,3.3122,3.3318,3.3939,3.4177,3.4225,3.4839,3.5133,3.5246,3.5279,3.5392,3.5554,3.5765,3.5926,3.6037,3.6289,3.6429,3.6492,3.6492,3.6492,3.6492,3.6492,3.6476,3.6153,3.5645,3.5398,3.5321,3.4936,3.4551,3.4797,3.4813,3.4489,3.4536,3.4566,3.4582,3.4566,3.4474,3.4474,3.452,3.4305,3.4166,3.4289,3.412,3.4043,3.4089,3.415,3.3611,3.2875,3.3704,3.4922,3.5276,3.5029,3.4243,3.4166,3.4274,3.4366,3.4382,3.4597,3.4844,3.529,3.5845,3.6152,3.6522,3.6322,3.6153,3.6167,3.6537,3.6661,3.6599,3.6615,3.6739,3.6693,3.6569,3.6554,3.6585,3.6554,3.6523,3.6399,3.6492,3.6538,3.6415,3.6276,3.6184,3.6091,3.5891,3.5845,3.5737,3.5722,3.5707,3.5675,3.5521,3.5414,3.5353,3.5121,3.4797,3.4921,3.5013,3.4674,3.4382,3.4197,3.3796,3.3198,3.2813,3.2536,3.2628,3.2936,3.2736,3.2398,3.2456,3.2841,3.4036,3.3325,3.3248,3.3471,3.3802,3.3837,3.4104,3.4505,3.4839,3.4986,3.5019,3.5311,3.5489,3.5489,3.5489,3.5489,3.5554,3.575,3.5894,3.6037,3.6258,3.6383,3.6492,3.6492,3.6492,3.6492,3.6492,3.6492,3.6368,3.6261,3.6061,3.5984,3.5799,3.5706,3.5476,3.5614,3.5675,3.566,3.5645,3.566,3.5552,3.5321,3.526,3.5568,3.4921,3.4813,3.4936,3.4643,3.452,3.4443,3.4305,3.4058,3.3842,3.4428,3.5352,3.623,3.5984,3.529,3.4659,3.489,3.5028,3.5213,3.5353,3.5799,3.6107,3.6369,3.6616,3.66,3.6662,3.6647,3.6631,3.6739,3.677,3.6754,3.6816,3.68,3.6739,3.6647,3.6554,3.6569,3.66,3.6569,3.6554,3.6538,3.6569,3.6492,3.6399,3.6353,3.6322,3.6292,3.6292,3.6322,3.6307,3.6322,3.623,3.6122,3.6045,3.5999,3.5999,3.5753,3.5753,3.566,3.5367,3.5337,3.5353,3.4737,3.3812,3.3519,3.3503,3.3565,3.3627,3.3609,3.3649,3.4038,3.4502,3.4971,3.4528,3.3988,3.4104,3.4576,3.461,3.4905,3.5424,3.5457,3.5457,3.5489,3.5489,3.5489,3.5522,3.5539,3.5572,3.5587,3.5735,3.5879,3.6053,3.6211,3.6352,3.646,3.6492,3.6492,3.6492,3.6492,3.6492,3.6492,3.6445,3.6415,3.6492,3.6322,3.6368,3.6445,3.6368,3.6322,3.6322,3.6338,3.6353,3.6307,3.5953,3.6061,3.5999,3.5691,3.523,3.5553,3.5383,3.509,3.5028,3.486,3.486,3.5014,3.5367,3.5768,3.6384,3.6292,3.6014,3.5537,3.5521,3.5722,3.5922,3.6091,3.6322,3.6446,3.6647,3.6677,3.6523,3.6616,3.6616,3.6616,3.6708,3.6816,3.6846,3.6846,3.6785,3.677,3.6677,3.6585,3.6554,3.6585,3.6631,3.6616,3.6554,3.6523,3.6523,3.6492,3.6492,3.6492,3.6492,3.6492,3.6492,3.6492,3.6492,3.6476,3.6461,3.6492,3.6523,3.6523,3.6476,3.6307,3.6245,3.6045,3.6153,3.6353,3.6058,3.5338,3.4928,3.4532,3.4488,3.4544,3.4942,3.5201,3.559,3.5888,3.4776,3.5392,3.5326,3.5294,3.5359,3.5424,3.5424,3.5489,3.5489,3.5489,3.5489,3.5489,3.5489,3.5522,3.5621,3.5655,3.5688,3.6006,3.6101,3.6196,3.6367,3.646,3.6492,3.6492,3.6492,3.6492,3.6492,3.6492,3.6492,3.6492,3.6492,3.6492,3.6492,3.6492,3.6492,3.6492,3.6492,3.6492,3.6492,3.6492,3.6492,3.6368,3.6415,3.6445,3.6399,3.6384,3.6399,3.6199,3.6107,3.6091,3.5953,3.5922,3.5984,3.6107,3.6338,3.6415,3.6492,3.6292,3.6153,3.6138,3.6322,3.6415,3.6476,3.6523,3.6523,3.6492,3.6492,3.6523,3.6616,3.6647,3.6708,3.6862,3.6998,3.6968,3.6938,3.6923,3.6862,3.6708,3.6616,3.66,3.6585,3.6616,3.6616,3.6554,3.6523,3.6492,3.6492,3.6492,3.6492,3.6492,3.6492,3.6492,3.6492,3.6492,3.6492,3.6492,3.6492,3.6585,3.6631,3.6631,3.6569,3.6554,3.6676,3.6828,3.6963,3.6961,3.6866,3.6223,3.5716,3.5464,3.5554,3.6155,3.6577,3.688,3.7049,3.5213,3.5504,3.5489,3.5489,3.5489,3.5489,3.5489,3.5489,3.5489,3.5489,3.5504,3.5489,3.5539,3.5606,3.5671,3.5799,3.5894,3.6101,3.6164,3.6274,3.6367,3.6492,3.6492,3.6492,3.6492,3.6492,3.6492,3.6492,3.6492,3.6492,3.6492,3.6492,3.6492,3.6492,3.6492,3.6492,3.6492,3.6492,3.6492,3.6492,3.6492,3.6492,3.6492,3.6492,3.6492,3.6492,3.6476,3.6492,3.6492,3.6492,3.6492,3.6492,3.6492,3.6492,3.6492,3.6492,3.6492,3.6492,3.6492,3.6492,3.6492,3.6523,3.6569,3.6585,3.6523,3.6492,3.6492,3.6554,3.6677,3.677,3.6723,3.6938,3.7104,3.7089,3.7075,3.7014,3.6923,3.677,3.6708,3.6677,3.6616,3.6585,3.6585,3.6554,3.6523,3.6492,3.6492,3.6523,3.6585,3.6631,3.6693,3.68,3.6831,3.6769,3.6769,3.6662,3.6554,3.6693,3.6861,3.6967,3.7088,3.7222,3.737,3.7474,3.7634,3.7774,3.7671,3.7256,3.6981,3.6894,3.7113,3.751,3.7889,3.816,3.831,3.5489,3.5489,3.5489,3.5489,3.5489,3.5489,3.5489,3.5489,3.5489,3.5537,3.5554,3.5572,3.5668,3.5767,3.5847,3.5926,3.6085,3.6211,3.6274,3.6336,3.6414,3.6492,3.6492,3.6492,3.6492,3.6492,3.6492,3.6492,3.6492,3.6492,3.6492,3.6492,3.6492,3.6492,3.6492,3.6492,3.6492,3.6492,3.6492,3.6492,3.6492,3.6492,3.6492,3.6492,3.6492,3.6492,3.6492,3.6492,3.6492,3.6492,3.6492,3.6492,3.6492,3.6492,3.6492,3.6492,3.6492,3.6492,3.6492,3.6492,3.6492,3.6523,3.6538,3.6538,3.6523,3.6492,3.6523,3.6585,3.6816,3.6938,3.6785,3.6968,3.7059,3.706,3.7044,3.7014,3.6969,3.6877,3.6847,3.68,3.6708,3.6693,3.7028,3.7058,3.6892,3.6739,3.6492,3.6662,3.6922,3.6997,3.7088,3.7193,3.7312,3.7193,3.7072,3.7222,3.7356,3.7431,3.7562,3.7621,3.7738,3.7895,3.7953,3.7937,3.8193,3.8613,3.8542,3.8181,3.8279,3.8432,3.8636,3.8721,3.8977,3.9201,3.9463,3.5489,3.5489,3.5489,3.5489,3.5489,3.5489,3.5489,3.5504,3.5489,3.5587,3.5655,3.5703,3.5799,3.5958,3.607,3.6148,3.6242,3.6383,3.646,3.646,3.6476,3.6492,3.6492,3.6492,3.6492,3.6492,3.6492,3.6492,3.6492,3.6492,3.6492,3.6492,3.6492,3.6492,3.6492,3.6492,3.6492,3.6492,3.6492,3.6492,3.6492,3.6492,3.6492,3.6492,3.6492,3.6492,3.6492,3.6492,3.6492,3.6492,3.6492,3.6492,3.6492,3.6492,3.6492,3.6492,3.6492,3.6492,3.6492,3.6492,3.6492,3.6523,3.6538,3.6538,3.6523,3.6523,3.6585,3.6662,3.6862,3.6969,3.6969,3.6999,3.6999,3.6999,3.6999,3.6999,3.6938,3.6847,3.677,3.7013,3.6922,3.6876,3.7385,3.7634,3.7385,3.7103,3.6646,3.6769,3.7252,3.7431,3.7533,3.7592,3.7722,3.7751,3.7722,3.7994,3.8137,3.821,3.8238,3.8266,3.8435,3.8657,3.8613,3.8502,3.875,3.9172,3.9216,3.9129,3.9189,3.9216,3.9601,3.98,4.0003,4.0045,4.007,3.5489,3.5489,3.5489,3.5489,3.5489,3.5489,3.5489,3.5522,3.5589,3.5671,3.572,3.5831,3.599,3.6116,3.6164,3.6274,3.6414,3.6429,3.6492,3.6492,3.6492,3.6492,3.6492,3.6492,3.6492,3.6492,3.6492,3.6492,3.6492,3.6492,3.6492,3.6492,3.6492,3.6492,3.6492,3.6492,3.6492,3.6492,3.6492,3.6492,3.6492,3.6492,3.6492,3.6492,3.6492,3.6492,3.6492,3.6492,3.6492,3.6492,3.6492,3.6492,3.6492,3.6492,3.6492,3.6492,3.6492,3.6492,3.6492,3.6492,3.6492,3.6523,3.6538,3.6538,3.6523,3.6724,3.677,3.677,3.6892,3.6969,3.6999,3.6999,3.6999,3.6969,3.6969,3.6938,3.6908,3.6739,3.6693,3.7193,3.731,3.7605,3.8023,3.8351,3.821,3.8096,3.7751,3.7634,3.7982,3.801,3.8067,3.8067,3.8137,3.8222,3.8334,3.8585,3.864,3.8574,3.8712,3.8892,3.9082,3.9295,3.9401,3.9348,3.9506,3.9722,3.967,3.9644,3.9747,3.9918,4.0045,4.0113,4.007,4.007,4.0096,3.5489,3.5489,3.5489,3.5489,3.5489,3.5489,3.5489,3.5522,3.5604,3.5686,3.5831,3.5973,3.6132,3.6242,3.632,3.6352,3.6492,3.6492,3.6492,3.6492,3.6492,3.6492,3.6492,3.6492,3.6492,3.6492,3.6492,3.6492,3.6492,3.6492,3.6492,3.6492,3.6492,3.6492,3.6492,3.6492,3.6492,3.6492,3.6492,3.6492,3.6492,3.6492,3.6492,3.6492,3.6492,3.6492,3.6492,3.6492,3.6492,3.6492,3.6492,3.6492,3.6492,3.6492,3.6492,3.6492,3.6492,3.6492,3.6492,3.6492,3.6492,3.6492,3.66,3.6569,3.6554,3.6647,3.677,3.6831,3.6938,3.6969,3.6969,3.6969,3.6938,3.6938,3.6969,3.6969,3.6984,3.6816,3.7072,3.7531,3.7921,3.8278,3.864,3.8903,3.9055,3.8984,3.893,3.8794,3.864,3.8613,3.8684,3.8794,3.8832,3.9011,3.9092,3.9146,3.9119,3.8957,3.9162,3.9391,3.9549,3.9731,3.9969,4.0113,3.9995,3.9944,4.002,4.007,4.002,4.002,4.007,4.0113,4.0113,4.0113,4.0113,3.5489,3.5489,3.5489,3.5489,3.5489,3.5489,3.5489,3.5489,3.5522,3.5716,3.5973,3.6005,3.6163,3.6429,3.646,3.6492,3.6492,3.6492,3.6492,3.6492,3.6492,3.6492,3.6492,3.6492,3.6492,3.6492,3.6492,3.6492,3.6492,3.6492,3.6492,3.6492,3.6492,3.6492,3.6492,3.6492,3.6492,3.6492,3.6492,3.6492,3.6492,3.6492,3.6492,3.6492,3.6492,3.6492,3.6492,3.6492,3.6492,3.6492,3.6492,3.6492,3.6492,3.6492,3.6492,3.6492,3.6492,3.6492,3.6492,3.6492,3.6492,3.6492,3.6523,3.6492,3.6523,3.6554,3.6677,3.6847,3.6954,3.6969,3.6969,3.6938,3.6877,3.6923,3.7014,3.7059,3.715,3.7298,3.7605,3.7978,3.839,3.8767,3.9242,3.9523,3.9575,3.9601,3.9523,3.9444,3.9295,3.9242,3.9348,3.9627,3.9731,3.9876,3.9901,3.9679,3.9653,3.948,3.9653,3.985,4.002,4.002,4.007,4.0113,4.0113,4.0113,4.0113,4.0113,4.007,4.0113,4.0113,4.0113,4.0113,4.0113,4.0113,3.5489,3.5489,3.5489,3.5489,3.5489,3.5489,3.5554,3.5653,3.5782,3.591,3.6005,3.6085,3.6179,3.6305,3.646,3.6492,3.6492,3.6492,3.6492,3.6492,3.6492,3.6492,3.6492,3.6492,3.6492,3.6492,3.6492,3.6492,3.6492,3.6492,3.6492,3.6492,3.6492,3.6492,3.6492,3.6492,3.6492,3.6492,3.6492,3.6492,3.6492,3.6492,3.6492,3.6492,3.6492,3.6492,3.6492,3.6492,3.6492,3.6492,3.6492,3.6492,3.6492,3.6492,3.6492,3.6492,3.6492,3.6492,3.6492,3.6492,3.6492,3.6492,3.6492,3.6492,3.6492,3.6523,3.6616,3.6816,3.6908,3.6877,3.6862,3.6831,3.6923,3.7029,3.7164,3.7342,3.749,3.7854,3.8193,3.8723,3.9119,3.9348,3.9799,3.9825,3.9893,4.002,4.0045,3.9944,3.9867,3.9747,3.9747,4.002,4.0113,4.0113,4.0113,3.9944,3.9995,4.0045,4.0113,4.0113,4.007,4.007,4.0096,4.0113,4.0113,4.0113,4.0113,4.0113,4.0113,4.0113,4.0113,4.0113,4.0113,4.0113,4.0113,3.5489,3.5489,3.5489,3.5489,3.5489,3.5539,3.5606,3.572,3.5782,3.5829,3.5894,3.6053,3.6148,3.6242,3.6414,3.6492,3.6492,3.6492,3.6492,3.6492,3.6492,3.6492,3.6492,3.6492,3.6492,3.6492,3.6492,3.6492,3.6492,3.6492,3.6492,3.6492,3.6492,3.6492,3.6492,3.6492,3.6492,3.6492,3.6492,3.6492,3.6492,3.6492,3.6492,3.6492,3.6492,3.6492,3.6492,3.6492,3.6492,3.6492,3.6492,3.6492,3.6492,3.6492,3.6492,3.6492,3.6492,3.6492,3.6492,3.6492,3.6492,3.6492,3.6492,3.6492,3.6492,3.6523,3.6662,3.6816,3.6816,3.6785,3.677,3.68,3.6983,3.7148,3.7415,3.7677,3.8023,3.839,3.893,3.9549,3.985,4.002,4.0163,4.0138,4.0113,4.0113,4.0113,4.0045,4.002,3.9969,3.9944,4.007,4.0113,4.0113,4.0113,4.0113,4.0113,4.0113,4.0113,4.0113,4.0113,4.0113,4.0113,4.0113,4.0113,4.0113,4.0113,4.0113,4.0113,4.0113,4.0113,4.0113,4.0113,4.0113,4.0113,3.5489,3.5489,3.5489,3.5489,3.5537,3.5653,3.572,3.572,3.5636,3.5636,3.5767,3.5926,3.6085,3.6242,3.6414,3.6492,3.6492,3.6492,3.6492,3.6492,3.6492,3.6492,3.6492,3.6492,3.6492,3.6492,3.6492,3.6492,3.6492,3.6492,3.6492,3.6492,3.6492,3.6492,3.6492,3.6492,3.6492,3.6492,3.6492,3.6492,3.6492,3.6492,3.6492,3.6492,3.6492,3.6492,3.6492,3.6492,3.6492,3.6492,3.6492,3.6492,3.6492,3.6492,3.6492,3.6492,3.6492,3.6492,3.6492,3.6492,3.6492,3.6492,3.6492,3.6523,3.6523,3.6616,3.6785,3.6724,3.6677,3.6907,3.6983,3.7088,3.7252,3.765,3.8039,3.825,3.853,3.893,3.947,3.9944,4.0045,4.0188,4.0138,4.0113,4.0113,4.0113,4.0113,4.0113,4.0113,4.0113,4.0113,4.0113,4.0113,4.0113,4.0113,4.0113,4.0113,4.0113,4.0113,4.0113,4.0113,4.0113,4.0113,4.0113,4.0113,4.0113,4.0113,4.0113,4.0113,4.0113,4.0113,4.0113,4.0113,4.0113,4.0113,3.5489,3.5489,3.5489,3.5554,3.5638,3.5688,3.5799,3.5941,3.5893,3.5878,3.5926,3.6085,3.6133,3.6211,3.6414,3.6492,3.6492,3.6492,3.6492,3.6492,3.6492,3.6492,3.6492,3.6492,3.6492,3.6492,3.6492,3.6492,3.6492,3.6492,3.6492,3.6492,3.6492,3.6492,3.6492,3.6492,3.6492,3.6492,3.6492,3.6492,3.6492,3.6492,3.6492,3.6492,3.6492,3.6492,3.6492,3.6492,3.6492,3.6492,3.6492,3.6492,3.6492,3.6492,3.6492,3.6492,3.6492,3.6492,3.6492,3.6492,3.6492,3.6492,3.6523,3.6569,3.6631,3.68,3.6831,3.6708,3.6754,3.7058,3.7282,3.7415,3.7634,3.8181,3.8673,3.8838,3.9011,3.9497,3.9969,4.007,4.0188,4.0163,4.0113,4.0113,4.0113,4.0113,4.0113,4.0113,4.0113,4.0113,4.0113,4.0113,4.0113,4.0113,4.0113,4.0113,4.0113,4.0113,4.0113,4.0113,4.0113,4.0113,4.0113,4.0113,4.0113,4.0113,4.0113,4.0113,4.0113,4.0113,4.0113,4.0113,4.0113,4.0113,4.0113,3.5489,3.5489,3.5587,3.5671,3.5831,3.5831,3.5894,3.6005,3.6068,3.6085,3.6085,3.6179,3.6211,3.6242,3.6414,3.6492,3.6492,3.6492,3.6492,3.6492,3.6492,3.6492,3.6492,3.6492,3.6492,3.6492,3.6492,3.6492,3.6492,3.6492,3.6492,3.6492,3.6492,3.6492,3.6492,3.6492,3.6492,3.6492,3.6492,3.6492,3.6492,3.6492,3.6492,3.6492,3.6492,3.6492,3.6492,3.6492,3.6492,3.6492,3.6492,3.6492,3.6492,3.6492,3.6492,3.6492,3.6492,3.6492,3.6492,3.6492,3.6492,3.6492,3.6523,3.6569,3.6677,3.6846,3.7268,3.7222,3.7474,3.778,3.7867,3.7994,3.8306,3.8794,3.9082,3.9269,3.9523,3.9876,4.0087,4.0087,4.0138,4.0138,4.0113,4.0113,4.0113,4.0113,4.0113,4.0113,4.0113,4.0113,4.0113,4.0113,4.0113,4.0113,4.0113,4.0113,4.0113,4.0113,4.0113,4.0113,4.0113,4.0113,4.0113,4.0113,4.0113,4.0113,4.0113,4.0113,4.0113,4.0113,4.0113,4.0113,4.0113,4.0113,4.0113,3.5554,3.5587,3.5686,3.5863,3.6005,3.6037,3.6037,3.61,3.6179,3.6242,3.6242,3.6242,3.6242,3.6305,3.6383,3.646,3.6492,3.6492,3.6492,3.6492,3.6492,3.6492,3.6492,3.6492,3.6492,3.6492,3.6492,3.6492,3.6492,3.6492,3.6492,3.6492,3.6492,3.6492,3.6492,3.6492,3.6492,3.6492,3.6492,3.6492,3.6492,3.6492,3.6492,3.6492,3.6492,3.6492,3.6492,3.6492,3.6492,3.6492,3.6492,3.6492,3.6492,3.6492,3.6492,3.6492,3.6492,3.6492,3.6492,3.6492,3.6492,3.6523,3.6554,3.6693,3.6831,3.7103,3.7533,3.7953,3.8238,3.8379,3.8474,3.8585,3.893,3.9295,3.9506,3.9662,3.9927,4.0163,4.0138,4.0113,4.0113,4.0113,4.0113,4.0113,4.0113,4.0113,4.0113,4.0113,4.0113,4.0113,4.0113,4.0113,4.0113,4.0113,4.0113,4.0113,4.0113,4.0113,4.0113,4.0113,4.0113,4.0113,4.0113,4.0113,4.0113,4.0113,4.0113,4.0113,4.0113,4.0113,4.0113,4.0113,4.0113,4.0113,4.0113,3.5735,3.5925,3.5941,3.6022,3.6148,3.6164,3.6242,3.6383,3.6429,3.6445,3.6414,3.6445,3.6445,3.646,3.646,3.6492,3.6492,3.6492,3.6492,3.6492,3.6492,3.6492,3.6492,3.6492,3.6492,3.6492,3.6492,3.6492,3.6492,3.6492,3.6492,3.6492,3.6492,3.6492,3.6492,3.6492,3.6492,3.6492,3.6492,3.6492,3.6492,3.6492,3.6492,3.6492,3.6492,3.6492,3.6492,3.6492,3.6492,3.6492,3.6492,3.6492,3.6492,3.6492,3.6492,3.6492,3.6492,3.6492,3.6492,3.6616,3.6631,3.6693,3.6831,3.7238,3.7401,3.7546,3.8039,3.8657,3.8903,3.8984,3.9065,3.9082,3.9312,3.9705,4.0003,4.0045,4.0188,4.0163,4.0113,4.0113,4.0113,4.0113,4.0113,4.0113,4.0113,4.0113,4.0113,4.0113,4.0113,4.0113,4.0113,4.0113,4.0113,4.0113,4.0113,4.0113,4.0113,4.0113,4.0113,4.0113,4.0113,4.0113,4.0113,4.0113,4.0113,4.0113,4.0113,4.0113,4.0113,4.0113,4.0113,4.0113,4.0113,4.0113,4.0113]}]]